GFSSW_prec_radar_000.txt.gz
Reflectivity
-20 -20 -14 7 21 -4 -20 16 -17 -1 -14 -20 -20 -17 4 -12 -7 3 10 -6 -20 -20 -20 -20 -20 -20 -20 -20 -20 -20 -20 -20 -20 -20 -20 -20 -20 -20 -20 -20 -20 -20 -20 -20 -20
-20 -19 -4 -20 -20 -20 -20 -20 -20 -20 -19 -20 -20 -3 8 -7 -8 -2 -20 -20 -20 -20 -20 -20 -20 -20 -20 -20 -20 -20 -20 -20 -20 -20 -20 -20 -20 -20 -20 -20 -20 -20 -20 -20 -20
-20 -20 26 -20 -20 -19 -4 -4 -11 -20 -20 -20 -20 1 6 13 13 -14 7 -20 -12 -20 -20 -20 -20 -20 -20 -20 -20 -20 -20 -20 -20 -20 -20 -20 -20 -20 -20 -20 -20 -20 -20 -20 -20
-20 -20 22 -20 -20 -20 -7 2 -20 4 -8 -10 -18 2 -14 25 4 -20 -20 -18 -16 -20 -20 -20 -20 -20 -20 -20 -20 -20 -20 -20 -20 -20 -20 -20 -20 -20 -20 -20 -20 -20 -20 -20 -20
24 -20 -20 -20 -20 -20 3 -20 -20 -2 5 -20 -20 -4 26 10 -1 -20 -20 -20 4 2 22 -20 -20 -20 -20 -20 -20 -20 -20 -20 -20 -20 -20 -20 -20 -20 -20 -20 -20 -20 -20 -20 -20
-8 -12 -20 -20 -20 -20 -20 -20 -20 -15 -14 -20 -20 8 19 12 -20 -20 -20 -20 -20 -1 1 -20 -20 -20 -20 -20 -20 -20 -20 -20 -20 -20 -20 -20 -20 -20 -20 -20 -20 -20 -20 -20 -20
-20 -20 -20 -20 -19 -20 -20 -20 -20 -20 26 25 -20 9 26 -19 -20 -15 24 -20 -20 -0 19 -13 -4 -20 -20 -20 -20 -20 -20 -20 -20 -20 -20 -20 -20 -20 -20 -20 -20 -20 -20 -20 -20
-18 -20 -20 -20 -20 -20 -20 -20 3 14 -11 -1 -5 25 -19 24 14 -20 26 26 -20 -17 20 10 -12 -14 -20 -20 -20 -20 -20 -20 -20 -20 -20 -20 -20 -20 -20 -20 -20 -20 -20 -20 -20
-20 -11 11 -7 -12 -20 -20 -20 27 33 -0 15 -20 -6 -20 29 27 -20 7 2 -20 23 10 31 -1 -20 -20 -20 -20 -20 -20 -20 -20 -20 -20 -20 -20 -20 -20 -20 -20 -20 -20 -20 -20
17 2 17 20 14 4 8 22 28 28 -7 -10 -14 -12 32 -5 2 28 27 17 -13 9 24 22 -11 -20 -20 -20 -20 -20 -20 -20 -20 -20 -20 -20 -20 -20 -20 -20 -20 -20 -20 -20 -20
9 5 7 20 0 18 21 31 34 36 20 9 -18 15 24 28 30 38 22 22 16 -5 22 12 -20 -20 -20 -20 -20 -20 -20 -20 -20 -20 -20 -20 -20 -20 -20 -20 -20 -20 -20 -20 -20
-17 12 -4 13 16 29 26 30 31 31 38 41 16 24 29 27 33 30 25 24 18 20 2 -20 -20 -20 -20 -20 -20 -20 -20 -20 -20 -20 -20 -20 -20 -20 -20 -20 -20 -20 -20 -20 -20
18 15 9 19 21 21 28 32 32 33 38 25 23 30 13 38 27 28 29 1 7 16 14 -20 -20 -20 -20 -20 -20 -20 -20 -20 -20 -20 -20 -20 -20 -20 -20 -20 -20 -20 -20 -20 -20
7 20 10 15 2 11 29 28 19 14 33 35 34 33 32 38 32 19 9 8 28 19 -16 -20 -20 -20 -20 -20 -20 -20 -20 -20 -20 -20 -20 -20 -20 -20 -20 -20 -20 -20 -20 -20 -20
10 14 -7 6 8 16 22 22 24 28 24 38 39 40 39 33 41 28 24 35 24 13 -11 -20 -20 -20 -20 -20 -20 -20 -20 -20 -20 -20 -20 -20 -20 -20 -20 -20 -20 -20 -20 -20 -20
14 -19 3 22 4 22 22 20 11 9 21 31 33 37 36 32 35 39 36 21 1 -20 -20 -20 -20 -20 -20 -20 -20 -20 -20 -20 -20 -20 -20 -20 -20 -20 -20 -20 -20 -20 -20 -20 -20
8 -6 9 15 21 23 16 22 20 8 20 28 32 26 21 33 32 19 -5 -20 -20 -8 -20 13 -17 -14 -20 -20 -20 -20 -20 -20 -20 -20 -20 -20 -20 -20 -20 -20 -20 -20 -20 -20 -20
-17 9 -0 -18 2 -4 14 -5 -5 12 15 28 30 34 31 16 17 12 10 -12 -4 -20 -13 2 -15 -20 -20 -20 -20 -20 -20 -20 -20 -20 -20 -20 -20 -20 -20 -20 -20 -20 -20 -20 -20
-20 -20 -20 -20 -4 -6 22 23 8 -0 5 21 33 33 30 -12 -20 -4 1 4 -5 -1 0 -12 -20 -20 -20 -20 -20 -20 -20 -20 -20 -20 -20 -20 -20 -20 -20 -20 -20 -20 -20 -20 -20
-20 -20 -20 -20 -20 -20 -13 -20 -20 14 -10 1 13 19 23 23 -7 -19 1 -2 -19 -19 -3 -15 -20 -20 -20 -20 -20 -20 -20 -20 -20 -20 -20 -20 -20 -20 -20 -20 -20 -20 -20 -20 -20
-20 -20 -20 -20 -20 -20 -20 -20 -20 -20 -17 22 22 24 14 11 8 -7 -20 -12 -20 -20 -20 -19 -20 -20 -20 -20 -20 -20 -20 -20 -20 -20 -20 -20 -20 -20 -20 -20 -20 -20 -20 -20 -20
-20 -20 -20 -20 -20 -20 -20 -20 -20 -20 -20 -20 -10 -18 6 22 -4 -19 -20 -5 -17 -20 -20 -20 -20 -20 -20 -20 -20 -20 -20 -20 -20 -20 -20 -20 -20 -20 -20 -20 -20 -20 -20 -20 -20
-20 -20 -20 -20 -20 -20 -20 -20 -20 -20 -20 -20 -20 -20 -20 -20 -20 -20 -20 -20 -20 6 -10 -19 -20 -20 -20 -20 -20 -20 -20 -20 -20 -20 -20 -20 -20 -20 -20 -20 -20 -20 -20 -20 -20
-20 -20 -20 -20 -20 -20 -20 -20 -20 -20 -20 -20 -20 -20 -20 -20 -20 -20 -20 -20 -20 -20 -20 -20 -20 -20 -20 -20 -20 -20 -20 -20 -20 -20 -20 -20 -20 -20 -18 -17 -20 -20 -20 -20 -20
-20 -20 -20 -20 -20 -20 -20 -20 -20 -20 -20 -20 -20 -20 -20 -20 -20 -20 -20 -20 -20 -20 -20 -20 -20 -20 -20 -20 -20 -20 -20 -20 -20 -20 -20 -17 -20 -10 -17 -20 -20 -20 -20 -20 -20
-20 -20 -20 -20 -20 -20 -20 -20 -20 -20 -20 -20 -20 -20 -20 -20 -20 -20 -20 -20 -20 -20 -20 -20 -20 -20 -20 -20 -20 -20 -20 -20 -20 -20 -20 -20 -20 -20 -20 -20 -20 -20 -20 -20 -20
-20 -20 -20 -20 -20 -20 -20 -20 -20 -20 -20 -20 -20 -20 -20 -20 -20 -20 -20 -20 -20 -20 -20 -20 -20 -20 -20 -20 -20 -20 -20 -20 -20 -20 -20 -20 -20 -20 -20 -20 -20 -20 -20 -20 -20

GFSSW_prec_radar_003.txt.gz
Reflectivity
-20 -20 -20 -20 -14 -20 -20 -20 -20 -20 7 5 -15 -20 -14 -20 6 8 -19 -20 -20 -20 -20 -20 -20 -20 -20 -20 -20 -20 -20 -20 -20 -20 -20 -20 -20 -20 -20 -20 -20 -20 -20 -20 -20
-20 -15 -20 -2 -20 5 -5 -20 -20 -20 -16 -20 -20 -20 -20 6 5 -6 -20 -20 -20 -20 -20 -20 -20 -20 -20 -20 -20 -20 -20 -20 -20 -20 -20 -20 -20 -20 -20 -20 -20 -20 -20 -20 -20
-20 -20 -20 -9 -7 -20 -20 -0 2 -0 -2 -20 -20 -20 -20 17 10 -20 -20 -20 -5 8 -20 -20 -20 -20 -20 -20 -20 -20 -20 -20 -20 -20 -20 -20 -20 -20 -20 -20 -20 -20 -20 -20 -20
-20 -20 -20 -20 -19 -17 -20 -20 -6 -20 -20 -20 -20 -20 -9 13 -19 -20 -20 -20 -20 1 -20 -20 -20 -20 -20 -20 -20 -20 -20 -20 -20 -20 -20 -20 -20 -20 -20 -20 -20 -20 -20 -20 -20
1 -20 -20 -20 -20 -9 -20 4 -2 -20 -6 -20 -20 6 -5 9 -0 -20 -20 -20 -20 -8 -17 -20 -20 -20 -20 -20 -20 -20 -20 -20 -20 -20 -20 -20 -20 -20 -20 -20 -20 -20 -20 -20 -20
-20 -20 -20 -20 -20 -20 -20 2 -5 -20 -20 -20 -20 13 13 8 -20 -20 -1 -20 -20 -20 -20 -20 -20 -20 -20 -20 -20 -20 -20 -20 -20 -20 -20 -20 -20 -20 -20 -20 -20 -20 -20 -20 -20
-2 -20 -20 -20 -20 -12 -20 -20 -20 -20 -20 -20 -1 22 13 -19 -20 -20 -8 15 -20 -20 -13 6 -20 -20 -20 -20 -20 -20 -20 -20 -20 -20 -20 -20 -20 -20 -20 -20 -20 -20 -20 -20 -20
18 -20 -2 -19 -13 -20 -20 -20 -19 9 -10 -20 20 15 8 -20 -20 -15 -11 -6 10 -20 -20 18 24 -20 -20 -20 -20 -20 -20 -20 -20 -20 -20 -20 -17 -20 -20 -20 -20 -20 -20 -20 -20
5 -20 12 10 -20 -20 -20 -20 -20 14 4 15 23 18 -6 -20 -20 -20 -4 16 -12 -1 26 20 -12 -3 -20 -20 -20 -20 -20 -20 -20 -20 -20 -20 -20 -20 -20 -20 -20 -20 -20 -20 -20
7 14 12 27 14 12 -13 19 35 41 26 -11 -20 9 -20 -20 -20 1 -20 20 -20 -20 20 15 32 -10 3 -20 -20 -20 -20 -20 -20 -20 -20 -20 -20 -20 -20 -20 -20 -20 -20 -20 -20
25 20 19 15 19 -20 19 26 18 31 11 -20 -20 -20 -20 -20 -20 -20 -11 27 13 -11 17 18 25 22 -20 -20 -20 -20 -20 -20 -20 -20 -20 -20 -20 -20 -20 -20 -20 -20 -20 -20 -20
17 4 19 22 12 23 33 28 19 -20 -20 -20 -20 -5 15 29 1 -10 26 25 13 3 11 13 -13 -5 -20 -20 -20 -20 -20 -20 -20 -20 -17 -20 -20 -20 -20 -20 -20 -20 -20 -20 -20
21 5 13 -7 9 21 22 23 13 18 27 -9 -13 13 26 32 -2 9 29 12 12 9 -2 -20 -0 -20 -20 -20 -20 -20 -20 -20 -20 -20 -20 -20 -20 -20 -20 -20 -20 -20 -20 -20 -20
21 13 17 -7 21 22 25 11 21 29 26 33 26 25 28 40 22 34 33 18 24 -10 14 7 -19 -20 -20 -20 -20 -20 -20 -20 -20 -20 -20 -20 -20 -20 -20 -20 -20 -20 -20 -20 -20
15 6 21 -10 28 35 37 20 31 25 15 19 19 20 31 27 34 38 39 22 5 -7 18 18 17 -20 -20 -20 -20 -20 -20 -20 -20 -20 -20 -20 -20 -20 -20 -20 -20 -20 -20 -20 -20
11 25 23 31 32 36 35 26 29 23 18 30 21 12 10 39 28 20 -18 31 10 29 24 -20 -20 -20 -20 -20 -20 -20 -20 -20 -20 -20 -20 -20 -20 -20 -20 -20 -20 -20 -20 -20 -20
-18 21 15 27 24 34 35 26 32 14 17 28 27 3 24 28 2 11 21 32 28 29 -5 -20 -20 -20 -20 -20 -20 -20 -20 -20 -20 -20 -20 -20 -20 -20 -20 -20 -20 -20 -20 -20 -20
19 5 25 24 28 31 32 35 21 23 23 24 27 17 31 26 6 3 8 31 11 -18 -20 -20 -20 -20 -20 -20 -20 -20 -20 -20 -20 -20 -20 -20 -20 -20 -20 -20 -20 -20 -20 -20 -20
-18 -5 -8 -4 -6 23 28 22 28 23 24 34 38 33 34 34 24 21 -12 -6 11 17 -19 -20 -20 -20 -20 -20 -20 -20 -20 -20 -20 -20 -20 -20 -20 -20 -20 -20 -20 -20 -20 -20 -20
-20 -20 -20 -20 -20 -9 20 31 32 32 32 27 31 21 29 15 -9 15 13 -11 -18 -20 -19 -20 -20 -17 -20 -20 -20 -20 -20 -20 -20 -20 -20 -20 -20 -20 -20 -20 -20 -20 -20 -20 -20
-20 -20 -20 -20 -20 -20 -10 7 31 26 26 26 8 26 16 16 16 8 5 -5 -19 -8 -18 -20 -20 -20 -20 -20 -20 -20 -20 -20 -20 -20 -20 -20 -20 -20 -20 -20 -20 -20 -20 -20 -20
-20 -20 -20 -20 -20 -20 -20 -20 -4 29 18 25 17 15 10 3 -5 8 11 -3 -18 -20 -20 -20 -20 -20 -20 -20 -20 -20 -20 -20 -20 -20 -20 -20 -20 -20 -20 -20 -20 -20 -20 -20 -20
-20 -20 -20 -20 -20 -20 -20 -20 -20 -3 26 9 2 5 -20 -9 -17 1 -16 -2 1 -20 -20 -15 -19 -20 -20 -20 -20 -20 -20 -20 -20 -20 -20 -20 -20 -20 -20 -20 -20 -20 -20 -20 -20
-20 -20 -20 -20 -20 -20 -20 -20 -20 -20 -20 -20 -20 -20 -20 -17 -8 -14 -20 -20 -16 -1 -13 -20 -20 -20 -20 -20 -20 -20 -20 -20 -20 -20 -20 -20 -20 -20 -20 -20 -20 -20 -20 -20 -20
-20 -20 -20 -20 -20 -20 -20 -20 -20 -20 -20 -20 -20 -20 -20 -20 -14 -13 -20 -4 -11 -20 -9 -20 -16 -3 -19 -20 -20 -20 -20 -20 -20 -20 -20 -20 -20 -20 -20 -20 -20 -20 -20 -20 -20
-20 -20 -20 -20 -20 -20 -20 -20 -20 -18 7 -20 -17 -20 -20 -4 4 -18 -20 -20 -19 -20 -20 -20 -20 -20 -20 -20 -20 -20 -20 -20 -20 -20 -20 -20 -20 -20 -20 -20 -20 -20 -20 -20 -20
-20 -20 -20 -20 -20 -20 -20 -20 -20 -20 -1 6 2 -20 -20 -20 -19 0 3 -13 -15 -19 -20 -20 -20 -20 -20 -20 -20 -7 -20 -20 -20 -20 -20 -20 -20 -20 -20 -20 -20 -20 -20 -20 -20

GFSSW_prec_radar_006.txt.gz
Reflectivity
-20 -12 -15 -15 -20 -20 -20 -20 -20 -20 -5 -20 4 -20 -20 -20 -7 11 -18 -20 -20 -20 -20 -20 -20 -20 -20 -20 -20 -20 -20 -20 -20 -20 -20 -20 -20 -20 -20 -20 -20 -20 -20 -20 -20
-20 -19 -3 -7 2 -12 -20 -4 -20 -10 -16 -20 14 -20 -20 -20 -5 5 -20 -20 -20 -20 -20 -20 -20 -20 -20 -20 -20 -20 -20 -20 -20 -20 -20 -20 -20 -20 -20 -20 -20 -20 -20 -20 -20
-20 -20 -20 -18 -2 -20 -5 -20 -15 -20 -20 14 -20 -20 -20 -2 -2 -20 -20 -20 -20 -20 -20 -20 -20 -20 -20 -20 -20 -20 -20 -20 -20 -20 -20 -20 -20 -20 -20 -20 -20 -20 -20 -20 -20
-20 -20 -20 -20 -20 -20 -20 24 -20 -20 -20 19 -18 -20 5 19 -20 -20 -20 -20 -20 -20 -15 -20 -20 -20 -20 -20 -20 -20 -20 -20 -20 -20 -20 -20 -20 -20 -20 -20 -20 -20 -20 -20 -20
-20 -20 -20 -20 -20 -20 -20 -20 4 15 1 -16 12 -3 15 10 -8 -20 -20 -20 -20 -8 5 -20 -20 -20 -20 -20 -20 -20 -20 -20 -20 -20 -20 -20 -20 -20 -20 -20 -20 -20 -20 -20 -20
-20 -11 -20 -20 -20 -20 -20 -20 -17 9 -20 1 20 18 15 -4 -20 -20 -20 -20 -20 -13 -20 -20 -20 -20 -20 -20 -20 -20 -20 -20 -20 -20 -20 -20 -20 -20 -20 -20 -20 -20 -20 -20 -20
-20 -18 -17 -20 -20 -20 -20 -20 -20 23 -11 -20 0 23 17 -20 -20 -20 -20 -20 -20 -0 9 -20 -20 -20 -20 -20 -20 -20 -20 -20 -20 -20 -20 -20 -20 -20 -20 -20 -20 -20 -20 -20 -20
12 -11 7 -16 -16 -4 5 5 -20 2 -20 -20 -1 25 -17 -20 -20 -20 -20 -20 -20 -20 23 -17 -10 24 -20 -20 -20 -20 -20 -20 -20 -20 -20 -20 -20 -20 -20 -20 -20 -20 -20 -20 -20
18 15 7 20 0 -12 -3 23 -4 2 -1 -20 27 6 -20 -20 -20 -20 -10 -20 -20 -12 -15 29 -17 -20 -19 -18 -20 -20 -20 -20 -20 -20 -20 -20 -20 -20 -20 -20 -20 -20 -20 -20 -20
-19 19 27 20 19 -16 -15 17 21 15 18 16 28 18 -20 -20 -20 -20 -20 -20 -5 0 24 25 24 -0 -19 -20 -5 -20 -20 -20 -20 -20 -20 -20 -20 -20 -20 -20 -20 -20 -20 -20 -20
14 16 14 23 25 21 22 28 35 36 16 17 -20 -20 -20 -20 -20 -20 -20 -20 2 25 23 22 29 18 -15 -20 -20 -20 -20 -20 -20 -20 -20 -20 -20 -20 -20 -20 -20 -20 -20 -20 -20
17 13 15 19 25 23 7 27 11 21 17 -20 -20 -19 -20 -20 -20 8 18 5 12 2 6 0 8 -0 -2 -20 -20 -20 -20 -20 -20 -20 -20 -20 -20 -20 -20 -20 -20 -20 -20 -20 -20
21 18 11 9 19 25 29 35 29 -3 -17 -20 -6 -20 -15 -20 -20 -14 23 25 -13 8 14 24 15 20 -20 -20 -20 -20 -20 -20 -20 -20 -20 -20 -20 -20 -20 -20 -20 -20 -20 -20 -20
22 22 23 30 25 25 34 25 15 21 16 -7 2 7 18 20 20 1 20 31 6 9 -3 10 1 -20 -20 -20 -20 -20 -20 -20 -20 -20 -20 -20 -20 -20 -20 -20 -20 -20 -20 -20 -20
25 21 31 33 28 31 29 28 30 35 17 8 15 18 29 11 -20 8 26 29 -4 -18 -20 -20 -20 -5 -10 -20 -20 -20 -20 -20 -20 -20 -20 -20 -20 -20 -20 -20 -20 -20 -20 -20 -20
24 28 33 39 37 37 35 34 32 26 11 38 32 33 35 29 -20 24 37 21 20 -20 -20 -3 -10 -15 -20 -20 -20 -20 -20 -20 -20 -20 -20 -20 -20 -20 -20 -20 -20 -20 -20 -20 -20
-13 26 32 30 36 35 34 31 36 20 10 23 31 29 30 20 8 25 34 27 16 4 14 -17 -20 -13 -20 -20 -20 -20 -20 -20 -20 -20 -20 -20 -20 -20 -20 -20 -20 -20 -20 -20 -20
-20 4 3 -13 36 35 30 29 25 14 9 11 17 27 25 -19 24 30 21 24 3 -17 -20 -5 -20 5 -20 -20 -20 -20 -20 -20 -20 -20 -20 -20 -20 -20 -20 -20 -20 -20 -20 -20 -20
-20 -20 -20 -20 33 32 31 28 15 12 -14 -10 5 19 38 25 27 26 25 9 12 -20 -20 15 -4 -20 -20 -20 -20 -20 -20 -20 -20 -20 -20 -20 -20 -20 -20 -20 -20 -20 -20 -20 -20
-20 -20 -20 -20 13 33 27 15 17 3 -8 -3 5 7 13 3 4 17 33 2 -18 3 16 -15 -20 -20 -20 -20 -20 -20 -20 -20 -20 -20 -20 -20 -20 -20 -20 -20 -20 -20 -20 -20 -20
-20 -20 -20 -20 -8 25 34 20 25 11 7 13 -2 5 -20 -20 -20 -20 -4 15 -19 10 -20 -20 -20 -20 -20 -20 -20 -20 -20 -20 -20 -20 -20 -20 -20 -20 -20 -20 -20 -20 -20 -20 -20
-20 -20 -20 -20 -20 20 35 32 28 28 27 4 -20 -20 -20 -19 -10 -20 -20 -20 -4 -20 -20 -20 -20 -20 -20 -20 -20 -20 -20 -20 -20 -20 -20 -20 -20 -20 -20 -20 -20 -20 -20 -20 -20
-20 -20 -20 -11 -10 -6 -12 30 36 38 22 13 16 7 -4 7 -6 -19 -20 -15 -20 -20 -20 -20 -20 -20 -20 -20 -20 -20 -20 -20 -20 -20 -20 -20 -20 -20 -20 -20 -20 -20 -20 -20 -20
-20 -20 -20 -20 -20 1 17 -20 28 35 10 25 30 29 26 9 2 -0 -9 -4 -18 -20 -20 -20 -20 -20 -20 -17 -19 -20 -20 -20 -20 -20 -20 -20 -20 -20 -20 -20 -20 -20 -20 -20 -20
-20 -20 -20 -20 -20 -19 -5 -5 15 12 33 24 8 4 -9 -10 -7 13 7 -19 -20 -20 -20 -20 -20 -20 -19 -14 -20 -20 -20 -20 -20 -20 -20 -20 -20 -20 -20 -20 -20 -20 -20 -20 -20
-20 -20 -20 -20 -20 -20 -20 -1 -18 4 -17 21 -2 -20 -20 -11 -10 -20 -20 -20 -20 -20 -7 -20 -20 -20 -20 -20 -20 -20 -20 -20 -20 -20 -20 -20 -20 -20 -20 -20 -20 -20 -20 -20 -20
-20 -20 -20 -20 -20 -20 -20 -20 -20 -19 1 -16 -9 9 17 5 4 8 -13 -20 -20 -19 -1 -1 -11 -17 -8 2 -6 -18 -20 -20 -20 -20 -20 -20 -20 -20 -20 -20 -20 -20 -20 -20 -20

GFSSW_prec_radar_009.txt.gz
Reflectivity
-20 -20 -20 -20 -20 -20 -20 -20 -20 -20 2 -20 -20 -20 -3 -20 -20 -20 -20 -20 -20 -20 -20 -20 -20 -20 -20 -20 -20 -20 -20 -20 -20 -20 -20 -20 -20 -20 -20 -20 -20 -20 -20 -20 -20
-20 -20 -20 -20 -20 -20 -20 -20 -18 5 -17 -20 -10 12 -19 -20 -5 1 -20 -20 -20 -20 -20 -20 -20 -20 -20 -20 -20 -20 -20 -20 -20 -20 -20 -20 -20 -20 -20 -20 -20 -20 -20 -20 -20
-20 -20 -20 -6 -20 -18 -20 -20 -14 -10 8 -20 -20 3 10 -20 -8 -20 -20 -20 -20 -20 -18 -20 -20 -20 -20 -20 -20 -20 -20 -20 -20 -20 -20 -20 -20 -20 -20 -20 -20 -20 -20 -20 -20
-7 -20 -20 -20 -20 -20 -10 3 -20 -1 20 -17 -18 20 18 5 -20 -20 -20 -20 -20 -20 -16 -20 -20 -20 -20 -20 -20 -20 -20 -20 -20 -20 -20 -20 -20 -20 -20 -20 -20 -20 -20 -20 -20
-20 -20 -20 -20 -20 -20 -20 3 22 -20 -20 26 22 -9 20 5 -11 -20 -20 -20 -20 -20 2 -10 -20 -20 -20 -20 -20 -20 -20 -20 -20 -20 -20 -20 -20 -20 -20 -20 -20 -20 -20 -20 -20
-20 -20 -20 -20 -20 -20 -20 -20 -20 3 15 -3 27 24 11 -16 -20 -20 -20 -20 -20 -20 -14 -9 -20 -20 -20 -20 -20 -20 -20 -20 -20 -20 -20 -20 -20 -20 -20 -20 -20 -20 -20 -20 -20
7 -20 -20 -20 -20 -9 -7 -20 -20 -1 30 22 -20 22 19 -20 -20 -20 -20 -20 -20 -20 18 -20 -20 -20 -20 -20 -20 -20 -20 -20 -20 -20 -20 -20 -20 -20 -20 -20 -20 -20 -20 -20 -20
11 -17 -19 -20 -18 -20 23 -10 -18 17 -2 25 5 29 4 -20 -20 -20 -20 -20 -20 -20 9 -4 -20 -20 -20 -20 -20 -20 -20 -20 -20 -20 -20 -20 -20 -20 -20 -20 -20 -20 -20 -20 -20
-0 -13 14 5 -20 -11 -20 22 20 12 -1 -19 12 26 4 -20 -20 -20 -20 -20 -20 -20 -20 20 -11 7 -14 -20 -20 -20 -20 -20 -20 -20 -20 -20 -20 -20 -20 -20 -20 -20 -20 -20 -20
4 1 3 19 12 6 -20 -20 -16 9 12 30 28 21 -20 -20 -20 -20 -20 -20 -12 -20 -6 25 12 -18 -20 -20 -6 -20 -20 -20 -20 -20 -20 -20 -20 -20 -20 -20 -20 -20 -20 -20 -20
14 5 7 -2 19 25 15 15 5 18 23 -20 12 3 -20 -20 -20 -20 -20 -20 -5 2 26 28 25 11 -19 0 -20 -20 -20 -20 -20 -20 -20 -20 -20 -20 -20 -20 -20 -20 -20 -20 -20
13 15 18 15 17 32 24 -16 25 15 16 -20 -17 -18 17 -20 -8 -20 -20 -19 3 -2 26 14 10 -19 -20 -20 -20 -20 -20 -20 -20 -20 -20 -20 -20 -20 -20 -20 -20 -20 -20 -20 -20
15 26 28 27 25 21 12 21 33 34 5 6 -20 -20 10 -19 -20 -14 -20 -13 -20 -20 12 6 28 2 -19 -20 -4 -18 -20 -20 -20 -20 -20 -20 -20 -20 -20 -20 -20 -20 -20 -20 -20
22 31 30 29 33 25 28 33 33 23 28 29 14 -15 8 -20 -13 22 -2 -12 -4 -20 -15 16 -16 -18 25 16 -20 -19 -20 -20 -20 -20 -20 -20 -20 -20 -20 -20 -20 -20 -20 -20 -20
19 29 36 39 36 29 22 29 20 24 4 -20 2 -19 -17 10 9 21 -17 27 -7 -20 23 25 23 5 25 -20 -20 -20 -20 -20 -20 -20 -20 -20 -20 -20 -20 -20 -20 -20 -20 -20 -20
11 18 34 34 34 30 32 28 21 34 25 9 -20 -20 -19 -6 21 30 32 20 -15 -20 -11 -20 -20 -10 -20 -13 -18 -20 -20 -20 -20 -20 -20 -20 -20 -20 -20 -20 -20 -20 -20 -20 -20
-7 10 19 31 37 36 35 33 33 25 16 27 20 8 5 2 17 18 30 21 25 10 13 9 -8 2 -1 24 -16 -20 -20 -20 -20 -20 -20 -20 -20 -20 -20 -20 -20 -20 -20 -20 -20
-20 -9 5 28 37 35 35 30 23 3 31 24 18 13 -13 31 7 1 18 39 8 -20 -14 10 29 -3 25 0 -20 -20 -20 -20 -20 -20 -20 -20 -20 -20 -20 -20 -20 -20 -20 -20 -20
-9 -20 -11 9 36 35 32 35 23 9 14 21 33 22 22 19 16 20 37 18 10 -20 2 -2 -20 -20 -20 -20 -20 -20 -20 -20 -20 -20 -20 -20 -20 -20 -20 -20 -20 -20 -20 -20 -20
-20 -20 -9 -20 27 31 32 34 14 -1 5 0 15 34 13 12 24 29 38 23 -17 -20 -20 -20 -20 -20 -20 -20 -20 -20 -20 -20 -20 -20 -20 -20 -20 -20 -20 -20 -20 -20 -20 -20 -20
-20 -20 -3 9 15 33 34 34 25 -9 3 15 -7 14 -10 6 21 30 23 25 -20 7 -16 -20 -20 -20 -20 -20 -20 -20 -20 -20 -20 -20 -20 -20 -20 -20 -20 -20 -20 -20 -20 -20 -20
-20 -20 0 1 22 29 33 27 -19 -2 24 1 3 -16 -20 -20 28 32 -18 -20 -19 4 -20 -20 -20 -20 -20 -20 -20 -20 -20 -20 -20 -20 -20 -20 -20 -20 -20 -20 -20 -20 -20 -20 -20
-20 -20 -15 -4 5 27 30 11 19 26 17 9 -20 -17 -20 -20 29 -13 -6 -20 -20 -20 -20 -20 -20 -10 -20 -20 -20 -20 -20 -20 -20 -20 -20 -20 -20 -20 -20 -20 -20 -20 -20 -20 -20
-20 -20 2 -13 -20 17 -5 32 25 8 -6 11 -14 -20 -20 -9 -15 -20 -20 -20 -20 -20 -2 -15 -20 -20 -20 -20 -20 -20 -20 -20 -20 -20 -20 -20 -20 -20 -20 -20 -20 -20 -20 -20 -20
-20 -20 -20 -20 -20 -8 -0 25 24 7 -7 19 12 -17 -20 -13 -20 -20 -20 -20 -20 -19 -19 -19 -20 -20 -20 -20 -20 -20 -20 -20 -20 -20 -20 -20 -20 -20 -20 -20 -20 -20 -20 -20 -20
-20 -20 -20 -20 -20 -20 -20 8 2 -18 -20 2 -12 -2 -19 -6 -20 -20 -20 -20 -20 -7 -20 -20 -20 -20 -20 -20 -20 -20 -20 -20 -20 -20 -20 -20 -20 -20 -20 -20 -20 -20 -20 -20 -20
-20 -20 -20 -20 -20 -20 -20 -11 5 -1 19 6 19 22 20 3 3 1 2 -20 -2 -20 -20 -20 -20 -20 -20 -20 -20 -20 -20 -20 -20 -20 -20 -20 -20 -20 -20 -20 -20 -20 -20 -20 -20

GFSSW_prec_radar_012.txt.gz
Reflectivity
-20 -20 -20 -20 -20 -20 -20 -20 -20 7 -2 14 -20 -20 18 -8 3 -20 -20 -20 -20 -20 -20 -20 -20 -20 -20 -20 -20 -20 -20 -20 -20 -20 -20 -20 -20 -20 -20 -20 -20 -20 -20 -20 -20
-20 -20 -20 -20 -18 -11 -20 -20 -20 -20 -20 -15 -5 -20 -20 8 -20 -3 -20 -20 -20 -20 -20 -20 -20 -20 -20 -20 -20 -20 -20 -20 -20 -20 -20 -20 -20 -20 -20 -20 -20 -20 -20 -20 -20
-20 -14 -20 -20 -20 -20 -17 -20 -3 -20 -20 -6 -20 -20 19 -20 -20 -20 -20 -20 -20 -20 -20 -20 -20 -20 -20 -20 -20 -20 -20 -20 -20 -20 -20 -20 -20 -20 -20 -20 -20 -20 -20 -20 -20
-5 6 4 -20 -20 -20 -20 -0 -18 -9 -20 -20 -20 -17 22 7 1 -20 -20 -20 -20 -20 10 9 -20 -20 -20 -20 -20 -20 -20 -20 -20 -20 -20 -20 -20 -20 -20 -20 -20 -20 -20 -20 -20
-20 -4 -17 -9 -20 -20 -20 -20 -20 -12 2 -20 7 23 22 5 -20 -20 -20 -20 -20 -20 -20 -5 -20 -20 -20 -20 -20 -20 -20 -20 -20 -20 -20 -20 -20 -20 -20 -20 -20 -20 -20 -20 -20
-20 -20 -15 -20 -20 -20 -20 -20 -20 -20 -20 -20 3 23 3 -8 -20 -20 -20 -20 -20 -20 -20 12 -20 -20 -20 -20 -20 -20 -20 -20 -20 -20 -20 -20 -20 -20 -20 -20 -20 -20 -20 -20 -20
-3 8 -18 -5 -20 -20 -20 -20 -20 -20 -20 -20 23 -1 -9 -20 -20 -20 -20 -20 -20 -20 -20 7 -20 -20 -20 -20 -20 -20 -20 -20 -20 -20 -20 -20 -20 -20 -20 -20 -20 -20 -20 -20 -20
6 20 -17 -8 -20 -20 -20 -20 -20 -20 -20 -11 28 -17 -18 -20 -20 -20 -20 -20 -20 -20 -20 15 1 -20 -20 -19 -20 -20 -20 -20 -20 -20 -20 -20 -20 -20 -20 -20 -20 -20 -20 -20 -20
-10 -3 -12 -17 14 -20 -20 -15 -20 -20 -20 3 24 2 -2 -20 -20 -20 -20 -20 -20 -20 -8 26 22 -20 -19 4 -19 -20 -20 -20 -20 -20 -20 -20 -20 -20 -20 -20 -20 -20 -20 -20 -20
5 -10 -12 10 7 19 -16 -10 -12 -9 14 8 23 27 -18 -20 -20 -20 -20 -20 7 -20 9 13 25 10 -10 -1 -13 -20 -20 -20 -20 -20 -20 -20 -20 -20 -20 -20 -20 -20 -20 -20 -20
-13 14 12 23 6 22 22 11 -20 -3 9 -20 -20 -10 -18 -20 -20 -20 -20 -20 -4 -20 7 27 25 21 -20 -20 -20 -20 -20 -20 -20 -20 -20 -20 -20 -20 -20 -20 -20 -20 -20 -20 -20
11 23 29 30 21 25 30 -11 2 -7 1 -20 -18 -20 4 -18 -0 -9 -20 -7 1 -20 7 30 -2 -17 -20 -20 -20 -20 -20 -20 -20 -20 -20 -20 -20 -20 -20 -20 -20 -20 -20 -20 -20
21 14 30 31 29 24 22 6 19 16 14 -20 -20 -20 -20 15 16 -12 -17 -8 0 -20 3 30 -4 4 -20 -20 -9 -20 -20 -20 -20 -20 -20 -20 -20 -20 -20 -20 -20 -20 -20 -20 -20
20 15 29 32 29 31 22 25 30 29 33 -16 -9 -19 -20 20 19 3 -20 -0 7 -20 -12 23 33 22 -20 -20 -20 -19 -20 -20 -20 -20 -20 -20 -20 -20 -20 -20 -20 -20 -20 -20 -20
-20 11 28 34 28 27 22 33 30 30 9 -10 -11 -20 -20 11 -2 -20 -4 13 4 -20 15 19 15 34 6 -20 -20 -20 -20 -19 -20 -20 -20 -20 -20 -20 -20 -20 -20 -20 -20 -20 -20
-20 -20 24 29 33 28 30 31 27 28 10 3 -16 -5 -6 -20 -12 -20 -18 19 9 -15 -6 20 26 22 17 -14 -13 -9 6 4 -19 -20 -20 -20 -20 -20 -20 -20 -20 -20 -20 -20 -20
-20 -20 10 31 32 34 29 26 28 12 36 10 -6 11 -20 -11 4 -20 -0 11 38 -9 15 -12 -13 -20 -19 4 18 22 23 -10 -20 -20 -20 -20 -20 -20 -20 -20 -20 -20 -20 -20 -20
-20 3 7 -15 33 35 33 28 8 21 32 28 -18 -20 -20 -20 -6 20 25 13 29 -20 -20 13 2 21 9 -19 17 -2 1 -20 -20 -20 -20 -20 -20 -20 -20 -20 -20 -20 -20 -20 -20
-17 -20 12 1 30 33 33 29 17 17 31 28 8 -18 -20 -20 21 4 18 16 29 -20 -20 -20 -4 -15 -13 -20 26 15 -20 -20 -20 -20 -20 -20 -20 -20 -20 -20 -20 -20 -20 -20 -20
-20 -20 -20 21 29 30 35 33 33 28 -5 19 4 -6 -10 -1 35 16 34 14 21 -8 -20 -20 -20 -20 -20 -20 4 -14 -20 -20 -20 -20 -20 -20 -20 -20 -20 -20 -20 -20 -20 -20 -20
-12 -20 -6 30 29 32 33 29 33 2 -20 8 -12 -20 -19 22 15 12 -5 2 10 -12 -16 -20 -20 -16 17 -20 -5 -18 -20 -20 -20 -20 -20 -20 -20 -20 -20 -20 -20 -20 -20 -20 -20
-20 -20 17 31 30 26 34 37 31 8 16 25 -6 -6 -20 9 12 13 -5 -4 -20 -20 -20 -20 -20 -20 -20 -20 -20 -19 -20 -20 -20 -20 -20 -20 -20 -20 -20 -20 -20 -20 -20 -20 -20
-20 12 20 22 31 28 31 26 12 9 22 18 15 8 -20 6 -13 -13 16 7 -5 -20 -20 -20 -20 -20 -13 -14 -20 -20 -20 -20 -20 -20 -20 -20 -20 -20 -20 -20 -20 -20 -20 -20 -20
-20 -18 10 17 7 22 29 28 22 27 14 -6 -20 8 6 -20 -9 18 29 -0 -20 -20 -20 -8 -20 -20 -20 -20 -20 -20 -20 -20 -20 -20 -20 -20 -20 -20 -20 -20 -20 -20 -20 -20 -20
-20 -20 -20 -20 -16 -2 21 28 30 27 7 -20 14 -20 -14 -20 -16 -0 -19 -20 -8 -1 9 -20 -20 -20 -20 -20 -20 -20 -20 -20 -20 -20 -20 -20 -20 -20 -20 -20 -20 -20 -20 -20 -20
-20 -20 -20 -20 -20 2 14 29 30 15 16 11 -20 -20 -20 -20 -20 -20 -20 -20 -20 -18 -20 -20 -20 -20 -20 -20 -20 -20 -20 -20 -20 -20 -20 -20 -20 -20 -20 -20 -20 -20 -20 -20 -20
-20 -20 -20 2 -20 -20 -20 1 7 3 30 -20 -20 -18 17 18 -20 8 -18 -11 -12 -18 -6 3 -20 -20 -20 -20 -20 -20 -20 -20 -20 -20 -20 -20 -20 -20 -20 -20 -20 -20 -20 -20 -20

GFSSW_prec_radar_015.txt.gz
Reflectivity
-20 -20 -20 -20 -20 -20 -20 -20 -20 -20 -6 5 15 18 17 -4 8 -20 -20 -20 -20 -20 -20 -20 -20 -20 -20 -20 -20 -20 -20 -20 -20 -20 -20 -20 -20 -20 -20 -20 -20 -20 -20 -20 -20
-20 -20 -20 -20 -20 -11 -20 -20 -20 -20 -20 -20 -20 1 -2 16 -13 -12 -20 -20 -20 -20 -20 -16 -20 -20 -20 -20 -20 -20 -20 -20 -20 -20 -20 -20 -20 -20 -20 -20 -20 -20 -20 -20 -20
-20 -20 -20 -20 -20 -13 -5 6 -4 -20 -20 -20 -20 -18 -20 -20 9 -19 -20 -20 -20 -20 -20 -20 -20 -20 -20 -20 -20 -20 -20 -20 -20 -20 -20 -20 -20 -20 -20 -20 -20 -20 -20 -20 -20
-20 -20 -20 -20 -20 -20 -20 -20 8 -19 -20 -20 -20 -20 -20 -20 -20 -20 -20 -20 -20 -20 -20 -12 6 16 -20 -20 -20 -20 -20 -20 -20 -20 -20 -20 -20 -20 -20 -20 -20 -20 -20 -20 -20
-20 -20 -20 -20 -20 -20 -20 -20 -20 -20 4 -20 -20 11 -18 3 -6 -20 -20 -20 -20 -11 -20 4 -1 -5 4 -20 -20 -20 -20 -20 -20 -20 -20 -20 -20 -20 -20 -20 -20 -20 -20 -20 -20
-16 -20 -20 -20 -20 -20 -20 -20 -20 -16 -18 -20 -8 -1 -20 -10 -20 -20 -20 -20 -20 -3 -20 -12 18 -8 -9 -20 -20 -20 -20 -20 -20 -20 -20 -20 -20 -20 -20 -20 -20 -20 -20 -20 -20
-20 8 -10 -20 -20 -20 -20 -20 -11 -20 -20 18 -20 -2 6 -20 -20 -20 -20 -20 -20 -19 -20 -20 -20 -20 -6 -20 -20 -20 -20 -20 -20 -20 -20 -20 -20 -20 -20 -20 -20 -20 -20 -20 -20
-20 3 2 3 20 1 -9 -20 -16 -18 -20 -20 21 -6 1 -20 -20 -20 -20 -20 -20 -20 -20 -20 23 4 -17 -20 -20 -3 -17 -20 -20 -20 -20 -20 -20 -20 -20 -20 -20 -20 -20 -20 -20
-20 -20 -13 7 16 19 9 -8 -15 10 -15 5 -20 -1 -19 -20 -20 -20 -16 -20 -19 -20 -20 -20 23 17 12 2 -8 -18 -20 -20 -20 -20 -20 -20 -20 -20 -20 -20 -20 -20 -20 -20 -20
-17 12 -20 7 6 12 22 22 -20 4 7 2 14 19 -20 -20 -20 -20 -20 -20 7 20 4 -6 25 4 14 9 -2 -18 -20 -20 -20 -20 -20 -20 -20 -20 -20 -20 -20 -20 -20 -20 -20
-20 -20 -18 4 14 18 29 20 -19 -20 2 -20 -20 1 10 -20 -20 -20 -20 -20 -6 27 -20 -16 23 24 5 11 -20 -20 -20 -20 -20 -20 -20 -20 -20 -20 -20 -20 -20 -20 -20 -20 -20
-20 -16 13 -2 15 17 30 11 -1 -16 -15 -18 -17 -11 -0 -20 13 -20 -20 -20 8 27 -14 15 25 20 -20 -20 -19 -20 -20 -20 -20 -20 -20 -20 -20 -20 -20 -20 -20 -20 -20 -20 -20
-20 -18 -20 2 22 22 15 21 21 27 29 -20 -6 -17 -18 -20 -20 -20 -20 -20 16 17 -15 17 22 4 -11 10 13 -20 -20 -20 -20 -20 -20 -20 -20 -20 -20 -20 -20 -20 -20 -20 -20
-20 -20 -20 13 25 20 18 22 23 32 34 -15 8 -20 -16 12 -20 -20 -20 -18 39 17 -20 24 27 -14 10 -20 -20 -20 -20 -20 -20 -20 -20 -20 -20 -20 -20 -20 -20 -20 -20 -20 -20
-20 -20 12 5 15 27 23 26 35 33 19 -19 8 -20 -20 -20 -1 -9 -20 13 13 17 22 25 38 5 -20 -20 -20 -18 -20 -20 -20 -20 -20 -20 -20 -20 -20 -20 -20 -20 -20 -20 -20
-20 -20 -2 -12 17 30 27 33 33 28 12 22 15 13 7 -1 22 27 -20 16 26 25 8 32 23 17 -16 -20 -20 -20 5 -20 -20 -20 -20 -20 -20 -20 -20 -20 -20 -20 -20 -20 -20
-15 -10 6 -20 6 29 29 32 30 16 16 20 4 12 -20 -20 8 14 -20 7 41 24 30 38 16 34 -6 -20 -18 -17 -5 -4 -18 -16 -20 -20 -20 -20 -20 -20 -20 -20 -20 -20 -20
-0 10 -19 -20 -19 28 31 32 19 -11 19 6 -20 -4 -17 -20 20 12 -20 1 34 -12 -17 27 26 30 38 1 25 28 -20 5 -20 -20 -20 -20 -20 -20 -20 -20 -20 -20 -20 -20 -20
0 -10 12 -19 15 30 30 21 9 12 30 19 1 4 -13 9 13 16 2 21 20 -20 -7 8 -10 -5 -20 -4 22 22 -3 -5 -20 -20 -20 -20 -20 -20 -20 -20 -20 -20 -20 -20 -20
-20 2 -3 -18 22 26 35 29 21 31 35 22 -15 -20 -20 -8 14 12 -11 10 16 -20 -20 -20 -20 -20 -13 -9 15 -20 4 6 -20 -20 -20 -20 -20 -20 -20 -20 -20 -20 -20 -20 -20
-19 -9 -20 22 31 26 33 30 26 26 34 14 -8 -13 -20 -20 6 -11 -20 20 10 15 -20 -20 -20 -20 -10 6 -13 -19 -12 25 -18 -20 -20 -20 -20 -20 -20 -20 -20 -20 -20 -20 -20
-20 5 8 24 27 21 23 28 30 21 18 26 -11 -20 -20 -20 2 13 -18 3 -20 8 -20 -20 -20 -20 -20 -20 -20 -20 -20 -20 -20 -20 -20 -20 -20 -20 -20 -20 -20 -20 -20 -20 -20
-20 12 21 22 25 16 24 25 23 22 4 26 21 -10 -20 -20 17 4 -20 -20 -19 -20 -20 -20 -20 -20 -20 -20 -20 -20 -20 -20 -20 -20 -20 -20 -20 -20 -20 -20 -20 -20 -20 -20 -20
-20 -5 19 17 13 30 36 30 23 25 29 25 4 -20 -20 -6 14 -20 -20 -20 -20 -20 -16 -17 -20 -20 -20 -20 -20 -20 -20 -20 -20 -20 -20 -20 -20 -20 -20 -20 -20 -20 -20 -20 -20
-20 -20 -15 4 6 26 29 33 32 34 25 31 -0 -20 -20 4 2 -20 -20 -20 -20 -20 -20 -20 -20 -20 -20 -20 -20 -20 -20 -20 -20 -20 -20 -20 -20 -20 -20 -20 -20 -20 -20 -20 -20
-20 -20 -20 -20 -20 23 28 27 30 32 14 14 17 -20 -8 -20 -20 -20 -20 -20 -20 -20 -18 -20 -20 -20 -20 -20 -20 -20 -20 -20 -20 -20 -20 -20 -20 -20 -20 -20 -20 -20 -20 -20 -20
-20 -20 -20 -8 3 6 8 23 31 32 7 -20 -20 -20 -10 -20 -20 -20 -20 0 -1 -20 -20 -19 -20 -20 -20 -20 -20 -20 -20 -20 -20 -20 -20 -20 -20 -20 -20 -20 -20 -20 -20 -20 -20

GFSSW_prec_radar_018.txt.gz
Reflectivity
-20 -20 -20 -20 -20 -20 -20 -20 -20 -18 3 -7 10 -20 3 19 -11 4 -20 -20 -20 -20 -20 -20 -20 -20 -20 -20 -20 -20 -20 -20 -20 -20 -20 -20 -20 -20 -20 -20 -20 -20 -20 -20 -20
-20 -20 -20 -20 -20 -20 -20 -20 -20 -20 -20 -18 -20 -20 -20 -5 10 13 -20 -20 -20 -20 -20 -20 -20 7 -20 -20 -20 -20 -20 -20 -20 -20 -20 -20 -20 -20 -20 -20 -20 -20 -20 -20 -20
-20 -20 -20 -20 -20 -20 -20 -20 -20 -20 -20 -20 -20 -20 -20 1 7 -20 -20 -20 -20 -20 -20 -20 13 -20 13 -20 -20 -20 -20 -20 -20 -20 -20 -20 -20 -20 -20 -20 -20 -20 -20 -20 -20
-20 -20 -20 -20 -20 -20 -20 -20 -20 8 -20 -20 -20 -5 8 5 -20 -20 -20 -20 -20 -20 -19 -20 8 -6 11 1 -20 -20 -20 -20 -20 -20 -20 -20 -20 -20 -20 -20 -20 -20 -20 -20 -20
-20 -20 -20 -20 -20 -20 -20 -20 -20 -20 -20 -20 -20 7 7 9 -11 -20 -20 -20 -20 -20 -18 -20 7 13 12 15 -20 -20 -20 -20 -20 -20 -20 -20 -20 -20 -20 -20 -20 -20 -20 -20 -20
-1 -20 -20 -20 -20 -20 -20 -20 -20 -20 4 -9 7 -4 -12 3 -20 -20 -20 -20 -20 -20 -11 -20 -1 -20 13 14 -0 -20 -20 -20 -20 -20 -20 -20 -20 -20 -20 -20 -20 -20 -20 -20 -20
3 -20 3 -20 -20 -20 -20 -20 -20 -20 -20 -20 -20 -5 13 -20 -20 -20 -20 -20 -20 -20 -20 -20 -20 27 -18 15 -7 -20 -20 -20 -20 -20 -20 -20 -20 -20 -20 -20 -20 -20 -20 -20 -20
-18 9 -20 -20 -20 -20 -20 -20 -20 2 -20 -20 3 9 5 -20 -20 -20 -20 -20 -20 -20 -20 -20 -20 25 18 -10 -4 4 11 10 -20 -20 -20 -20 -20 -20 -20 -20 -20 -20 -20 -20 -20
-15 9 -20 -20 -20 -20 -20 -16 7 17 -5 -20 -9 7 -0 -20 -20 -20 -20 -20 -20 -20 -20 -20 -11 23 17 14 13 9 8 -4 -20 -20 -20 -20 -20 -20 -20 -20 -20 -20 -20 -20 -20
-20 6 5 -20 -20 -20 -13 -16 21 17 16 12 0 -1 -20 -20 -20 -20 -20 -20 -20 2 24 14 6 21 21 13 9 8 5 -20 -20 -20 -20 -20 -20 -20 -20 -20 -20 -20 -20 -20 -20
-20 -9 -10 -20 3 8 13 13 18 13 10 -20 -20 -20 -20 -20 -20 -20 -20 -20 -20 15 3 15 15 18 23 9 -20 -20 -20 -20 -20 -20 -20 -20 -20 -20 -20 -20 -20 -20 -20 -20 -20
-20 1 8 7 -2 4 16 17 4 3 -2 -3 -18 -20 -20 -20 -8 -20 -20 -20 -20 -2 30 15 10 7 34 20 -20 -20 -20 -18 -20 -20 -20 -20 -20 -20 -20 -20 -20 -20 -20 -20 -20
-20 -20 -20 -20 -9 15 16 10 22 23 30 17 19 22 13 -20 -20 17 -20 -20 -20 6 40 18 19 4 17 8 6 9 -20 -20 -20 -20 -20 -20 -20 -20 -20 -20 -20 -20 -20 -20 -20
-20 -20 -13 6 14 8 19 27 31 26 37 9 -4 19 18 27 4 -20 -0 -20 8 16 37 3 18 27 28 -3 -20 9 -20 -20 -20 9 8 -20 -20 -20 -20 -20 -20 -20 -20 -20 -20
-20 -20 -19 -20 8 -2 21 27 31 29 23 -4 5 23 -2 8 22 -20 9 -20 8 22 36 29 20 27 25 -20 -20 -2 -20 -20 -1 4 -20 -20 -20 -20 -20 -20 -20 -20 -20 -20 -20
-20 -15 -9 8 10 -2 20 30 29 27 11 12 25 24 6 -14 -20 25 -20 -8 1 25 22 9 9 15 9 -13 -15 -16 -20 -18 -19 -20 -20 -20 -20 -20 -20 -20 -20 -20 -20 -20 -20
3 -20 -14 -20 8 -17 28 28 28 15 15 22 28 11 -17 3 6 29 5 21 39 24 28 10 42 20 -1 10 11 -12 13 11 -1 5 -20 -20 -20 -20 -20 -20 -20 -20 -20 -20 -20
11 18 -19 -20 -15 20 31 34 16 12 16 29 15 -12 8 9 5 22 11 14 32 9 20 35 28 23 12 3 7 8 -17 -10 0 -20 -20 -20 -20 -20 -20 -20 -20 -20 -20 -20 -20
19 13 9 -20 20 16 32 22 10 16 21 27 16 4 10 6 -18 14 6 3 6 8 36 8 29 35 7 -20 6 23 -8 -20 -20 -20 -20 -20 -20 -20 -20 -20 -20 -20 -20 -20 -20
11 14 -20 -20 17 27 34 25 18 26 28 31 9 -20 1 1 4 12 -4 -20 -20 -5 27 16 22 37 28 24 13 -20 -20 -17 -20 -20 -20 -20 -20 -20 -20 -20 -20 -20 -20 -20 -20
10 -20 -20 3 22 31 31 23 23 23 23 26 -5 -20 -20 -13 -16 9 -19 -4 -20 -7 16 12 17 31 35 29 1 14 25 -20 -20 -20 -20 -20 -20 -20 -20 -20 -20 -20 -20 -20 -20
-9 -1 10 14 22 20 26 25 18 30 20 25 3 -20 -20 -20 -20 8 -19 -13 -20 -20 -15 -20 -20 -17 20 14 6 5 -4 -17 -19 -20 -20 -20 -20 -20 -20 -20 -20 -20 -20 -20 -20
-20 -6 23 21 20 11 16 25 26 11 23 17 -5 -20 -20 -20 -20 -9 -20 -20 -20 -20 -20 -20 -20 -20 -20 -19 3 -20 -2 -13 -20 -20 -20 -20 -20 -20 -20 -20 -20 -20 -20 -20 -20
-17 11 18 25 7 20 27 28 30 7 8 29 23 14 -20 -20 -20 -20 -18 -20 -20 -20 -20 -20 -20 -20 -20 -20 -20 -20 -20 -20 -20 -20 -20 -20 -20 -20 -20 -20 -20 -20 -20 -20 -20
-20 -18 -18 10 4 3 27 32 34 27 20 33 15 -20 -20 -20 -17 -4 7 -20 -20 -20 -20 -20 -20 -20 -20 -20 -20 -20 -20 -20 -20 -20 -20 -20 -20 -20 -20 -20 -20 -20 -20 -20 -20
-20 -20 -20 -20 -5 9 33 23 27 30 16 25 19 -20 -20 -20 -20 -20 -20 -20 -20 -20 -20 -20 -8 -20 -20 -20 -20 -20 -20 -20 -20 -20 -20 -20 -20 -20 -20 -20 -20 -20 -20 -20 -20
15 -20 -20 -20 2 6 20 34 29 19 18 15 5 -20 -10 -20 -20 -19 -18 3 8 -3 -16 -20 -20 -4 -20 -20 -20 -20 -20 -20 -20 -20 -20 -20 -20 -20 -20 -20 -20 -20 -20 -20 -20

GFSSW_prec_radar_021.txt.gz
Reflectivity
-20 -20 -20 -20 -20 -20 -20 -20 -20 -19 0 -18 -20 -20 9 17 11 -14 -20 -20 -20 -20 -20 -20 -20 -20 -20 -20 -20 -20 -20 -20 -20 -20 -20 -20 -20 -20 -20 -20 -20 -20 -20 -20 -20
-20 -20 -20 -20 -20 -20 -20 -20 -20 -20 -20 -20 -20 -20 11 -19 5 14 -20 -20 -20 -20 -20 -20 -20 -20 6 -20 -20 -20 -20 -20 -20 -20 -20 -20 -20 -20 -20 -20 -20 -20 -20 -20 -20
-11 -20 -20 -20 -20 -20 -20 -20 -20 -20 -20 -20 -20 -20 -3 -20 5 -19 -20 -20 -20 -20 -20 -20 -20 -16 10 -20 -20 -20 -20 -20 -20 -20 -20 -20 -20 -20 -20 -20 -20 -20 -20 -20 -20
-10 -20 -20 -20 -20 -20 -20 -20 -20 -20 -20 -20 -20 -20 -20 -18 -20 -20 -20 -20 -20 -20 -20 -20 -20 -20 6 6 -20 -20 -20 -20 -20 -20 -20 -20 -20 -20 -20 -20 -20 -20 -20 -20 -20
-20 2 -20 -20 -8 -15 -20 -20 -20 -20 -20 -8 -20 5 -18 8 -20 -20 -20 -20 -20 -20 -20 -20 -20 -20 -20 -20 -7 -20 -20 -20 -20 -20 -20 -20 -20 -20 -20 -20 -20 -20 -20 -20 -20
-20 -1 -20 -20 -20 -20 -20 -20 -20 -20 -20 -20 -2 -20 -0 3 -20 -20 -20 -20 -20 -20 -20 -20 -20 -20 -20 -20 -20 -20 -20 -20 -20 -20 -20 -20 -20 -20 -20 -20 -20 -20 -20 -20 -20
-20 -20 -20 -20 -20 -20 12 -20 -20 -20 -20 -20 -8 -20 -0 -20 -20 -20 -20 -20 -20 -20 2 -20 -20 -20 -20 -1 -20 -20 -2 -20 -20 -20 -20 -20 -20 -20 -20 -20 -20 -20 -20 -20 -20
-20 -20 -20 -20 -20 -20 -20 12 -20 -20 -20 -20 -20 7 14 -20 -20 -20 -20 -20 -20 -20 -20 -20 -20 -20 -14 6 -20 -20 21 6 -20 -20 -20 -20 -20 -20 -20 -20 -20 -20 -20 -20 -20
-20 -20 -19 -20 -20 -20 1 15 5 -20 -9 -20 -20 11 -4 -20 -20 -20 -20 -20 -20 -20 -20 -20 -8 11 6 17 22 17 7 5 -8 -20 -20 -20 -20 -20 -20 -20 -20 -20 -20 -20 -20
-2 -20 -20 7 -20 -20 7 14 19 12 -7 11 -3 13 -20 -20 -20 -20 -20 -20 -20 -20 -20 -18 9 15 11 20 15 -11 9 9 -15 -20 -20 -20 -20 -20 -20 -20 -20 -20 -20 -20 -20
15 -20 -20 -20 -20 -20 16 3 8 11 14 -20 -20 -20 -20 -20 -20 -20 -20 -20 -20 -10 13 4 20 16 -20 -7 -20 13 14 -20 -20 -20 -20 -20 -20 -20 -20 -20 -20 -20 -20 -20 -20
-17 -20 -20 -20 -19 3 17 15 -19 -10 3 -20 -20 -20 -17 -20 -15 -20 -20 -20 -8 1 1 21 18 -20 -20 -2 24 -18 17 -20 -20 -20 -20 -20 -20 -20 -20 -20 -20 -20 -20 -20 -20
-20 -20 -20 -20 7 6 10 -2 6 -6 25 17 -9 -15 -5 21 4 -11 -10 -8 -16 -2 11 23 -20 -20 -20 13 36 30 17 -20 -18 -18 -20 -20 -20 -20 -20 -20 -20 -20 -20 -20 -20
-12 -20 -20 2 -19 -16 19 -4 25 27 37 16 4 -3 -1 21 25 2 -13 -9 14 3 17 23 13 24 14 6 17 13 -20 -20 4 -17 -17 -20 -20 -20 -20 -20 -20 -20 -20 -20 -20
11 -20 -20 -20 12 9 -6 8 23 35 23 -3 -9 -2 5 22 3 -1 -20 24 2 19 -3 21 12 31 5 30 37 5 -20 -20 1 -20 -14 -20 -20 -20 -20 -20 -20 -20 -20 -20 -20
13 14 7 8 -2 14 -20 14 24 26 13 9 11 19 11 7 -18 4 -8 17 9 14 40 17 20 17 -20 34 33 18 -4 7 4 6 6 -20 -20 -20 -20 -20 -20 -20 -20 -20 -20
12 16 8 -19 -4 -13 -5 12 24 17 15 20 23 23 3 -7 10 8 19 17 18 8 34 15 33 21 9 37 39 26 30 30 3 10 -20 -20 -20 -20 -20 -20 -20 -20 -20 -20 -20
11 22 14 3 -4 10 22 18 19 10 9 29 28 16 8 -20 7 7 17 27 4 3 40 29 14 37 12 31 34 32 3 1 -7 -20 -20 -20 -20 -20 -20 -20 -20 -20 -20 -20 -20
17 16 21 21 10 -0 15 13 18 15 16 28 31 26 11 -18 11 5 16 4 6 18 41 13 5 19 34 38 31 17 -8 19 -20 -20 -20 -20 -20 -20 -20 -20 -20 -20 -20 -20 -20
7 19 19 29 9 9 22 24 25 23 28 22 27 -6 4 -2 5 8 -4 -20 -18 15 29 25 17 25 27 39 21 -9 -14 -6 -20 -20 -20 -20 -20 -20 -20 -20 -20 -20 -20 -20 -20
3 24 11 3 15 26 17 29 22 25 27 28 16 1 -19 -19 -12 -2 -20 -17 -14 -0 33 36 40 38 16 28 8 14 6 -20 -20 -20 -15 -20 -20 -20 -20 -20 -20 -20 -20 -20 -20
8 24 8 -20 31 17 14 31 21 18 25 30 20 -16 -20 -20 -20 7 -3 -18 -15 -7 26 28 37 42 29 11 -5 -18 -20 -20 -20 -20 -20 -20 -20 -20 -20 -20 -20 -20 -20 -20 -20
17 18 22 4 16 9 22 27 25 24 25 17 15 -18 -20 -20 -3 -20 -20 -20 4 -20 -3 26 22 40 29 -12 -14 3 -20 -20 -20 -20 -20 -20 -20 -20 -20 -20 -20 -20 -20 -20 -20
21 19 24 24 2 8 28 25 22 18 16 15 -18 -9 -20 -20 -20 -20 -19 -20 -6 -20 14 11 2 19 21 31 14 -19 -20 -17 -20 -20 -20 -20 -20 -20 -20 -20 -20 -20 -20 -20 -20
22 14 -3 18 11 -4 25 24 29 29 8 -16 25 -6 -20 -20 -20 -20 -20 -20 -20 -20 -20 -14 -14 -20 -18 -16 -16 8 5 -10 -20 -20 -20 -20 -20 -20 -20 -20 -20 -20 -20 -20 -20
24 15 -9 9 -12 -20 24 16 28 19 29 19 27 -20 -20 -20 -20 -20 -20 -7 -20 4 12 4 -9 -20 -20 -20 -20 -20 -20 -20 -20 -20 -20 -20 -20 -20 -20 -20 -20 -20 -20 -20 -20
15 6 -12 -20 4 3 16 11 34 27 17 20 13 -14 -17 -20 -19 -16 -20 -20 -20 -20 -14 9 -5 -18 9 -20 -20 -20 -20 -20 -20 -20 -20 -20 -20 -20 -20 -20 -20 -20 -20 -20 -20

GFSSW_prec_radar_024.txt.gz
Reflectivity
-20 -20 -12 -20 -20 -20 -20 -20 -20 -20 -20 7 -7 9 -16 -20 -3 -16 -20 -20 -20 -20 -20 -20 -20 -20 -20 -20 -20 -20 -20 -20 -20 -20 -20 -20 -20 -20 -20 -20 -20 -20 -20 -20 -20
-20 -20 -15 -20 -20 -20 -20 -20 -20 -20 -20 -20 -20 -20 -19 -17 -14 7 -20 -20 -20 -20 -20 -20 -20 -20 -20 -20 -15 -20 -20 -20 -20 -20 -20 -20 -20 -20 -20 -20 -20 -20 -20 -20 -20
-20 -20 -20 -8 -20 -20 -20 -20 -20 -20 -20 -20 -20 -20 -20 -10 -20 -20 -20 -20 -20 -20 -20 -20 -20 -20 -9 -20 6 -20 -20 -20 -20 -20 -20 -20 -20 -20 -20 -20 -20 -20 -20 -20 -20
-20 -20 -20 -20 -20 -2 -20 -20 -20 -20 -20 -20 -20 -20 -20 -20 -20 -20 -20 -20 -20 -5 -20 -20 -20 -20 -12 1 -20 4 -20 -20 -20 -20 -20 -20 -20 -20 -20 -20 -20 -20 -20 -20 -20
-20 -20 -20 -20 -20 -20 -20 -20 -20 -20 -20 -20 -20 -20 -20 -19 -20 -20 -20 -20 -20 -20 -20 -20 -20 -20 -20 -20 -20 0 -20 -20 -20 -20 -20 -20 -20 -20 -20 -20 -20 -20 -20 -20 -20
-20 -20 -20 -20 -20 -20 -20 -20 -20 -20 -20 -20 0 -20 -20 -20 -20 -20 -20 -20 -20 -20 -20 -20 -20 -20 -20 -20 -20 -19 -20 -20 -20 -20 -20 -20 -20 -20 -20 -20 -20 -20 -20 -20 -20
-20 -20 -20 -20 -20 -11 -20 -20 -20 -20 -20 -16 -20 0 -4 -20 -20 -20 -20 -20 -20 -20 -20 -20 -20 7 -20 -20 -20 -20 2 -5 -20 -20 -20 -20 -20 -20 -20 -20 -20 -20 -20 -20 -20
-20 -20 -20 -16 -20 -20 -20 -20 -20 -20 0 -20 -20 10 8 -20 -20 -20 -20 -20 -20 -20 -20 -20 -15 -20 5 -15 -20 4 10 4 -20 -20 -20 -20 -20 -20 -20 -20 -20 -20 -20 -20 -20
-20 -20 -20 -20 11 -20 -20 -20 -20 -13 -5 -20 -20 2 -18 -20 -20 -20 -20 -20 -20 -20 -20 -20 -20 11 -8 1 8 -10 -20 -20 -20 -20 -20 -20 -20 -20 -20 -20 -20 -20 -20 -20 -20
-20 -16 -20 -20 -5 -9 -20 -20 -20 -20 15 15 -6 6 -20 -20 -20 -20 -20 -20 -20 -20 -20 -20 -14 8 3 9 -11 -19 -13 -20 -20 -20 -20 -20 -20 -20 -20 -20 -20 -20 -20 -20 -20
-20 -20 12 -20 -13 -9 -3 -20 -20 -19 7 -11 -20 -20 -20 -20 -20 -20 -20 -20 -20 -11 8 6 8 7 -20 -20 -20 -20 -1 14 -20 -20 -20 -20 -20 -20 -20 -20 -20 -20 -20 -20 -20
-2 -20 -20 -20 -20 8 8 -13 -20 -20 -12 -10 -20 -13 -20 -8 -17 -20 -20 -20 -7 4 4 9 -5 -20 -20 -20 -16 -3 6 3 2 -20 -11 -20 -20 -20 -20 -20 -20 -20 -20 -20 -20
14 -6 -20 -20 -7 16 5 -20 -20 -14 24 20 -7 -20 -20 10 4 -20 -20 -20 -19 2 8 2 -20 -20 -8 0 6 -9 -7 -20 -11 -20 -9 -7 -20 -20 -20 -20 -20 -20 -20 -20 -20
19 15 -20 -20 -20 -20 -8 7 -20 8 31 2 -20 -9 -20 18 9 -15 24 13 16 3 1 11 -20 -20 17 -5 7 5 -20 -7 18 15 4 -1 -20 -20 -20 -20 -20 -20 -20 -20 -20
18 19 1 -20 10 15 -15 -20 13 10 8 -13 -18 -20 -20 -4 -3 -13 -20 16 21 -4 20 22 -20 -20 14 -20 -20 -17 -20 -11 12 38 23 19 -2 -20 -20 -20 -20 -20 -20 -20 -20
6 16 14 9 -20 -12 -20 -20 3 15 -6 -9 -10 3 7 12 3 10 -19 -0 20 24 19 -16 0 33 -20 -20 -20 -20 10 -3 5 26 18 -5 2 -20 -20 -20 -20 -20 -20 -20 -20
9 15 12 -16 -20 -20 -20 -17 12 -11 -19 11 4 5 -3 12 0 8 -4 -6 10 16 7 -10 11 -5 4 2 -5 1 30 41 41 12 15 -20 -20 -20 -20 -20 -20 -20 -20 -20 -20
15 14 17 1 -1 1 -17 -11 -1 -20 -20 18 15 3 9 -2 -10 -15 12 11 9 3 -16 -9 -13 -7 19 -3 1 15 31 31 12 20 -15 -20 -20 -20 -20 -20 -20 -20 -20 -20 -20
21 20 26 18 9 24 9 6 -20 -7 13 25 28 25 10 8 4 -7 -12 -20 -20 1 12 17 22 19 20 34 18 19 37 35 16 -19 -20 -20 -20 -20 -20 -20 -20 -20 -20 -20 -20
22 25 19 4 18 26 19 -2 3 -13 25 28 5 -5 -9 1 4 -5 5 -20 -12 5 15 19 28 16 12 25 20 30 28 22 10 9 4 -20 -20 -20 -20 -20 -20 -20 -20 -20 -20
3 31 14 6 32 32 24 5 -0 11 27 30 9 12 -14 -4 -16 7 8 -20 -6 22 10 15 23 14 37 30 34 42 38 0 -15 -18 14 -20 -20 -20 -20 -20 -20 -20 -20 -20 -20
23 31 -14 15 33 27 14 -6 2 21 30 26 17 12 -11 -1 -20 -1 -18 -20 4 -3 12 3 24 30 30 7 36 23 5 -2 -20 16 15 -20 -20 -20 -20 -20 -20 -20 -20 -20 -20
28 16 18 18 26 13 -4 -3 21 25 27 25 10 6 5 4 4 -18 -20 -20 -3 -7 -0 26 29 3 32 14 40 39 10 -6 -9 -5 10 -20 -20 -20 -20 -20 -20 -20 -20 -20 -20
34 16 28 31 21 8 -8 13 29 27 29 23 10 -4 -8 -20 -20 -20 -20 -20 -9 12 7 30 40 40 35 -9 5 4 -20 -20 -20 -0 -20 -20 -20 -20 -20 -20 -20 -20 -20 -20 -20
27 17 10 20 7 11 7 13 30 32 27 25 15 8 -18 -0 -20 -20 -20 4 -9 3 11 26 39 30 -2 4 -17 10 -20 -20 -20 -20 -20 -20 -20 -20 -20 -20 -20 -20 -20 -20 -20
23 13 19 12 -3 -5 -16 10 30 29 30 17 -6 -20 -20 -20 -20 -20 -20 -20 -20 -20 -20 -15 10 29 9 15 10 12 -20 -20 -20 -20 -20 -20 -20 -20 -20 -20 -20 -20 -20 -20 -20
20 2 5 15 19 2 -14 16 30 32 22 -2 2 -8 7 -20 -20 25 -15 -20 -12 -20 -20 -6 10 -12 -6 -20 -20 -1 -20 -20 -16 -20 -20 -20 -19 -19 -20 -20 -20 -20 -20 -20 -20

GFSSW_prec_radar_027.txt.gz
Reflectivity
-20 -20 -20 -20 -20 -20 -20 -20 -20 -20 -20 -20 -1 15 23 -15 -20 -20 -20 -20 -20 -20 -20 -20 -20 -20 -20 -20 -20 -20 -20 -20 -20 -20 -20 -20 -20 -20 -20 -20 -20 -20 -20 -20 -20
-20 -20 -20 -20 -20 -20 -20 -20 -20 -20 -20 -20 -20 -20 11 4 -20 -16 -20 -20 -20 -20 -20 -20 -20 -20 -20 -20 -20 -20 -20 -20 -20 -20 -20 -20 -20 -20 -20 -20 -20 -20 -20 -20 -20
-20 -20 -16 -20 -20 -20 -20 -20 -20 -20 -20 -20 -20 -20 -20 -20 -20 -20 -20 -20 -20 -16 -20 -20 -20 -20 -20 -20 -20 -19 -20 -20 -20 -20 -20 -20 -20 -20 -20 -20 -20 -20 -20 -20 -20
-20 -12 -3 -20 -20 -20 -20 -20 -20 -20 -4 -18 -20 -20 -20 -20 -20 -20 -20 -20 -20 -9 -16 -20 -20 -20 -20 -13 -20 -20 -20 -20 -20 -20 -20 -20 -20 -20 -20 -20 -20 -20 -20 -20 -20
-20 -20 -13 -1 -20 -20 -20 -20 -20 -20 -20 -20 -20 -20 -20 -20 -20 -20 -20 -20 -20 -20 -8 -20 -20 -20 -20 -20 -20 -20 -20 -20 -20 -20 -20 -20 -20 -20 -20 -20 -20 -20 -20 -20 -20
-20 -20 -20 -3 -20 -20 -20 -5 -20 -20 -20 -20 -20 -10 -12 -20 -20 -20 -20 -20 -20 -20 -20 -20 -17 -20 -20 -20 -20 -20 -20 -20 -20 -20 -20 -20 -20 -20 -20 -20 -20 -20 -20 -20 -20
-10 -20 -20 -20 -20 -20 12 -20 12 -20 -20 -20 -20 -9 -11 -20 -20 -20 -20 -20 -20 -20 -20 -20 -20 -18 -16 -20 -20 -20 -20 -20 -20 -20 -20 -20 -20 -20 -20 -20 -20 -20 -20 -20 -20
11 -8 -20 -20 -20 -20 -20 -20 -20 -9 -20 -20 -20 -20 -17 -20 -20 -20 -20 -20 -20 -20 -20 -20 -20 -20 -20 -20 -20 -20 -20 -20 -20 -20 -20 -20 -20 -20 -20 -20 -20 -20 -20 -20 -20
4 -17 -20 -20 -20 -4 -20 -20 -20 -20 6 7 -20 -20 -20 -20 -20 -20 -20 -20 -20 -20 -20 -20 -20 -20 -20 -1 4 -19 -5 -15 -20 -20 -20 -1 -20 -20 -20 -20 -20 -20 -20 -20 -20
21 1 -20 -20 -20 5 -20 -20 -20 -20 15 13 -5 -15 -20 -20 -20 -20 -20 -20 -20 -20 -20 -20 -20 -20 -20 -6 3 -19 -20 -20 -20 -20 -20 -17 -20 -20 -20 -20 -20 -20 -20 -20 -20
9 20 -7 16 -20 -13 -20 -20 -20 -20 7 -20 -20 -20 -20 -20 -20 -20 -20 -20 -20 -20 -20 -20 -20 -20 -20 -20 -20 -20 -20 -20 -20 -20 -20 -20 -20 -20 -20 -20 -20 -20 -20 -20 -20
-9 13 10 1 -18 -16 -20 -20 -10 -20 -20 -20 -20 -20 -20 -20 -19 -20 -20 -20 -20 -20 -20 -3 -13 -20 -20 -20 -20 -16 -20 -20 -20 -20 14 -6 -18 -20 -20 -20 -20 -20 -20 -20 -20
3 19 18 -18 -1 9 -18 -20 -20 -20 -5 2 -20 -20 -20 -20 -2 -19 -20 -20 -20 -12 -20 -20 -20 -20 -20 -20 -9 -7 -8 -20 -20 -20 -20 -13 -15 -20 -20 -20 -20 -20 -20 -20 -20
-6 18 21 14 -5 -20 8 -20 -20 -0 17 -1 -20 -18 -20 -11 12 -11 -3 -1 3 -14 -20 9 -20 -20 -20 -20 -20 -0 -20 -20 -20 11 2 -1 3 -20 -20 -20 -20 -20 -20 -20 -20
-11 21 13 10 -20 -20 -20 -20 4 1 -20 -20 -20 -20 1 -14 -2 -18 -14 12 25 23 17 20 -20 -20 -18 -20 11 -17 -20 -10 -3 10 19 -3 -0 -20 -20 -20 -20 -20 -20 -20 -20
20 21 14 13 -19 -20 -20 -20 -20 -16 -20 -19 -13 -20 3 4 7 -6 -5 4 9 25 34 13 -20 3 -20 -20 9 -20 -12 -20 11 15 25 2 13 -2 -20 -20 -20 -20 -20 -20 -20
27 20 22 -11 -5 -20 -20 -20 -17 -16 -20 -13 -9 -13 -20 3 -6 -17 12 10 10 10 10 8 -5 -20 -20 -18 4 4 17 12 13 15 -1 -20 5 30 -20 -20 -20 -20 -20 -20 -20
31 23 27 7 20 -12 -17 -20 -1 -20 -20 -20 -12 -20 2 -20 1 -20 15 7 -11 6 11 -20 -20 -20 -20 -20 -20 -20 -13 3 -10 -20 -9 11 41 1 -20 -20 -20 -20 -20 -20 -20
37 31 36 12 17 19 -4 0 -20 -20 -20 -20 -0 14 0 -20 -8 -19 -20 -19 -20 -20 5 7 -7 16 2 3 -3 -16 7 -20 -20 14 10 3 14 -20 -20 -20 -20 -20 -20 -20 -20
37 33 22 13 28 28 21 -20 -20 -20 -20 -7 15 4 -10 -20 -8 -0 -20 -20 -20 -20 -18 4 9 20 32 39 -2 18 1 7 24 28 28 21 -20 -20 -20 -20 -20 -20 -20 -20 -20
34 34 11 35 26 35 18 -0 -20 -20 -20 21 16 20 0 -6 -20 -20 -20 -20 -20 -10 -17 5 25 21 35 18 -2 6 30 19 19 19 25 -1 -20 -20 -20 -20 -20 -20 -20 -20 -20
26 27 17 40 29 31 19 -20 -20 -20 8 24 26 15 16 5 -5 -20 -20 -20 -12 -14 3 4 28 6 5 12 14 17 17 19 23 37 32 -14 -20 -20 -20 -20 -20 -20 -20 -20 -20
3 27 17 32 28 20 5 3 -20 -6 26 28 25 21 3 -3 10 -20 -20 -18 -4 -6 11 19 24 6 3 31 25 34 13 19 38 -12 15 -5 -20 -20 -20 -20 -20 -20 -20 -20 -20
21 15 39 33 11 4 -1 4 -8 -5 28 32 27 21 20 -20 -20 -20 -20 -20 -20 -1 22 26 34 35 33 17 16 30 38 30 30 18 12 17 -20 -20 -20 -20 -20 -20 -20 -20 -20
-2 4 25 24 19 -12 -8 7 -14 28 24 31 31 18 5 2 5 -20 -20 -17 7 10 27 32 35 36 24 1 18 28 18 14 12 17 18 1 -18 -20 -20 -20 -20 -20 -20 -20 -20
-7 6 -20 -20 -20 9 19 18 3 21 27 26 31 13 -19 1 -20 -20 -20 -14 8 11 23 19 34 33 29 -15 -2 5 -20 19 13 15 -3 9 -20 -20 -20 -20 -20 -20 -20 -20 -20
-8 -3 29 6 -20 -13 12 7 -6 -9 12 22 29 18 14 -20 -20 -20 -20 -18 -16 1 -20 -20 6 24 31 27 -20 -20 -20 -20 -20 -19 -13 -20 -20 -20 -20 -20 -20 -20 -20 -20 -20

GFSSW_prec_radar_030.txt.gz
Reflectivity
-20 -20 -20 -3 -20 -20 -20 -20 -20 -20 -20 -19 5 13 10 6 -20 -20 -20 -20 -20 -20 -20 -20 -20 -20 -20 -20 -20 -20 -20 -20 -20 -20 -20 -20 -20 -20 -20 -20 -20 -20 -20 -20 -20
-20 -20 -20 -19 0 -20 -20 -20 -20 -20 -20 -20 -20 -13 15 6 -13 -20 -20 -20 -20 -20 -20 -20 -20 -20 -20 -20 -20 -20 -0 -20 -20 -20 -20 -20 -20 -20 -20 -20 -20 -20 -20 -20 -20
-20 -20 -20 2 -20 -20 -20 -20 -20 -20 -20 -20 -20 -20 -20 -20 -20 -20 -20 -20 -20 9 -20 -20 -20 -20 -20 -20 -20 -20 -20 -20 -20 -20 -20 -20 -20 -20 -20 -20 -20 -20 -20 -20 -20
-20 -20 -20 -4 -20 -20 -17 -20 -20 -20 -20 -20 -20 -20 -20 -20 -20 -20 -20 -20 -20 16 -16 -20 -20 -20 -20 -20 -20 -20 -20 -20 -20 -20 -20 -20 -20 -20 -20 -20 -20 -20 -20 -20 -20
-20 -20 -20 -20 -20 -20 -20 -20 -20 -20 -20 -20 -20 -20 -20 -13 -20 -20 -20 -20 -20 -20 -3 -2 -20 -20 -20 -20 -20 -20 -20 -20 -20 -20 -20 -20 -20 -20 -20 -20 -20 -20 -20 -20 -20
16 -20 -20 -20 -20 -20 -20 -20 -20 -20 -20 -20 -20 -20 -20 -20 -20 -20 -20 -20 -20 -20 -20 -20 -20 -20 -20 -20 -20 -20 -20 -20 -20 -20 -20 -20 -20 -20 -20 -20 -20 -20 -20 -20 -20
13 16 -20 -20 -20 -20 -20 -20 -14 -20 -20 -20 -20 -20 8 -20 -20 -20 -20 -20 -20 -20 -20 -20 -20 -20 -20 -20 -20 -20 -20 -20 -20 -20 -20 -20 -20 -20 -20 -20 -20 -20 -20 -20 -20
5 -10 -18 -20 -20 -18 -20 -20 -20 -20 -20 -20 -20 -20 -20 -20 -20 -20 -20 -20 -20 -20 -20 -20 -20 -20 -20 -17 -20 -20 -20 -20 -20 -20 -20 -19 -20 -20 -20 -20 -20 -20 -20 -20 -20
-0 -4 5 -20 -20 12 -12 -20 -20 -20 -20 11 -20 -20 -20 -20 -20 -20 -20 -20 -20 -20 -20 -20 -20 -20 -20 -6 1 -20 -20 -20 -20 -20 -20 -20 -20 -20 -20 -20 -20 -20 -20 -20 -20
-10 3 19 -8 -20 -20 -11 -20 -20 -20 4 16 -1 -20 -20 -20 -20 -20 -20 -20 -20 -20 -20 -20 -20 -20 -20 1 -18 -20 -20 -20 -20 -20 -20 -20 -20 -20 -20 -20 -20 -20 -20 -20 -20
18 -20 18 6 7 -12 -20 -20 -20 -20 17 -20 -20 -20 -20 -20 -20 -20 -20 -20 -20 -20 -5 -20 -8 -20 -20 -20 -20 -20 -20 -20 -20 -20 -20 -20 -20 -20 -20 -20 -20 -20 -20 -20 -20
12 -20 -9 18 17 9 -20 -20 -20 -20 -20 -20 -20 -20 -20 -18 -20 -20 -20 -20 -20 -17 -20 -4 -10 -3 -20 -20 -20 -20 -20 -20 -20 -20 -17 -20 -20 -20 -20 -20 -20 -20 -20 -20 -20
19 -20 -7 21 19 13 -20 -20 -20 -20 -20 -20 -20 -7 -18 5 -15 -19 -20 -20 -20 -20 -20 -20 -20 -20 -20 -20 -20 -20 -20 -20 -17 -20 -20 -20 -20 -20 -20 -20 -20 -20 -20 -20 -20
21 5 -20 18 22 -18 -20 -20 -20 -20 6 -16 -20 -15 -10 10 2 -20 -12 -16 -8 -20 -20 7 -20 -20 -20 -20 -20 -20 -20 -20 -20 -14 -20 8 4 -20 -20 -20 -20 -20 -20 -20 -20
35 21 26 5 -9 -20 -20 -20 -13 -4 -20 -20 -20 -20 -2 10 -20 -19 -14 10 11 -12 -20 -13 -20 -20 -20 -20 7 -18 -20 -20 5 -4 5 -20 -2 -20 -20 -20 -20 -20 -20 -20 -20
38 22 21 30 -3 -20 -20 -20 -15 -19 -20 -19 -20 -20 2 3 6 -15 -20 -11 21 28 17 6 2 -15 -20 -15 11 11 12 14 13 12 18 -20 -20 -20 -20 -20 -20 -20 -20 -20 -20
34 32 22 0 27 -20 -19 -0 -19 -20 -20 -0 -12 -20 -20 -14 -20 -14 10 26 25 -1 -11 11 23 2 9 -4 9 9 21 19 18 11 -17 -20 -20 -20 -20 -20 -20 -20 -20 -20 -20
36 33 24 -19 10 -20 -4 4 -20 -20 -20 -20 -20 -20 -19 -20 -19 -20 -7 1 -1 -5 -3 -20 -20 -11 2 -18 -18 -5 4 13 11 -20 -20 9 -10 -20 -20 -20 -20 -20 -20 -20 -20
29 40 45 28 23 2 6 2 -20 -20 -20 -20 -6 -6 1 -17 -20 4 -17 -20 -20 -20 -18 -20 -20 -20 -20 -20 -20 -17 14 2 14 6 10 -20 -20 -20 -20 -20 -20 -20 -20 -20 -20
28 37 43 16 27 -3 23 -20 -20 -20 -20 -17 -20 -20 -13 -20 -7 5 -20 -20 -20 -20 -20 -18 -5 9 14 -15 -12 -20 -14 12 18 8 -10 -20 -20 -20 -20 -20 -20 -20 -20 -20 -20
31 36 38 33 18 24 24 -19 -20 -20 -20 -20 -18 0 -1 -17 -20 -20 -20 -20 -20 -20 -18 -16 15 12 27 28 15 12 -13 15 -20 -20 -20 -13 -20 -20 -20 -20 -20 -20 -20 -20 -20
25 39 38 44 30 25 22 -17 -20 -20 -20 1 -14 8 6 15 13 -20 -20 -20 -20 -20 15 6 29 7 20 -1 17 13 -1 -20 9 -20 -9 17 0 -14 -20 -20 -20 -20 -20 -20 -20
33 41 36 39 30 18 2 -6 -20 -20 -19 15 6 -1 5 11 12 -20 -20 -20 -20 -20 22 25 25 11 20 34 29 18 -6 -7 -16 12 24 20 -18 -20 -20 -20 -20 -20 -20 -20 -20
40 43 32 38 14 2 -12 -13 2 -20 7 -3 22 25 14 5 0 -15 -20 -20 -20 -19 -4 25 30 21 22 23 10 30 18 13 9 11 21 32 8 16 -20 -20 -20 -20 -20 -20 -20
32 33 18 22 18 -1 3 9 2 8 -6 18 18 25 18 10 -20 -20 -20 -10 -20 6 24 33 34 35 33 32 32 3 7 12 11 22 5 15 35 15 -15 -20 -20 -20 -20 -20 -20
38 26 -17 -14 6 -4 -6 1 -3 -20 14 17 23 28 15 9 -20 -20 -20 -18 9 1 27 34 37 41 38 9 28 24 21 17 29 31 37 31 18 6 -20 -20 -20 -20 -20 -20 -20
33 -15 -20 -20 -7 -7 -2 -13 -17 19 3 -3 21 27 24 -0 -20 -20 -20 -3 10 0 30 27 34 39 -6 31 20 35 33 38 40 39 32 -5 -10 -20 -20 -20 -20 -20 -20 -20 -20

GFSSW_prec_radar_033.txt.gz
Reflectivity
-20 -20 -20 -20 0 -10 -20 -20 -20 -20 -20 -20 -20 2 21 19 11 -6 -19 -20 -20 -20 -20 -20 -20 -20 -20 -20 -20 -20 -20 -20 -20 -20 -20 -20 -20 -20 -20 -20 -20 -20 -20 -20 -20
-20 -20 -20 -3 -19 5 -8 -20 -20 -20 -20 -20 -20 -20 -18 -5 -17 10 -20 -20 -20 -20 -20 -20 -20 -20 -20 -20 -20 -20 -20 -20 -20 -20 -20 -20 -20 -20 -20 -20 -20 -20 -20 -20 -20
-0 -20 -20 -1 -5 -6 -20 -20 -20 -20 -20 -20 -20 -20 -20 -20 -20 -20 -20 -20 -20 6 -20 -20 -20 -20 -20 -20 -20 -20 -20 -20 -20 -20 -20 -20 -20 -20 -20 -20 -20 -20 -20 -20 -20
13 -17 -20 -20 9 -20 -20 -20 -20 -20 -20 -20 -20 -20 -20 -20 -20 -20 -20 -20 -20 3 -20 -20 -20 -20 -20 -20 -20 -20 -20 -20 -20 -20 -20 -20 -20 -20 -20 -20 -20 -20 -20 -20 -20
7 7 -20 -20 -17 -2 -20 -20 -20 -20 -20 -20 -20 -20 -20 -20 -20 -20 -20 -20 -20 12 14 -20 -20 -20 -20 -20 -20 -20 -20 -20 -20 -20 -20 -20 -20 -20 -20 -20 -20 -20 -20 -20 -20
21 4 12 -20 -20 0 -20 -20 -9 -20 -20 -20 -20 -20 -20 -20 -20 -20 -20 -20 -20 -20 -20 -20 -20 -20 -20 -20 -20 -20 -20 -20 -20 -20 -20 -20 -20 -20 -20 -20 -20 -20 -20 -20 -20
-20 7 4 -12 -20 -20 -20 -19 -13 -20 -20 -20 -20 -20 -20 -20 -20 -20 -20 -20 -20 -20 -20 -20 -20 -20 -18 -20 -20 -20 -20 -20 -20 -20 -20 -20 -20 -20 -20 -20 -20 -20 -20 -20 -20
-20 -5 -7 -11 -19 -20 -20 15 -20 2 -20 -20 -20 -20 -20 -20 -20 -20 -20 -20 -20 -20 -20 -20 -20 -20 -20 -20 -20 -20 -20 -20 -20 -20 -20 -20 -20 -20 -20 -20 -20 -20 -20 -20 -20
15 3 5 -1 7 -20 -20 -5 -20 -20 -20 13 -20 -20 -20 -20 -20 -20 -20 -20 -20 -20 -20 -20 -20 -20 -20 7 -4 -20 -20 -20 -20 -20 -20 -20 -20 -20 -20 -20 -20 -20 -20 -20 -20
21 -11 -5 22 -6 -17 -13 -20 -20 -20 -20 26 -10 -20 -20 -20 -20 -20 -20 -20 -20 -20 -20 -20 -20 -20 -2 3 -20 -20 -19 -20 -20 -20 -20 -20 -20 -20 -20 -20 -20 -20 -20 -20 -20
26 12 18 -17 15 10 8 -20 -20 -20 -16 -9 -7 -20 -20 -20 -20 -20 -20 -20 -20 -20 -20 -20 -20 -20 -20 -20 -20 -20 -20 -20 -20 -20 -20 -20 -20 -20 -20 -20 -20 -20 -20 -20 -20
27 27 20 10 9 13 -4 -20 -20 -20 -6 -20 -20 -20 -20 -20 -19 -20 -20 -20 -20 -20 -20 -16 -8 -20 -20 -20 -20 -20 -19 -18 -20 -20 -20 -20 -20 -20 -20 -20 -20 -20 -20 -20 -20
18 35 28 24 27 11 -3 -20 -20 -20 -20 -20 -20 -20 -20 -17 1 -20 -20 -20 -20 -20 -20 -20 -20 -20 -20 -20 -20 -20 -20 -11 -20 -20 -20 -20 -20 -20 -20 -20 -20 -20 -20 -20 -20
11 24 31 26 25 3 -1 -20 -20 -20 -20 -20 -20 -18 -0 13 6 -20 -20 -20 -20 -20 -20 -14 -20 -20 -20 -20 -20 -4 -20 -20 -20 12 -0 -20 -14 -20 -20 -20 -20 -20 -20 -20 -20
7 24 42 30 10 13 -20 -19 -20 -19 -20 -20 -20 -20 12 -7 -20 -20 -20 -12 -7 -19 -20 -20 -20 -20 -20 -20 -20 -17 -20 -19 4 7 -13 -20 -19 -20 -20 -20 -20 -20 -20 -20 -20
6 -1 37 35 -9 -20 -14 -16 -20 -16 -20 -11 -20 -7 -1 7 0 -20 -20 1 11 15 18 -3 -8 -20 -20 -20 -20 -20 9 10 28 7 9 -20 -20 -20 -20 -20 -20 -20 -20 -20 -20
13 11 40 39 19 5 -4 -20 13 -20 -20 -9 -18 -14 -20 -20 -1 -5 -19 -0 6 6 2 18 1 -14 -20 -20 -20 -20 22 19 17 22 4 -20 -20 -20 -20 -20 -20 -20 -20 -20 -20
8 22 37 43 22 16 -7 -20 -20 -20 -20 -20 -20 -20 -20 -20 -20 -18 11 9 1 1 -20 -20 -20 -7 -20 -18 -20 -20 -17 5 16 -3 -19 -20 -19 -20 -20 -20 -20 -20 -20 -20 -20
24 22 35 43 28 34 16 6 -20 -20 -20 -20 -20 -14 -20 -20 -19 3 -0 -18 -20 -20 -18 -20 -20 -20 -20 -20 -20 7 5 -20 5 11 18 -19 -20 -20 -20 -20 -20 -20 -20 -20 -20
20 30 36 39 34 28 12 -20 -20 -20 -20 -20 -20 -20 -20 -15 -8 9 -8 -20 -20 -20 -20 -20 -20 -20 -20 10 -1 -6 -12 7 19 9 17 -18 -20 -20 -20 -20 -20 -20 -20 -20 -20
13 39 35 35 42 13 -3 -6 -20 -20 -20 -20 -20 -20 -20 -20 -20 -18 -20 -20 -20 -20 -20 -20 3 -20 -2 20 20 20 15 7 -12 -1 -20 -20 -20 -20 -20 -20 -20 -20 -20 -20 -20
14 21 34 32 40 37 9 -20 -20 -20 -20 -20 -20 -20 -0 -13 8 -20 -20 -20 -20 -20 -2 -20 28 2 14 24 16 7 24 14 -11 -20 -20 5 -20 -20 -20 -20 -20 -20 10 -20 -20
38 12 21 29 31 37 21 -20 -20 -20 -20 -20 -20 -18 4 17 23 -11 -20 -20 -20 -20 -20 -4 17 3 -1 28 30 31 23 24 22 -19 -20 -20 -20 -20 -20 -20 -20 -19 19 -16 -19
33 37 37 38 34 -6 -8 -3 -20 -15 -20 -20 -13 4 20 17 3 -14 -20 -20 -20 -20 -20 -15 26 20 16 18 35 27 13 16 13 -17 -20 -20 -20 1 -20 -20 -20 -2 -6 12 -20
20 34 29 32 35 -0 -20 -20 -17 -3 -20 4 9 -0 21 18 -2 -3 -20 -20 -20 -20 -20 9 19 18 16 29 31 30 31 12 -8 8 9 11 5 4 5 15 -20 -18 -2 -20 -20
25 35 16 -5 -0 13 24 2 -17 -7 -20 -2 7 -20 9 19 -11 -20 -20 -20 -20 -20 7 26 26 32 12 26 21 26 24 12 3 16 2 11 8 11 3 -19 11 10 -20 -3 -20
19 30 17 17 -3 8 -8 -2 -5 -11 -16 -14 -20 -8 6 -6 -2 -18 -15 -20 -2 12 27 25 26 32 29 35 29 29 29 17 -16 4 15 25 1 12 -20 -1 7 7 -7 -20 -20

GFSSW_prec_radar_036.txt.gz
Reflectivity
-4 -20 -20 -20 -2 1 -20 -20 -20 -12 -20 -20 -13 9 -20 24 16 -7 -18 -20 -20 -20 -20 -20 -20 -20 -20 -20 -20 -20 -20 -20 -20 -20 -20 -20 -20 -20 -20 -20 -20 -20 -20 -20 -20
-12 -5 -20 -20 -20 4 -14 -20 -20 -18 -20 -20 -20 -20 -9 2 27 14 -20 -20 -12 -20 -20 -20 -20 -20 -20 -20 -20 -20 -20 -20 -20 -20 -20 -20 -20 -20 -20 -20 -20 -20 -20 -20 -20
19 11 -20 -20 -20 -19 -20 -20 -20 -20 -20 -20 -20 -20 -18 -4 -20 -20 -20 -20 -1 14 -20 -20 -20 -20 -20 -20 -20 -20 -20 -20 -20 -20 -20 -20 -20 -20 -20 -20 -20 -20 -20 -20 -20
20 19 -11 5 -20 -20 -20 -20 -7 -20 -20 -20 -20 -20 -20 -20 -20 -20 -20 -20 -14 1 -6 -20 -20 -20 -20 -20 -20 -20 -20 -20 -20 -20 -20 -20 -20 -20 -20 -20 -20 -20 -20 -20 -20
14 -4 21 -4 -15 -20 -20 -20 -9 -13 -20 -20 -16 -20 -20 -20 -20 -20 -20 -20 -20 -6 11 -10 -20 -20 -20 -20 -20 -20 -20 -20 -20 -20 -20 -20 -20 -20 -20 -20 -20 -20 -20 -20 -20
-3 -14 20 17 7 -20 -20 -20 -17 -18 -20 -20 -20 -20 -20 -20 -20 -20 -20 -20 -20 10 14 16 -20 -20 -20 -20 -20 -20 -20 -20 -20 -20 -20 -20 -20 -20 -20 -20 -20 -20 -20 -20 -20
15 20 7 21 6 1 -20 -20 -20 -6 -20 -20 -20 -20 -20 -20 -20 -20 -20 -20 -20 -20 -20 -20 -20 -20 2 -20 -20 -20 -20 -20 -20 -20 -20 -20 -20 -20 -20 -20 -20 -20 -20 -20 -20
30 9 -4 23 20 12 -17 -20 17 12 -20 -20 -20 -20 -20 -20 -20 -20 -20 -20 -20 -20 -20 -20 -20 1 -20 -20 -20 -6 -20 -20 -20 -20 -20 -20 -20 -20 -20 -20 -20 -20 -20 -20 -20
24 30 19 21 15 -0 5 -20 5 -20 -20 19 -20 -20 -20 -20 -20 -20 -20 -20 -20 -20 -20 -20 -20 -20 -20 -18 -20 -20 -20 -20 -20 -20 -20 -20 -20 -20 -20 -20 -20 -20 -20 -20 -20
7 31 19 25 23 23 8 21 -20 -20 -20 1 -9 -20 -20 -20 -20 -20 -20 -20 -20 -20 -20 -20 -20 -20 -20 -20 -20 -20 -20 -20 -20 -20 -20 -20 -20 -20 -20 -20 -20 -20 -20 -20 -20
1 19 26 24 25 22 4 -8 -20 -20 -20 -20 -20 -20 -20 -20 -20 -20 -20 -20 -20 -20 -20 -20 -20 -20 -20 -20 -20 -20 -20 -20 -20 -20 -20 -20 -20 -20 -20 -20 -20 -20 -20 -20 -20
-1 6 34 29 28 19 9 6 -20 -20 -20 -20 -17 -20 -20 -20 -20 -20 -20 -20 -20 -20 -20 -17 -14 -20 -20 -20 -20 -20 -15 -17 -20 -20 -20 -20 -20 -20 -20 -20 -20 -20 -20 -20 -20
9 -8 28 38 33 23 -11 13 -20 -20 -20 -20 -20 -8 -20 -20 -2 -20 -20 -20 -20 -20 -20 -20 -20 -20 -20 -20 -20 -20 -12 -20 -20 -20 -20 -20 -20 -20 -20 -20 -20 -20 -20 -20 -20
7 -1 -1 28 39 30 7 29 -20 -20 -20 -20 -18 -20 -15 -4 -4 -20 -20 -20 -20 -20 -20 -20 -20 -20 -20 -20 -20 -20 -20 -20 -20 -20 -10 -20 -17 -20 -20 -20 -20 -20 -20 -20 -20
21 2 -5 23 41 30 13 30 -4 -20 -20 -20 -20 -4 7 -18 -20 -20 -20 -19 -12 -20 -20 -20 -20 -20 -20 -20 -20 -3 -20 -20 -19 -19 -13 -20 1 -20 -20 -20 -20 -20 -20 -20 -20
1 2 4 1 39 32 22 5 -5 -20 -20 -9 -20 4 14 8 -6 -20 -14 5 -10 -3 8 -18 -20 -14 -20 -20 -20 -20 3 1 4 13 12 -20 -20 -20 -20 -20 -20 -20 -20 -20 -20
23 -5 14 -2 39 33 28 32 -18 -14 -20 -11 -14 5 3 0 -4 -10 -8 15 9 0 -1 -4 5 3 -17 -7 -20 -20 3 -6 7 8 -18 -20 -20 -20 -20 -20 -20 -20 -20 -20 -20
11 5 -7 2 39 39 21 29 -20 -20 -20 -20 -14 5 -10 -4 -20 -18 3 3 4 13 -19 -20 -20 -4 -1 -19 -20 -20 -17 -19 -19 -18 -20 -20 -20 -20 -20 -20 -20 -20 -20 -20 -20
22 26 -20 -20 34 35 33 16 -20 -20 -20 -20 -20 -20 -16 -20 -20 -19 -12 -4 -20 -14 -1 -20 -20 -20 -20 -20 -20 -8 2 -20 -8 -20 8 -20 -20 -20 -20 -20 -20 -20 -20 -20 -20
2 15 22 13 36 38 31 6 -20 -20 -20 -20 -20 -20 -20 -20 -20 5 -3 -20 -20 -20 -20 -20 -20 -20 -20 -17 -14 -20 3 16 18 17 1 -20 -20 -20 -20 -20 -20 -20 -20 -20 -20
23 -6 24 18 33 41 33 6 -20 -20 -20 -20 -20 -20 -20 -20 -20 -17 -20 -20 -20 -20 -20 -20 -16 -20 -18 3 -19 17 24 25 9 -6 1 -20 -20 -20 -20 -20 -20 -20 -20 -20 -20
13 15 29 16 28 40 32 12 -20 -20 -20 -20 -20 -20 -20 -20 -20 -16 -20 -20 -20 -20 -19 -20 -2 -9 -20 -20 -0 19 17 20 25 4 -17 -10 -20 -20 16 -20 -20 -20 -20 -20 -20
23 14 34 32 24 31 27 -14 -13 -20 -20 -20 -20 -20 -20 -11 -10 -9 -20 -20 -20 -20 -20 -20 -7 -20 -20 -20 -7 30 23 32 24 21 7 -20 -20 -20 -9 -20 -3 -20 -20 -20 -20
32 29 34 37 28 5 19 -13 -20 -20 -20 -20 -20 -20 -0 5 -1 -7 -17 -20 -20 -20 -20 -20 -13 -20 -13 2 23 28 21 33 33 21 1 -20 -20 -15 16 15 -12 -20 -20 -20 -20
14 23 18 25 30 12 2 14 -19 -20 -20 -20 -18 -20 -8 9 7 4 -15 -20 -20 -20 -20 -16 -7 4 8 18 15 26 35 30 24 5 -15 -20 -20 14 26 -15 -20 -20 -10 16 -11
33 34 9 10 3 25 9 27 -20 -20 -20 -13 -14 -20 3 11 -5 -20 -20 -20 -20 -20 -20 -1 11 15 9 10 30 33 17 21 18 6 -20 -20 -20 -20 -20 -20 -20 -20 -9 16 -20
29 37 30 23 19 20 17 -20 -20 -20 -20 -20 -20 -9 0 -18 3 -20 18 -20 -20 -5 14 22 28 30 -7 17 19 32 34 18 -8 -18 -20 -17 4 17 -4 -20 -20 -20 -16 -5 12

GFSSW_prec_radar_039.txt.gz
Reflectivity
-9 -12 -11 -20 -20 -20 -4 -4 -13 -20 -20 -20 -20 -20 5 23 20 -5 -20 -20 -20 -20 -20 -20 -20 -20 -20 -20 -20 -20 -20 -20 -20 -20 -20 -20 -20 -20 -20 -20 -20 -20 -20 -20 -20
-1 -2 15 -17 -20 -20 -20 2 -20 -20 -20 -20 -20 -20 12 -10 6 14 -20 -20 -20 4 -20 -20 -20 -20 -20 -20 -20 -20 -20 -20 -20 -20 -20 -20 -20 -20 -20 -20 -20 -20 -20 -20 -20
-1 9 22 10 -20 -20 -20 -20 -20 -20 -20 -20 -20 -20 -20 -20 -20 -19 -9 -20 -15 27 -20 -20 -20 -20 -20 -20 -20 -20 -20 -20 -20 -20 -20 -20 -20 -20 -20 -20 -20 -20 -20 -20 -20
6 22 15 23 -17 -20 -20 -20 -20 -20 -20 1 -20 -20 -20 -20 -20 -20 -20 -20 -20 19 -16 -20 -20 -20 -20 -20 -20 -20 -20 -20 -20 -20 -20 -20 -20 -20 -20 -20 -20 -20 -20 -20 -20
15 10 22 -0 23 -20 -20 -20 -20 -20 -20 -20 -20 -20 -20 -20 -20 -20 -20 -20 -20 -20 -20 -18 -20 -20 -20 -20 -20 -20 -20 -20 -20 -20 -20 -20 -20 -20 -20 -20 -20 -20 -20 -20 -20
1 6 5 -2 24 1 -20 -20 -20 -16 -20 -20 -20 -20 -20 -20 -20 -20 -20 -20 -20 -16 9 -20 -13 -20 -20 -20 -20 -20 -20 -20 -20 -20 -20 -20 -20 -20 -20 -20 -20 -20 -20 -20 -20
9 11 6 4 19 -0 -20 -20 -20 -19 -20 -20 -20 -20 -20 -20 -20 -20 -20 -20 -20 -19 6 -20 -20 -20 -20 -20 -20 -20 -20 -20 -20 -20 -20 -20 -20 -20 -20 -20 -20 -20 -20 -20 -20
8 -15 -5 23 19 21 21 6 -19 -16 17 6 -8 -20 -20 -20 -20 -20 -20 -20 -20 -20 -20 -13 -20 7 -20 -20 -20 -20 -18 -20 -20 -20 -20 -20 -20 -20 -20 -20 -20 -20 -20 -20 -20
8 -1 -20 11 27 22 21 -3 8 -9 14 -2 -20 -20 -20 -20 -20 -20 -20 -20 -20 -20 -20 -13 -20 -20 -20 -20 -20 -20 -20 -20 -20 -20 -20 -20 -20 -20 -20 -20 -20 -20 -20 -20 -20
-1 6 -2 10 28 24 23 22 11 -20 -2 -20 -2 -20 -20 -20 -20 -20 -20 -20 -20 -20 -20 -20 -20 -20 -20 -17 -20 -20 -20 -20 -20 -20 -20 -20 -20 -20 -20 -20 -20 -20 -20 -20 -20
-1 -0 -20 21 32 32 31 24 -18 -20 -14 -20 -15 -20 -20 -20 -20 -20 -20 -20 -20 -20 -20 -20 -20 -20 -20 -20 -20 -20 -20 -20 -20 -20 -20 -20 -20 -20 -20 -20 -20 -20 -20 -20 -20
7 -9 13 10 36 34 32 20 -20 -20 -20 -20 -20 -20 -20 -20 -20 -20 -20 -20 -20 -20 -20 -20 -13 -20 -20 -20 -20 -20 -19 -20 -20 -20 -20 -20 -20 -20 -20 -20 -20 -20 -20 -20 -20
-10 22 14 -18 21 38 35 21 -9 -20 -20 -20 -20 -20 -20 -20 -20 -20 -20 -20 -20 -20 -20 -20 -20 -20 -20 -20 -20 -20 -20 -20 -20 -20 -20 -20 -20 -20 -20 -20 -20 -20 -20 -20 -20
-9 23 20 -11 6 28 39 26 -3 13 -9 -20 -20 -20 -20 -16 -16 -20 -20 -20 -20 -20 -20 -20 -20 -20 -20 -10 -20 -20 -20 -20 -20 0 -20 -20 -20 -20 -20 -20 -20 -20 -20 -20 -20
-18 -8 14 12 15 38 28 31 7 -13 -20 -20 -1 -20 -17 -16 -19 -19 -20 -16 -19 -20 -20 -20 -20 -20 -20 -20 -20 -18 -20 -20 -20 -2 -14 -4 4 -20 -20 -20 -20 -20 -20 -20 -20
-20 -20 -6 -8 -4 25 39 38 35 -1 -20 -7 -11 3 15 -5 -12 -13 3 9 -20 -3 -17 -14 -20 -20 -20 -20 -20 -20 -20 -8 -4 11 9 -20 -20 -20 -20 -20 -20 -20 -20 -20 -20
26 -2 14 21 9 24 42 37 29 -20 -20 -0 -8 8 6 -6 15 0 6 5 -10 4 -18 -10 -18 -20 -20 -19 -20 -20 14 -13 -2 -3 -20 -20 -20 -20 -20 -20 -20 -20 -20 -20 -20
20 15 14 -19 17 25 34 38 13 -20 -20 -20 -17 -5 -9 -6 -20 10 -3 7 13 2 -20 -20 -20 -2 -20 -4 -19 -20 -7 -19 -20 -20 -20 -20 -20 -20 -20 -20 -20 -20 -20 -20 -20
22 -20 10 -20 11 26 40 28 9 -20 -20 -20 -5 -7 0 -7 -20 -19 2 -3 -11 -20 -20 -20 -20 -20 -20 -20 -11 -20 2 -20 -18 -20 -17 -20 -20 -20 -20 -20 -20 -20 -20 -20 -20
15 -20 1 -20 26 36 37 25 5 -20 -20 -20 -20 -20 -20 -20 -20 -14 -9 -20 -20 -20 -20 -20 -20 -20 -20 -17 -20 -20 -11 0 4 3 2 -20 -20 -20 -20 -20 -20 -20 -20 -20 -20
-18 -14 -7 13 21 37 30 33 -12 -20 -20 -20 -20 -20 -20 -14 -20 -20 -20 -20 -20 -20 -20 -20 -20 -20 -20 -20 -20 -13 7 8 18 22 2 -13 -19 -20 -20 -20 -20 -20 -20 -20 -20
24 22 22 26 26 39 36 25 8 -20 -20 -20 -20 -20 -20 -20 -20 -20 -20 -20 -20 -20 -20 -20 -20 -20 -20 -20 -20 -20 -20 11 26 22 21 12 -4 -14 -20 -20 -20 0 -20 -20 -20
21 36 25 -6 -13 8 20 20 -17 -20 -20 -20 -20 -20 -20 -20 -20 -20 -20 -20 -20 -20 -20 -20 8 -20 -20 -20 -17 -15 -18 18 32 26 23 19 7 -20 -20 -20 7 26 -10 -20 -20
33 32 35 7 -13 -16 5 21 -14 -20 -6 -20 -20 -20 -20 -20 -20 -20 -1 -20 -20 -20 -20 -20 -1 -20 -20 -20 15 21 22 35 28 22 2 16 -20 -20 -20 -19 12 19 -6 -20 -20
24 37 17 -4 -9 -20 -2 -20 -20 24 -14 -20 -20 -20 -20 -19 -14 11 -2 -20 -20 -17 -18 -16 -7 -20 -20 -15 14 25 27 30 24 -1 17 -6 -13 -20 -1 10 12 7 -19 -20 -20
29 17 24 19 12 7 11 -20 -20 -20 -20 -20 -20 -20 -20 -15 -14 -20 -20 -20 -20 -20 -20 -6 6 6 -16 6 18 28 25 31 9 -10 6 -20 -11 -20 -20 -20 -20 -18 -5 -20 -20
22 32 36 12 14 13 13 -14 10 -3 -20 -20 -20 -20 -20 -20 -20 10 -6 -17 -20 6 -12 5 14 15 -20 -20 -8 1 31 22 -2 -17 -20 -20 -20 -20 -20 -19 -3 -6 5 9 -20

GFSSW_prec_radar_042.txt.gz
Reflectivity
9 1 13 -15 -17 -20 -20 -20 -2 -20 -20 -20 -20 -20 12 -0 17 0 -18 -20 -20 -20 -20 -20 -20 -20 -20 -20 -20 -20 -20 -20 -20 -20 -20 -20 -20 -20 -20 -20 -20 -20 -20 -20 -20
-0 -0 16 12 -6 -2 -12 -20 -20 -20 -20 -20 -12 -20 -6 -20 20 13 -20 -20 -10 -20 -20 -20 -20 -20 -20 -20 -20 -20 -20 -20 -20 -20 -20 -20 -20 -20 -20 -20 -20 -20 -20 -20 -20
2 11 2 2 27 -7 -20 -20 -20 -20 -20 -20 -10 -20 -20 -3 -20 -18 -16 6 -14 23 -20 -20 -20 -20 -20 -20 -20 -20 -20 -20 -20 -20 -20 -20 -20 -20 -20 -20 -20 -20 -20 -20 -20
-18 0 12 4 -4 25 -20 -20 -20 -20 -20 -20 -20 -20 -20 -20 -20 -20 -20 -20 -20 28 -20 -20 -20 -20 -20 -20 -20 -20 -20 -20 -20 -20 -20 -20 -20 -20 -20 -20 -20 -20 -20 -20 -20
8 -1 15 -19 5 18 16 -20 -20 -20 -20 -20 -20 -20 -20 -20 -20 -20 -20 -20 -20 12 -2 -8 -9 -20 -20 -20 -20 -20 -20 -20 -20 -20 -20 -20 -20 -20 -20 -20 -20 -20 -20 -20 -20
11 -5 -10 9 8 14 23 1 -20 -20 -20 -20 -20 -20 -20 -20 -20 -20 -20 -20 -20 -20 12 -1 6 -19 -20 -20 -20 -20 -20 -20 -20 -20 -20 -20 -20 -20 -20 -20 -20 -20 -20 -20 -20
16 6 -19 -8 6 7 26 24 -20 -20 -20 -20 -20 -20 -20 -20 -20 -20 -20 -20 -20 8 5 7 -11 -20 -5 -20 -20 -20 -20 -20 -20 -20 -20 -20 -20 -20 -20 -20 -20 -20 -20 -20 -20
-6 -3 -20 -15 5 12 4 23 13 -18 -20 -19 -20 -20 -20 -20 -20 -20 -20 -20 -20 11 23 -15 -17 5 -20 -20 -20 -20 -20 -20 -20 -20 -20 -20 -20 -20 -20 -20 -20 -20 -20 -20 -20
-3 9 10 -12 7 3 29 25 23 15 2 16 -20 -20 -20 -20 -20 -20 -20 -20 -20 -20 -20 -2 -20 -20 -20 -20 -20 -20 -20 -20 -20 -20 -20 -20 -20 -20 -20 -20 -20 -20 -20 -20 -20
7 -18 -7 -10 -1 13 25 32 27 16 -10 -13 16 -20 -20 -20 -20 -20 -20 -20 -20 -20 -20 -20 -20 -20 -20 -20 -20 -20 -20 -20 -20 -20 -20 -20 -20 -20 -20 -20 -20 -20 -20 -20 -20
6 -4 11 -19 10 -20 26 38 33 22 -15 -20 -20 -20 -20 -20 -20 -20 -20 -20 -20 -20 -20 -1 -20 -20 -20 -20 -20 -20 -20 -20 -20 -20 -20 -20 -20 -20 -20 -20 -20 -20 -20 -20 -20
-20 -18 -14 -2 -7 3 26 44 18 -11 -20 -17 -20 -20 -20 -20 -20 -20 -20 -20 -20 -20 -14 -11 -12 -20 -20 -20 -20 -5 -20 -20 -20 -20 -20 -20 -20 -20 -20 -20 -20 -20 -20 -20 -20
-18 -5 -15 6 -20 -20 28 36 27 5 -20 -20 -20 -18 -20 -20 -20 -20 -20 -20 -20 -20 -20 -20 -20 -20 -20 -20 -20 -12 -20 -20 -20 -20 -20 -20 -20 -20 -20 -20 -20 -20 -20 -20 -20
-20 6 -9 20 -20 9 24 29 41 28 19 -20 -20 -20 -7 -20 -20 -20 -20 -20 -20 -20 -20 -14 -20 -20 -20 -20 -20 -20 -20 -20 -20 -8 -20 -20 -20 -20 -20 -20 -20 -20 -20 -20 -20
5 22 10 8 5 -15 27 39 37 35 10 -20 3 1 1 -19 -20 -15 -20 -20 -20 -20 -20 -20 -20 -20 -2 -20 -20 -20 -20 -20 -8 -0 0 -20 3 -20 -20 -20 -20 -20 -20 -20 -20
20 21 13 14 22 8 24 37 42 30 -9 9 14 3 12 -4 -14 6 -8 3 -16 -9 -20 -20 -20 -20 -20 -20 -20 -20 -12 -12 5 12 1 -20 -19 -20 -20 -20 -20 -20 -20 -20 -20
12 25 18 21 -4 13 16 40 33 21 -19 8 -9 16 -6 7 15 -9 10 3 3 10 8 -7 -11 -20 -20 -2 -20 3 10 -1 -1 3 -20 -20 -20 -20 -20 -20 -20 -20 -20 -20 -20
20 17 24 -13 2 25 27 38 25 3 -8 -4 4 13 14 -20 -2 -10 9 8 6 1 -18 -20 -20 -10 -19 -17 -0 -5 3 -19 -20 -20 -20 -20 -20 -20 -20 -20 -20 -20 -20 -20 -20
26 21 -8 -20 -20 13 23 27 21 -20 -20 -19 1 5 0 -20 -20 -17 -15 -20 -20 -16 -20 -4 -20 -20 -20 -20 -20 -3 6 -20 2 -20 -3 -20 -20 -20 -20 -20 -20 -20 -20 -20 -20
18 1 8 -20 -20 13 31 18 26 -20 -18 -20 -20 -20 -20 -20 -20 -20 -14 -20 -20 -11 -20 -10 -12 -20 -20 -18 -20 -8 -20 4 5 -2 -12 -20 -20 -20 -20 -20 -20 -20 -20 -20 -20
32 13 4 27 26 34 25 12 7 9 -5 -20 -20 -20 -20 -20 -20 -20 -20 -20 -20 -20 -1 -20 -20 -20 -20 -19 -20 -12 9 -3 -17 1 -14 -14 -20 -20 -20 -14 -6 -20 -20 -20 -20
25 35 -18 23 22 30 14 35 -4 -19 10 -20 -20 -20 -20 -20 -20 -20 -20 -20 -20 -20 2 -20 -20 2 -19 -20 -20 -20 -20 -20 10 -9 16 5 -16 -20 -20 13 -20 -20 -20 -20 -20
29 24 26 20 -3 24 21 25 13 -1 -7 -20 -20 -20 -20 -20 -20 -20 -20 -20 -20 -20 -20 -20 -6 -1 -20 -20 -20 -20 9 14 21 23 16 10 3 6 2 -2 -19 -20 -20 -20 -20
32 33 31 38 -6 8 27 16 13 -11 -8 -20 -20 -20 -20 -20 -20 -20 -20 -20 -20 -20 -20 -20 6 -20 -20 -20 -10 -15 14 29 29 22 -4 5 -20 -20 -1 1 -20 -20 -18 5 -17
36 32 -4 10 6 -20 2 -1 -3 19 -4 -20 -20 -20 -20 -19 -20 -20 -20 -20 -20 -5 -12 -16 3 1 -20 -20 -20 -20 4 21 22 29 15 -5 -7 -20 -20 -2 -3 3 3 13 -18
33 37 30 -10 -20 -14 -19 -2 -20 -20 -20 -20 -20 -20 -20 -20 -20 -20 -20 -20 -9 -19 -9 3 -4 3 -20 -20 -20 -9 15 25 11 -4 13 -14 -19 -20 -20 -20 5 12 -7 -15 -15
19 27 26 13 -4 12 4 -20 -20 -20 -19 -20 -20 -20 -20 -20 -20 -20 -20 -17 -17 10 -18 5 16 -13 -20 -20 -20 -13 0 28 19 -18 -19 -5 -20 -20 -20 4 8 -2 -3 -7 -20

GFSSW_prec_radar_045.txt.gz
Reflectivity
8 4 10 6 24 3 -16 -20 -20 -20 -20 -20 -20 -20 -20 3 -9 7 11 -5 -20 -20 -20 -20 -20 -20 -20 -20 -20 -20 -20 -20 -20 -20 -20 -20 -20 -20 -20 -20 -20 -20 -20 -20 -20
-19 1 6 13 8 25 -20 -20 -20 -20 -20 -20 -20 -20 -20 -20 17 8 -20 -20 -20 -20 -20 -20 -20 -20 -20 -20 -20 -20 -20 -20 -20 -20 -20 -20 -20 -20 -20 -20 -20 -20 -20 -20 -20
-14 -20 11 10 5 13 25 -20 -20 -20 -20 -20 -20 -20 -20 -20 10 -7 -20 -13 -20 -9 -20 -20 -20 -20 -20 -20 -20 -20 -20 -20 -20 -20 -20 -20 -20 -20 -20 -20 -20 -20 -20 -20 -20
-9 -7 -20 10 12 0 22 24 -20 -20 -20 -20 -20 -20 -20 -17 -6 -20 -20 -19 12 -9 23 -17 -20 -20 -20 -20 -20 -20 -20 -20 -20 -20 -20 -20 -20 -20 -20 -20 -20 -20 -20 -20 -20
-20 -4 -2 -20 6 14 6 20 -10 -20 -11 -20 -20 -20 -20 -7 -20 -20 -20 -20 -20 -20 2 12 7 -20 -20 -20 -20 -20 -20 -20 -20 -20 -20 -20 -20 -20 -20 -20 -20 -20 -20 -20 -20
-20 -20 10 -15 -20 -10 7 -1 24 -9 0 -20 -20 -20 -20 -20 -20 -20 -20 -20 -20 -13 4 -3 -13 -20 -6 -20 -20 -20 -20 -20 -20 -20 -20 -20 -20 -20 -20 -20 -20 -20 -20 -20 -20
-20 -20 4 6 5 -20 -6 7 20 23 -2 4 -20 -20 -20 -20 -20 -20 -20 -20 -20 -20 12 -8 4 -20 -4 -20 -20 -20 -20 -20 -20 -20 -20 -20 -20 -20 -20 -20 -20 -20 -20 -20 -20
-20 -20 -7 -5 8 -4 3 -14 -5 30 -20 -8 -20 -19 -20 -20 -20 -20 -20 -20 -20 -20 -20 -8 -10 -3 -19 -20 -20 -20 -20 -20 -20 -20 -20 -20 -20 -20 -20 -20 -20 -20 -20 -20 -20
-20 -20 -20 -20 -2 -13 3 -20 19 40 3 9 0 -4 -9 -20 -20 -20 -20 -20 -20 -11 9 -20 -6 -3 -20 -20 -20 -20 -20 -20 -20 -20 -20 -20 -20 -20 -20 -20 -20 -20 -20 -20 -20
-20 -20 -20 -19 -20 1 -13 -3 -2 39 17 22 16 -20 -20 -20 -20 -20 -20 -20 -20 -20 -13 -20 -20 -20 -20 -20 -20 -20 -20 -20 -20 -20 -20 -20 -20 -20 -20 -20 -20 -20 -20 -20 -20
-20 1 -12 -18 18 -20 5 2 18 43 34 20 -17 -20 -20 -20 -20 -20 -20 -20 -20 -20 -20 -20 -19 -20 -20 -20 -20 -20 -20 -20 -20 -20 -20 -20 -20 -20 -20 -20 -20 -20 -20 -20 -20
12 -3 -9 -8 -8 -20 -10 18 38 37 33 -5 -10 -13 -20 -20 -20 -20 -20 -20 -20 -10 -20 -5 -12 -20 -20 -20 -20 -20 -20 -20 -20 -20 -20 -20 -20 -20 -20 -20 -20 -20 -20 -20 -20
-18 17 -0 24 20 -20 11 -19 31 39 38 17 -20 -16 -20 -20 -12 -20 -20 -20 -20 -7 -14 -18 -20 -20 -20 -20 -20 -20 -20 -20 -20 -20 -20 -20 -20 -20 -20 -20 -20 -20 -20 -20 -20
12 -3 -8 -9 -16 24 17 1 34 42 35 11 -5 -20 0 -20 -0 -20 -20 -20 -20 -19 -4 0 -20 -20 -20 -20 -20 -20 -20 -20 -20 -20 -20 -20 -20 -20 -20 -20 -20 -20 -20 -20 -20
1 18 22 26 14 -13 22 23 35 34 26 -20 -19 -20 -19 -20 -20 -10 -20 -20 -13 -20 -20 -20 -20 -20 -20 -20 -20 -20 -20 -20 -20 -20 -6 -20 -20 -20 -20 -20 -20 -20 -20 -20 -20
2 7 19 6 30 -20 2 18 37 31 29 10 4 -6 -1 -20 -13 3 -9 -19 -20 -20 -5 -20 -20 -20 -20 -20 -20 -20 -16 -20 -20 1 -1 -20 -20 -20 -20 -20 -20 -20 -20 -20 -20
16 17 14 23 16 -16 25 28 28 28 22 9 -6 12 3 -19 7 5 1 8 -10 -1 -20 -12 -20 -20 -20 -12 -17 -1 3 -1 1 3 -20 -20 -20 -20 -20 -20 -20 -20 -20 -20 -20
23 24 -3 21 -5 0 13 27 23 32 -1 -6 10 11 6 3 8 -6 -8 3 -6 -20 -20 -19 -3 -20 -20 -19 -13 1 5 -19 -20 -20 -20 -20 -20 -20 -20 -20 -20 -20 -20 -20 -20
27 16 11 -18 9 23 17 17 26 21 -20 2 13 15 12 7 6 12 7 3 -10 -18 -20 -17 -19 -20 -20 -6 -20 4 8 -20 -1 -20 -20 -20 -20 -20 -20 -20 -20 -20 -20 -20 -20
27 8 29 5 20 19 17 6 34 8 1 -8 -10 -20 8 10 7 0 -1 -20 -19 -20 -20 -9 -15 -20 -20 -15 -20 -19 -20 -11 -9 -5 -20 -20 -20 -20 -20 -20 -20 -20 -20 -20 -20
20 -1 27 22 -2 18 7 26 35 12 8 -4 -20 -20 -20 -2 -11 -4 -20 -20 -20 -20 -20 -20 -20 -20 -19 -16 -20 -20 -3 -13 -11 -1 -20 -20 -20 -20 -6 -20 -20 -20 -20 -20 -20
32 27 15 21 -2 13 8 23 28 5 -20 -20 -14 -20 -20 -20 -20 -2 -18 -20 -20 -20 -19 -20 4 -3 -20 -20 -20 -20 -20 -4 8 -20 6 -13 -20 8 -11 -20 -20 -20 -20 -20 -20
24 -5 20 24 27 17 18 12 26 -6 -4 -20 -20 -20 -20 -20 -18 -17 -18 -20 -20 -20 -20 -20 4 -19 -3 -18 -20 -20 -20 -8 10 17 6 10 -1 2 -11 4 -20 -20 -20 -20 -20
19 10 16 -14 21 0 -4 20 14 19 -11 -20 -20 -20 -20 -2 -20 -17 -20 -20 -20 -20 -20 -20 -7 -20 -20 -12 -20 -2 -20 -12 21 18 -16 -14 -11 -20 -20 -20 -16 1 -12 -20 -20
18 10 18 11 4 -4 -0 28 9 -15 1 -20 -20 -20 -20 -20 -20 -20 -20 -4 -20 -20 -20 -20 7 -20 -15 -20 -20 -20 -20 -3 29 22 19 1 -15 -20 -20 -20 -13 -17 -20 -13 -20
5 32 30 19 -20 27 10 33 5 -20 1 -20 -20 -20 -20 -20 -20 -20 -20 -20 -20 -20 -20 -18 -6 -0 -19 -20 -20 -20 -20 -20 -8 15 23 9 1 -20 -20 -20 9 15 3 -14 -6
15 16 14 -4 -13 10 -20 5 -2 -12 9 -20 -20 -20 -20 -20 -20 -20 -20 -20 -11 2 -0 6 3 7 -20 -20 -20 -13 -20 -12 17 11 17 -1 -20 -20 -20 2 24 17 25 16 12

GFSSW_prec_radar_048.txt.gz
Reflectivity
-20 -4 -4 3 3 7 13 11 -20 -20 -1 3 -20 -20 -20 -20 -14 4 -6 -10 -20 -20 -20 -20 -20 -20 -20 -20 -20 -20 -20 -20 -20 -20 -20 -20 -20 -20 -20 -20 -20 -20 -20 -20 -20
-20 -20 -11 13 11 12 6 14 -6 -20 -20 -13 -20 -20 -20 -20 -16 10 -20 -13 8 -16 -20 -20 -20 -20 -20 -20 -20 -20 -20 -20 -20 -20 -20 -20 -20 -20 -20 -20 -20 -20 -20 -20 -20
-20 -20 -20 -1 12 8 8 4 25 -20 -20 -20 -20 -20 -20 -20 -4 -20 -20 -20 -20 -20 -20 -20 -20 -20 -20 -20 -20 -20 -20 -20 -20 -20 -20 -20 -20 -20 -20 -20 -20 -20 -20 -20 -20
-20 -20 -20 -20 -20 -2 7 8 -7 23 -20 -20 -20 -20 -20 -20 -19 -20 -20 -20 -15 -5 -20 -10 -20 -20 -20 -20 -20 -20 -20 -20 -20 -20 -20 -20 -20 -20 -20 -20 -20 -20 -20 -20 -20
-20 -20 -20 -20 -0 -1 2 -3 7 9 -2 -20 -20 -20 -20 -13 -20 -20 -20 -20 6 25 -20 20 -20 -20 -9 -20 -20 -20 -20 -20 -20 -20 -20 -20 -20 -20 -20 -20 -20 -20 -20 -20 -20
-20 -20 -20 -20 -20 7 12 -12 5 -3 30 -7 -20 -20 -20 -20 -20 -20 -20 -20 -20 6 8 20 -11 -20 -5 -20 -20 -20 -20 -20 -20 -20 -20 -20 -20 -20 -20 -20 -20 -20 -20 -20 -20
-20 -20 -20 -20 -20 -20 12 12 11 9 28 27 -20 -20 -20 -20 -20 -20 -20 -20 -20 -20 21 27 -3 -20 -20 -20 -20 -20 -20 -20 -20 -20 -20 -20 -20 -20 -20 -20 -20 -20 -20 -20 -20
-20 -20 -20 -20 -20 -20 -18 10 -13 12 -7 30 12 -20 -6 -20 -20 -20 -20 -20 -20 -20 -20 -20 -20 -20 1 -1 -1 -20 -20 -20 -20 -20 -20 -20 -20 -20 -20 -20 -20 -20 -20 -20 -20
-5 7 -16 -20 -18 -0 -15 -1 -14 -6 8 34 26 1 -20 -20 -20 -20 -20 -20 -20 -20 -20 -19 -2 -20 -10 -17 -20 -20 -20 -20 -20 -20 -20 -20 -20 -20 -20 -20 -20 -20 -20 -20 -20
-13 0 14 -6 5 4 -6 9 -20 -19 11 38 30 7 -20 -20 -20 -20 -20 -20 -20 15 15 20 12 -20 -20 -20 -20 -20 -20 -20 -20 -20 -20 -20 -20 -20 -20 -20 -20 -20 -20 -20 -20
15 20 -2 -20 20 -20 -20 -20 -20 2 22 34 29 -19 -20 -20 -20 -20 -20 -20 -20 13 -19 -13 7 -20 -20 -20 -20 -20 -20 -20 -20 -20 -20 -20 -20 -20 -20 -20 -20 -20 -20 -20 -20
-3 -6 17 18 22 2 24 22 -17 26 27 36 25 -12 -20 -10 -20 -20 -20 -20 -20 -20 -15 -20 -16 -20 -20 -20 -20 -20 -20 -20 -20 -20 -20 -20 -20 -20 -20 -20 -20 -20 -20 -20 -20
-4 -11 19 23 -3 -20 -12 -12 -10 32 27 30 34 -12 -20 -20 -20 -20 -20 -20 -20 -18 -20 -20 -20 -20 -20 -20 -20 -20 -20 -20 -20 -20 -20 -20 -20 -20 -20 -20 -20 -20 -20 -20 -20
9 -16 9 23 13 2 15 29 -11 28 24 29 36 28 -20 -20 -20 -20 -20 -20 -20 -19 -20 -20 -20 -20 -20 -20 -20 -20 -20 -20 -20 -20 -20 -20 -20 -20 -20 -20 -20 -20 -20 -20 -20
10 6 8 23 2 -9 22 25 -2 29 23 21 32 26 -20 -20 -20 -20 -20 -20 -1 -15 -20 -20 -20 -20 -20 -20 -20 -20 -20 -20 -20 -20 -20 -20 -20 -20 -20 -20 -20 -20 -20 -20 -20
8 -6 7 -5 12 -4 -11 23 26 17 21 33 34 24 1 9 -16 -20 -20 -20 -20 -20 -5 -20 -20 -20 -20 -20 -20 -20 -20 -20 -20 -20 -20 -20 -20 -20 -20 -20 -20 -20 -20 -20 -20
-20 -2 24 20 29 14 3 4 12 23 37 26 28 5 -16 8 8 -20 -7 -20 -20 -20 -20 -20 -20 -20 -20 -20 -20 -20 -19 -20 -13 -1 -20 -20 -20 -20 -20 -20 -20 -20 -20 -20 -20
16 0 -11 21 21 -12 26 13 15 18 35 21 4 5 5 -16 10 6 9 -5 -13 -20 -20 -19 -20 -20 -20 -20 -20 -9 -2 -20 -20 -20 -20 -20 -20 -20 -20 -20 -20 -20 -20 -20 -20
10 3 20 3 13 -8 -7 -6 -6 35 25 31 12 12 8 -20 -10 6 -1 -2 -20 -20 -20 -19 -20 -20 -20 -20 -20 -1 -2 -20 -20 -20 -20 -20 -20 -20 -20 -20 -20 -20 -20 -20 -20
-0 12 11 9 2 7 12 -3 15 33 30 5 8 4 0 7 0 2 8 -20 -20 -20 -20 -20 -16 -20 -20 -20 -20 -20 -20 -20 -8 -20 -20 -20 -20 -20 -20 -20 -20 -20 -20 -20 -20
17 27 19 -7 22 12 9 17 14 25 22 17 -19 -10 -19 5 -5 -13 -20 -20 -20 -20 -20 -20 -20 -20 -19 -20 -20 -20 -7 -20 -19 -20 -20 -20 -20 -20 -20 -20 -20 -20 -20 -20 -20
9 35 16 17 -10 7 10 22 36 33 2 -20 -20 -20 -20 -20 -20 -20 -20 -20 -20 -20 -20 -20 -20 -3 -20 -20 -20 -20 -20 -20 -20 -20 -20 -20 -20 -20 -20 -20 -20 -20 -20 -20 -20
2 9 19 22 -6 3 10 27 34 30 -8 6 -4 -20 -20 -20 -20 -17 -20 -20 -20 -20 -20 -13 -12 -20 -20 -20 -20 -20 -20 -20 -20 -20 -20 -11 -20 -20 -20 -20 -15 -2 -20 -20 -20
-13 3 11 20 13 17 23 33 28 17 5 -20 -20 -20 -20 -20 -20 -13 -20 -20 -20 -20 7 -20 -20 -20 -20 -20 -17 -20 -20 -20 -18 4 -14 -20 -20 -20 -20 -20 -20 -20 -20 -17 -18
-18 3 -1 -17 10 2 15 33 15 12 -20 -20 -4 -20 -20 -20 -15 -20 -20 -20 -20 -20 -20 -19 -17 -20 -20 -20 -20 -20 -20 -20 -18 -20 10 -17 -20 -20 -20 -20 -20 -20 1 24 25
0 34 7 8 26 16 20 32 24 7 -10 -20 -12 6 -20 -17 -20 -20 -20 -20 -20 -20 -8 -20 -20 -20 -20 -20 -20 -20 -20 -20 -20 11 24 5 -3 -20 -20 -20 -18 -17 5 27 20
-10 -0 6 -8 10 13 24 20 -9 -20 -20 -19 -20 -20 -20 -20 -20 -20 -20 -20 -20 -20 -20 3 -13 -16 -20 -20 -20 -19 -20 -20 -20 -20 -4 8 -19 -20 -20 -12 -12 -19 -3 0 11

GFSSW_prec_radar_051.txt.gz
Reflectivity
-20 -20 -20 -20 -8 10 -1 -2 6 25 -20 -20 -20 -20 -20 -20 -20 -9 -18 -20 -20 -20 -20 -20 -20 -20 -20 -20 -20 -20 -20 -20 -20 -20 -20 -20 -20 -20 -20 -20 -20 -20 -20 -20 -20
-20 -20 -20 -20 -20 -17 10 15 1 -0 7 -20 -20 -20 -20 -20 -20 -14 -20 -20 -20 -2 14 -20 -20 -20 -20 -20 -20 -20 -20 -20 -20 -20 -20 -20 -20 -20 -20 -20 -20 -20 -20 -20 -20
-20 -7 -20 -20 -20 -20 -20 8 11 -11 27 -20 -20 -20 -20 -20 -13 -20 -20 -20 -20 21 -20 -20 -20 -20 -20 -20 -20 -20 -20 -20 -20 -20 -20 -20 -20 -20 -20 -20 -20 -20 -20 -20 -20
6 -16 -20 -16 -20 -11 -20 10 -14 5 -20 29 -20 -20 -20 -20 -20 -20 -20 -20 -19 -15 13 -20 -20 10 -20 -20 -20 -20 -20 -20 -20 -20 -20 -20 -20 -20 -20 -20 -20 -20 -20 -20 -20
4 12 1 1 -6 -20 -20 6 17 12 -19 22 3 -20 -20 -19 -13 -20 -20 -17 -8 17 6 -20 2 -8 -20 -20 -20 -20 -20 -20 -20 -20 -20 -20 -20 -20 -20 -20 -20 -20 -20 -20 -20
-6 -4 -16 -19 -20 -20 -20 -11 -17 -10 -0 -3 29 -20 -18 -20 -20 -20 -18 -20 -9 15 -9 21 -1 -20 -20 -20 -20 -20 -20 -20 -20 -20 -20 -20 -20 -20 -20 -20 -20 -20 -20 -20 -20
2 7 18 -18 -20 -19 3 -20 -20 -20 -19 6 32 21 -7 -20 -20 -20 -20 -20 -20 -18 26 -20 -1 -20 -20 -20 -20 -20 -20 -20 -20 -20 -20 -20 -20 -20 -20 -20 -20 -20 -20 -20 -20
12 -2 17 10 -20 -20 -20 4 9 -20 -20 12 24 10 -15 -20 -20 -20 -20 -20 -20 -20 -20 14 25 16 -20 -20 -20 -20 -20 -20 -20 -20 -20 -20 -20 -20 -20 -20 -20 -20 -20 -20 -20
-9 -3 -1 -10 13 13 -17 -4 1 -20 -20 16 27 27 -6 -20 -20 -9 -10 -20 -20 -20 -20 6 -9 18 -8 -20 -19 -20 -20 -20 -20 -20 -20 -20 -20 -20 -20 -20 -20 -20 -20 -20 -20
-9 -5 17 10 -5 -10 7 18 -20 -14 -20 -3 28 33 8 -20 -20 -20 -19 -20 -20 -15 14 -12 8 -16 -20 -10 -6 -20 -20 -20 -20 -20 -20 -20 -20 -20 -20 -20 -20 -20 -20 -20 -20
-13 9 18 18 -9 -0 13 -20 -20 -7 8 16 35 4 -20 -20 -20 -20 -20 -20 8 -15 -20 4 -20 -3 -17 -20 -20 -20 -20 -20 -20 -20 -20 -20 -20 -20 -20 -20 -20 -20 -20 -20 -20
18 -10 17 16 -20 -20 5 -20 -13 14 -4 -18 39 -4 -15 -20 -20 -20 -20 -20 5 1 -20 9 -9 -20 -20 -20 -20 -20 -20 -20 -20 -20 -20 -20 -20 -20 -20 -20 -20 -20 -20 -20 -20
6 -20 -7 15 -20 -9 3 20 18 -20 3 -14 30 31 -2 -20 -20 -20 -20 -20 -20 -20 -20 -7 -18 -20 -20 -20 -20 -20 -20 -20 -20 -20 -20 -20 -20 -20 -20 -20 -20 -20 -20 -20 -20
15 -10 13 12 -20 -20 -20 33 23 -4 10 14 25 40 25 2 -20 -20 -20 -20 -20 -20 -20 -20 -20 -20 -20 -20 -20 -20 -20 -20 -20 -20 -20 -20 -20 -20 -20 -20 -20 -20 -20 -20 -20
9 -20 11 22 -15 -2 18 19 -20 -6 6 12 31 33 10 -20 -20 -11 -20 -20 -20 -20 -20 -20 -20 -20 -20 -20 -20 -20 -20 -20 -20 -20 -20 -20 -20 -20 -20 -20 -20 -20 -20 -20 -20
3 -2 15 6 9 37 17 30 -3 -13 10 35 27 33 11 -20 -20 -20 -20 -20 -20 -20 -20 -20 -20 -20 -20 -20 -20 -20 -20 -20 -20 -20 -20 -20 -20 -20 -20 -20 -20 -20 -20 -20 -20
-20 -13 16 23 17 19 -17 -20 -20 -9 31 22 36 -4 -4 9 -9 -20 -16 -20 -20 -10 -20 -20 -20 -20 -20 -20 -20 -20 -20 -20 -19 -20 -20 -20 -20 -20 -20 -20 -20 -20 -20 -20 -20
-20 16 -20 -19 26 -20 -2 5 -15 8 10 27 28 7 20 -17 -6 5 -20 -20 -20 -20 -20 -20 -20 -20 -20 -20 -20 -20 -20 -20 -20 -20 -20 -20 -20 -20 -20 -20 -20 -20 -20 -20 -20
-20 -17 -20 -15 12 -20 13 11 6 19 31 33 21 23 29 5 -1 -7 -20 -20 -20 -20 -20 -20 -20 -20 -20 -20 -20 -20 -20 -20 -20 -20 -20 -20 -20 -20 -20 -20 -20 -20 -20 -20 -20
6 -11 3 6 -2 -4 18 12 12 23 35 27 25 10 -17 -20 -4 2 -6 -20 -20 -20 -20 -20 -20 -20 -20 -20 -20 -20 -20 -20 -20 -20 -20 -20 -20 -20 -20 -20 -20 -20 -20 -20 -20
-16 -8 18 -20 -20 -10 6 7 20 34 30 27 -13 -14 -20 -12 -7 -5 -20 -20 -20 -20 -20 -20 -20 -20 -19 -16 -20 -20 -13 -20 -20 -20 -20 -20 -20 -20 -20 -20 -20 -20 -20 -20 -20
-8 -15 -9 9 -10 12 13 19 34 34 28 13 -20 -20 -20 -2 -20 -15 -20 -20 -20 -20 -20 -20 -20 -20 -20 -20 -20 -20 -20 -20 -20 -20 -20 -20 -20 -20 -20 -20 -20 -20 -20 -20 -20
-0 -20 -11 -20 1 7 16 32 31 7 7 8 -20 -20 -20 -20 -12 -18 -20 -20 -20 -17 -20 -20 -20 -20 -20 -20 -20 -20 -20 -20 -20 -20 -20 -20 -20 -20 -20 -20 -20 -20 -20 -20 -20
-20 -9 -20 -20 -17 25 23 34 33 10 18 -20 -16 -20 -20 4 -20 -7 -20 -20 -20 -20 -4 -20 -20 -20 -20 -20 -20 -20 -20 -20 -20 -14 -20 -20 -20 -20 -20 -20 -20 -20 -20 -20 -20
-20 -15 -10 -10 14 17 26 25 7 0 1 -4 -7 -18 -8 4 -1 -20 -20 -20 -20 -7 -8 -20 -20 -20 -20 -20 -20 -20 -20 -20 -20 -20 -20 -20 -20 -20 -20 -20 -20 -20 -17 3 23
-10 -1 -12 18 -13 11 34 24 12 -9 -20 -4 -20 -8 -18 -20 -20 -20 -20 -20 -20 -20 -20 -20 -20 -20 -20 -20 -20 -20 -20 -20 -20 -20 -20 -20 -20 -12 -1 10 -1 -8 14 -7 12
-20 -20 -2 8 27 31 33 22 -15 -20 -20 -15 -17 -20 -20 -20 -20 -20 -20 -20 -20 -20 -20 -20 -20 -20 -20 -20 -20 -20 -20 -20 -20 -20 -20 -9 -18 -5 -12 -7 1 -2 -20 -12 1

GFSSW_prec_radar_054.txt.gz
Reflectivity
5 11 -18 -20 -20 -20 -20 -20 14 -19 -17 27 -19 -20 -20 -18 3 -20 -18 -20 -20 -20 -20 -20 -20 -20 -20 -20 -20 -20 -20 -20 -20 -20 -20 -20 -20 -20 -20 -20 -20 -20 -20 -20 -20
9 13 -20 -11 -5 -20 -20 -20 4 9 2 -11 26 -20 -20 -3 8 -7 -20 -20 -20 -20 16 -20 -20 -20 -20 -20 -20 -20 -20 -20 -20 -20 -20 -20 -20 -20 -20 -20 -20 -20 -20 -20 -20
-20 -20 -17 7 -20 6 2 -20 2 9 -20 -4 22 24 -20 -20 -12 -17 -20 -20 -20 -3 -20 5 -20 -20 -20 -20 -20 -20 -20 -20 -20 -20 -20 -20 -20 -20 -20 -20 -20 -20 -20 -20 -20
5 6 -7 -7 1 -20 -20 -20 -19 -17 10 -20 -14 29 -17 -20 -20 -20 -20 -20 -20 -12 -16 -20 -20 1 -20 -20 -20 -20 -20 -20 -20 -20 -20 -20 -20 -20 -20 -20 -20 -20 -20 -20 -20
15 6 6 -20 -0 -20 -20 -6 -20 -20 -17 -12 7 31 18 -20 -11 -20 -20 -20 -16 14 -20 -20 -20 -20 -20 -20 -20 -20 -20 -20 -20 -20 -20 -20 -20 -20 -20 -20 -20 -20 -20 -20 -20
9 -2 -9 1 -18 -20 2 -20 -10 -20 -20 -19 4 23 20 -20 -12 -12 -20 20 -20 -3 -6 -20 -20 -20 -20 -20 -20 -20 -20 -20 -20 -20 -20 -20 -20 -20 -20 -20 -20 -20 -20 -20 -20
-20 5 -8 -19 17 -14 -4 7 -20 -20 -20 -20 0 20 27 -18 -20 -20 -2 -19 22 22 -20 -20 -20 -18 -20 -20 -20 -20 -20 -20 -20 -20 -20 -20 -20 -20 -20 -20 -20 -20 -20 -20 -20
-9 3 12 16 -7 18 -20 20 -20 7 -20 -20 -12 28 28 -17 -20 -20 2 -20 -20 12 15 15 -4 -1 -20 -20 -20 -20 -20 -20 -20 -20 -20 -20 -20 -20 -20 -20 -20 -20 -20 -20 -20
-9 17 17 17 -3 -9 -10 7 -4 -20 -20 -19 8 15 4 9 -12 -20 -6 -9 -20 -20 -20 25 22 27 -2 -17 -20 -20 -20 -20 -20 -20 -20 -20 -20 -20 -20 -20 -20 -20 -20 -20 -20
4 -1 6 -16 2 -3 14 -20 -20 -20 -20 -20 8 15 28 -20 -20 -20 -20 -8 -20 14 7 22 29 26 33 18 -13 -20 -20 -20 -20 -20 -20 -20 -20 -20 -20 -20 -20 -20 -20 -20 -20
-4 7 15 -6 1 13 -10 -20 -20 1 -1 -20 -20 7 -1 -16 -20 -20 -20 -20 8 23 4 14 -12 19 -1 -0 -20 -20 -20 -20 -20 -20 -20 -20 -20 -20 -20 -20 -20 -20 -20 -20 -20
16 -6 -8 -13 -16 -14 10 -20 -7 11 -2 -20 9 -0 24 -20 -20 -20 -20 -20 2 -16 -20 -20 5 -20 -20 -20 -20 -20 -20 -20 -20 -20 -20 -20 -20 -20 -20 -20 -20 -20 -20 -20 -20
15 7 -7 4 -20 -20 -20 -20 34 -4 12 -20 -20 16 16 -14 -19 -20 -20 -18 -10 -13 -20 -19 -20 -20 -20 -20 -20 -20 -20 -20 -20 -20 -20 -20 -20 -20 -20 -20 -20 -20 -20 -20 -20
13 6 -13 4 -20 -20 -20 -13 16 4 17 -18 18 33 32 -20 13 -20 -20 -19 5 10 -20 -10 -20 -20 -20 -20 -20 -20 -20 -20 -20 -20 -20 -20 -20 -20 -20 -20 -20 -20 -20 -20 -20
11 8 6 21 2 -3 19 -18 16 19 -8 -6 13 31 31 -0 -17 -9 -20 -20 -20 8 -20 16 -1 -20 -20 -20 -20 -20 -20 -20 -20 -20 -20 -20 -20 -20 -20 -20 -20 -20 -20 -20 -20
-20 -19 16 7 5 21 -13 6 16 -13 -11 25 29 38 21 -4 -20 9 -10 -20 -20 -20 -20 -20 -20 -20 -20 -20 -20 -20 -20 -20 -20 -20 -20 -20 -20 -20 -20 -20 -20 -20 -20 -20 -20
-20 -7 19 11 7 -5 -20 12 -15 5 9 32 22 34 8 8 -14 -3 -7 -20 -8 11 -5 -20 -20 -20 -20 -20 -20 -20 -20 -20 -20 -20 -20 -20 -20 -20 -20 -20 -20 -20 -20 -20 -20
16 20 -10 -20 19 -8 -10 21 5 15 22 37 35 13 -0 9 6 2 -18 -20 -20 -20 -20 -20 -20 -20 -20 -20 -20 -20 -20 -20 -20 -20 -20 -20 -20 -20 -20 -20 -20 -20 -20 -20 -20
-17 -20 -20 16 1 -13 -20 -4 17 20 27 39 27 23 19 7 5 -2 -19 -20 -20 -20 -20 -20 -20 -20 -20 -20 -20 -20 -20 -20 -20 -20 -20 -20 -20 -20 -20 -20 -20 -20 -20 -20 -20
-20 -20 5 -3 -20 -20 1 15 12 28 36 23 24 4 -5 -12 -5 4 -15 -20 -20 -20 -20 -20 -20 -20 -20 -20 -20 -20 -20 -20 -20 -20 -20 -20 -20 -20 -20 -20 -20 -20 -20 -20 -20
-20 -16 2 -20 -12 -10 11 21 16 21 30 27 -20 -18 -20 -20 -20 -13 -20 -20 -20 -20 -20 -20 -20 -11 -4 -6 -20 -9 -20 -20 -20 -20 -20 -20 -20 -20 -20 -20 -20 -20 -20 -20 -20
-20 -13 -20 -17 -19 6 13 23 23 23 14 1 -20 -20 -20 -20 -20 -20 -20 -20 -20 -20 -20 -20 -20 -20 -7 -20 -20 -20 -20 -20 -20 -20 -20 -20 -20 -20 -20 -20 -20 -20 -20 -20 -20
-20 -18 -20 -5 4 -7 15 31 21 3 -20 -20 -20 -20 -20 -20 -14 -20 -20 -20 -20 -20 -20 -20 -20 -20 -18 -20 -20 -20 -20 -20 -20 -20 -20 -20 -20 -20 -20 -20 -20 -20 -20 -20 -20
-20 -20 -20 -20 -20 22 38 32 10 -20 -20 -20 -20 -20 -20 -20 -20 -20 -20 -20 -20 -20 -20 -20 -20 -20 -20 -20 -20 -20 -20 -20 -20 -20 -20 -20 -20 -20 -20 -20 -16 -20 -20 -20 -20
-20 -11 -9 -7 -20 14 28 14 0 7 -20 -20 -20 -20 -20 -20 -20 -20 -20 -20 -18 -8 -20 -20 -20 -20 -20 -20 -20 -20 -20 -20 -20 -20 -20 -20 -20 -20 -20 -5 -9 -20 -20 -10 -20
-20 2 -15 15 -4 -15 -20 -20 -20 -11 -20 15 10 -20 -20 -20 -20 -20 -20 -20 -20 -20 -20 -20 -20 -20 -20 -20 -20 -20 -20 -20 -20 -20 -20 -20 -20 -20 -19 15 -19 -12 12 3 -20
1 1 -5 -20 -17 -17 -20 -20 -19 -20 -20 -20 -20 -20 -20 -20 -20 -20 -20 -20 -20 -20 -20 -20 -20 -20 -20 -20 -20 -20 -20 -20 -20 -20 -20 -20 -19 -20 -20 12 -15 -1 10 -17 -7

GFSSW_prec_radar_057.txt.gz
Reflectivity
7 11 4 7 -15 -20 -3 -18 -20 -20 -20 -19 1 20 18 5 1 3 -19 -20 -20 -20 12 -20 -12 -20 -20 -20 -20 -20 -20 -20 -20 -20 -20 -20 -20 -20 -20 -20 -20 -20 -20 -20 -20
-8 -20 9 -20 12 5 0 7 -16 -19 6 -20 11 6 23 14 -4 5 -20 -20 -20 -20 12 -20 -20 -20 -20 -20 -20 -20 -20 -20 -20 -20 -20 -20 -20 -20 -20 -20 -20 -20 -20 -20 -20
13 13 18 12 10 1 7 -20 -20 -18 -20 -20 -4 1 -6 23 -2 -20 3 -20 -20 -20 14 -20 -20 -20 -20 -20 -20 -20 -20 -20 -20 -20 -20 -20 -20 -20 -20 -20 -20 -20 -20 -20 -20
-16 11 -0 18 13 3 -6 -5 -10 -11 11 -20 -14 11 15 29 -20 -20 2 0 -20 -18 10 -16 -20 -20 -20 -20 -20 -20 -20 -20 -20 -20 -20 -20 -20 -20 -20 -20 -20 -20 -20 -20 -20
-20 6 -11 -11 -14 -20 3 -18 -20 2 6 -20 -20 11 11 19 -16 -20 -4 -8 -20 -2 -9 8 -20 -20 -20 -20 -20 -20 -20 -20 -20 -20 -20 -20 -20 -20 -20 -20 -20 -20 -20 -20 -20
17 18 5 -20 -18 -14 -9 -20 6 3 6 -20 -1 -11 14 21 -20 -20 -19 2 -20 11 10 2 -20 -20 -20 -20 -20 -20 -20 -20 -20 -20 -20 -20 -20 -20 -20 -20 -20 -20 -20 -20 -20
12 16 -4 -6 -10 -16 4 -20 20 21 4 -20 11 9 17 11 -20 -20 -20 -19 -16 -12 -1 0 -20 9 -20 -20 -20 -20 -20 -20 -20 -20 -20 -20 -20 -20 -20 -20 -20 -20 -20 -20 -20
-6 -7 12 1 -0 17 18 20 1 -20 6 8 10 20 8 11 4 -20 -20 -14 24 24 26 31 3 -3 -20 -20 -20 -20 -20 -20 -20 -20 -20 -20 -20 -20 -20 -20 -20 -20 -20 -20 -20
-7 16 15 16 9 6 -3 -4 -10 -20 25 -3 2 0 16 -19 -20 -20 -20 -20 3 21 28 27 25 23 -3 -20 -20 -20 -20 -20 -20 -20 -20 -20 -20 -20 -20 -20 -20 -20 -20 -20 -20
19 20 3 1 -4 5 -11 -20 -20 -20 -15 -20 15 6 11 -20 -20 -20 -20 -20 -13 1 21 30 20 29 15 7 -15 -20 -20 -20 -20 -20 -20 -20 -20 -20 -20 -20 -20 -20 -20 -20 -20
8 -10 -20 15 8 -17 -20 -20 -20 -20 1 -18 -20 -20 -15 -17 4 29 -20 -20 -13 23 10 19 24 16 38 -11 -13 -20 -20 -20 -20 -20 -20 -20 -20 -20 -20 -20 -20 -20 -20 -20 -20
12 17 13 6 4 1 -14 -20 -19 2 -11 -20 -20 -15 26 -19 -5 25 -20 -20 -3 11 5 16 37 37 14 35 31 -13 -20 -20 -20 -20 -20 -20 -20 -20 -20 -20 -20 -20 -20 -20 -20
15 -19 5 1 11 -20 -20 -20 10 10 13 -20 -20 -20 31 20 9 6 -20 -20 7 18 1 -17 -20 7 13 -10 14 -20 -20 -20 -20 -20 -20 -20 -20 -20 -20 -20 -20 -20 -20 -20 -20
-20 -1 -13 3 -16 -20 -20 -20 -10 11 20 -19 10 -20 25 25 18 2 -20 -18 4 22 22 -14 -20 -16 -16 -20 -20 -20 -20 -20 -20 -20 -20 -20 -20 -20 -20 -20 -20 -20 -20 -20 -20
-20 -20 -6 24 37 31 11 30 20 14 3 5 -20 -6 35 32 7 25 -20 -10 -19 -20 -20 -20 -20 -20 -20 -20 -20 -20 -20 -20 -20 -20 -20 -20 -20 -20 -20 -20 -20 -20 -20 -20 -20
-18 17 26 20 21 3 8 6 18 -2 19 3 -20 24 32 19 12 -2 -0 -6 8 -7 -18 -20 -20 -20 -20 -20 -20 -20 -20 -20 -20 -20 -20 -20 -20 -20 -20 -20 -20 -20 -20 -20 -20
28 19 -8 -20 -1 -14 5 3 -20 -3 7 -1 -4 38 25 -8 6 11 15 12 27 -6 4 -20 5 -20 -20 -20 -20 -20 -20 -20 -20 -20 -20 -20 -20 -20 -20 -20 -20 -20 -20 -20 -20
-20 -2 -20 -20 -14 -20 -20 -20 1 20 22 34 34 37 30 6 14 29 19 -10 -1 1 1 -20 -20 -20 -20 -20 -20 -20 -20 -20 -20 -20 -20 -20 -20 -20 -20 -20 -20 -20 -20 -20 -20
-20 -19 -19 -5 -20 -18 11 9 9 18 30 15 37 13 19 14 12 2 -20 -6 -20 -20 -15 -20 -20 -20 -20 -20 -20 -20 -20 -20 -20 -20 -20 -20 -20 -20 -20 -20 -20 -20 -20 -20 -20
-20 -20 -2 -9 -20 -20 -20 15 22 31 34 34 14 2 1 11 -9 -19 -3 -17 -20 -20 -20 -20 -20 -20 -20 -20 -20 -20 -20 -20 -20 -20 -20 -20 -20 -20 -20 -20 -20 -20 -20 -20 -20
-20 -20 -19 -20 -20 -20 15 23 38 35 16 -13 -20 -20 -20 -12 -12 -20 -20 -20 -20 -20 -20 -20 -20 -12 -20 -20 -20 -20 -20 -20 -20 -20 -20 -20 -20 -20 -20 -20 -20 -20 -20 -20 -20
-20 -20 -20 -20 -20 -16 11 30 16 -20 -20 -20 -20 -20 -20 -20 -20 -20 -20 -20 -20 -20 -20 -20 -20 6 4 -20 -20 -20 -20 -20 -20 -20 -20 -20 -20 -20 -20 -20 -20 -20 -20 -20 -20
-20 -20 -20 -20 -7 -8 -6 11 -18 -20 -20 -20 -20 -12 -3 -20 -20 -20 -20 -20 -20 -20 -20 -20 -20 -20 -20 -20 -20 -20 -20 -20 -20 -20 -20 -20 -20 -20 -20 -20 -20 -20 -20 -20 -20
-20 -20 -20 -20 -6 19 13 9 4 -20 -20 -20 -20 -20 -20 -20 -20 -20 -20 -20 -20 -20 -20 -20 -20 -20 -20 -20 -20 -20 -20 -20 -20 -20 -20 -20 -20 -20 -20 -20 -20 -20 -20 -20 -20
-20 -18 -8 -20 -16 -17 -11 2 -20 -20 -20 -20 -20 -20 -20 -20 -20 -20 -20 -20 -20 -20 -20 -20 -20 -20 -20 -20 -20 -20 -20 -20 -20 -20 -20 -20 -20 -20 -20 -20 -20 -20 -20 -15 -20
-20 -13 -20 -20 -20 -20 -20 -1 -8 -20 -20 -20 -20 -20 -20 -20 -20 -20 -20 -20 -20 -20 -20 -20 -20 -20 -20 -20 -20 -20 -20 -20 -20 -20 -20 -20 -20 -20 -20 -20 -14 -20 -20 -16 -20
-14 -7 -5 -20 -20 -20 -20 -20 -20 -20 -19 -20 -20 -20 -20 -20 -20 -20 -20 -20 -20 -20 -20 -20 -20 -20 -20 -20 -20 -20 -20 -20 -20 -20 -20 -20 -17 7 -17 -20 -18 -20 -20 -19 -17

GFSSW_prec_radar_060.txt.gz
Reflectivity
-17 17 14 13 8 -12 11 -12 5 12 -14 -20 -20 -20 -18 21 19 15 -18 -13 -20 -20 -20 -20 -20 15 -20 -20 -20 -20 -20 -20 -20 -20 -11 -20 -20 -20 -20 -20 -20 -20 -20 -20 -20
-20 -20 -0 15 3 12 18 16 12 -20 -3 -13 -20 -20 9 -5 8 1 -20 -6 -4 -20 -20 7 0 13 -20 -20 -20 -20 -20 -20 -20 -20 -11 -19 -20 -20 -20 -20 -20 -20 -20 -20 -20
8 -5 -9 17 -3 1 -7 -20 -19 -12 7 -20 -18 -18 6 17 5 1 -20 -11 -5 -20 -20 -20 -9 -20 -20 -20 -20 -20 -20 -20 -20 -20 -20 -20 -20 -20 -20 -20 -20 -20 -20 -20 -20
-3 -2 15 8 -7 -20 -18 -18 3 -11 -10 -18 -20 -20 3 15 -12 -20 -15 -20 -16 -13 5 15 10 13 9 -20 -20 -20 -20 -20 -20 -20 -20 -20 -20 -20 -20 -20 -20 -20 -20 -20 -20
18 8 -5 4 15 4 -1 -16 17 -4 -13 -4 1 -20 -20 19 0 -20 -20 -20 -20 -20 -2 9 6 10 -7 -15 -20 -20 -20 -20 -20 -20 -20 -20 -20 -20 -20 -20 -20 -20 -20 -20 -20
-17 7 -3 3 2 8 17 17 -4 -6 19 -20 22 -20 3 6 -20 -2 -20 -20 -4 -20 12 -6 13 -20 -20 -20 -20 -20 -20 -20 -20 -20 -20 -20 -20 -20 -20 -20 -20 -20 -20 -20 -20
13 -19 -20 -9 9 2 2 16 -2 9 -19 -8 -19 5 14 -17 -20 -20 -20 -20 2 -20 10 -14 -20 -18 -20 -20 -20 -20 -20 -20 -20 -20 -20 -20 -20 -20 -20 -20 -20 -20 -20 -20 -20
18 14 -11 20 -7 9 -20 9 1 -0 4 -6 -20 3 -4 -20 -20 -20 -20 -20 0 -20 26 -9 24 13 -20 -20 -20 -20 -20 -20 -20 -20 -20 -20 -20 -20 -20 -20 -20 -20 -20 -20 -20
17 -18 -7 3 2 3 -6 4 -11 -20 24 0 26 14 -6 -20 -20 -18 -20 -20 24 18 28 29 28 25 13 -20 -13 -20 -20 -20 -20 -20 -20 -20 -20 -20 -20 -20 -20 -20 -20 -20 -20
-5 19 -20 -13 10 -19 -2 -20 -20 -20 -16 20 23 20 -19 -1 -20 -2 18 -20 -14 22 26 25 26 17 16 -4 -20 -20 -20 -20 -20 -20 -20 -20 -20 -20 -20 -20 -20 -20 -20 -20 -20
18 -20 -7 -1 1 5 -14 -20 -20 -20 -4 -20 -20 -20 -20 -14 -20 19 18 -20 -1 24 23 10 42 20 -20 -7 -20 -20 -20 -20 -20 -20 -20 -20 -20 -20 -20 -20 -20 -20 -20 -20 -20
14 -16 1 8 15 15 -17 -20 -20 -20 10 -20 -20 -20 -16 23 -6 -13 27 -20 -17 -2 17 22 41 20 14 -6 -9 -20 -20 -20 -20 -20 -20 -20 -20 -20 -20 -20 -20 -20 -20 -20 -20
-18 13 -2 -19 11 -11 -20 -11 -20 -20 1 -12 -20 -20 16 20 14 24 15 -20 -1 12 22 22 38 28 26 30 11 -18 -20 -20 -20 -20 -20 -20 -20 -20 -20 -20 -20 -20 -20 -20 -20
-15 -9 4 16 28 -7 21 35 7 26 -8 -20 -12 22 10 12 36 -12 -13 -15 8 7 18 20 10 32 32 38 34 38 -2 -20 -20 -20 -20 -20 -20 -20 -20 -20 -20 -20 -20 -20 -20
19 22 23 25 20 38 34 6 23 12 -4 5 -1 21 26 26 13 31 2 -18 10 19 21 16 3 10 11 -14 7 19 -12 -20 -20 -20 -20 -20 -20 -20 -20 -20 -20 -20 -20 -20 -20
-7 -3 -20 -20 -20 8 -5 -1 14 -11 1 7 14 26 23 35 32 14 -14 -6 14 27 5 11 0 7 -12 -12 -18 -20 -20 -20 -20 -20 -20 -20 -20 -20 -20 -20 -20 -20 -20 -20 -20
-5 -20 -20 -20 -20 -15 -20 -16 9 14 14 11 22 19 33 22 29 15 16 16 -19 -9 22 -8 -10 -18 -4 -7 -16 -20 -20 -20 -20 -20 -20 -20 -20 -20 -20 -20 -20 -20 -20 -20 -20
-20 -20 -20 7 -10 -17 -20 -20 5 4 13 22 1 16 40 13 22 13 8 13 2 -20 -20 -20 -17 -20 -20 -20 -20 -20 -20 -20 -20 -20 -20 -20 -20 -20 -20 -20 -20 -20 -20 -20 -20
-20 -20 -13 -17 -20 -2 11 6 13 3 2 8 30 31 14 22 25 -10 -4 11 29 -20 -18 -20 -20 -20 -20 -20 -20 -20 -20 -20 -20 -20 -20 -20 -20 -20 -20 -20 -20 -20 -20 -20 -20
-20 -20 -20 -20 -20 -16 -7 14 17 25 9 11 31 -2 1 -12 20 33 -20 -20 -20 -20 -20 -20 -20 -20 -20 -20 -20 -20 -20 -20 -20 -20 -20 -20 -20 -20 -20 -20 -20 -20 -20 -20 -20
-20 -20 -20 -20 -20 -16 -2 8 25 7 7 -6 -20 -10 -4 -20 -18 -19 -20 -20 -20 -20 -20 -20 -20 -7 -20 -20 -20 -20 -20 -20 -20 -20 -20 -20 -20 -20 -20 -20 -20 -20 -20 -20 -20
-20 -20 -20 -20 -20 -14 -18 14 2 -20 -20 -20 -20 -20 -20 -20 -20 -20 -20 -20 -20 -20 -20 -20 -20 -3 -2 -20 -20 -20 -20 -20 -20 -20 -20 -20 -20 -20 -20 -20 -20 -20 -20 -20 -20
-20 -20 -20 -20 -7 -20 -20 -20 -20 -20 -20 -20 -20 -20 -20 -20 -20 -20 -20 -20 -20 -20 -20 -20 -20 -20 -15 -20 -20 -20 -20 -20 -20 -20 -20 -20 -20 -20 -20 -20 -20 -20 -20 -20 -20
-20 -20 -20 -11 -13 -2 8 -20 -20 -20 -20 -20 -20 -20 -20 -20 -20 -20 -20 -20 -20 -20 -20 -20 -20 -20 -20 -20 -20 -20 -20 -20 -20 -20 -20 -20 -20 -20 -20 -20 -20 -20 -20 -20 -20
-20 -20 -19 -20 -20 -20 -20 -20 -20 -20 -20 -20 -20 -20 -20 -20 -20 -20 -20 -20 -20 -20 -20 -20 -20 -20 -20 -20 -20 -20 -20 -20 -20 -20 -20 -20 -20 -20 -20 -20 -20 -20 -20 -20 -20
-20 -20 -20 -20 -20 -20 -20 -20 -20 -20 -20 -20 -20 -20 -20 -20 -20 -20 -20 -20 -20 -20 -20 -20 -20 -20 -20 -20 -20 -20 -20 -20 -20 -20 -20 -20 -20 -20 -20 -18 -20 -20 -20 -20 -20
-20 -20 -6 -20 -20 -20 -20 -20 -20 -20 -20 -20 -20 -20 -20 -20 -20 -20 -20 -20 -20 -20 -20 -20 -20 -20 -20 -20 -20 -20 -20 -20 -20 -20 -20 -20 -20 -14 -20 -20 -20 -20 -20 -20 -20

GFSSW_prec_radar_063.txt.gz
Reflectivity
17 -15 -10 -20 2 7 -3 9 -2 -1 6 6 -20 -20 -20 -3 14 -2 11 -20 -20 -20 -11 -20 -20 15 -20 -20 -20 -20 -20 -20 -20 -14 -16 -17 -20 -20 -20 -20 -20 -20 -20 -20 -20
5 10 -6 6 -15 15 -3 -20 -20 -20 -6 -3 -13 -20 -20 -20 -15 -20 8 -20 -20 -20 -20 -15 -20 -20 18 -20 -20 -20 -20 -20 -20 0 8 2 -14 -20 -20 -20 -20 -20 -20 -20 -20
15 -5 -5 15 -5 5 12 -18 -20 5 -18 17 2 7 -20 0 -14 -20 -20 -20 -20 -20 -20 -20 4 -20 0 -20 -20 -20 -20 -20 -20 -5 4 6 -3 -20 -20 -20 -20 -20 -20 -20 -7
-1 11 14 14 7 -4 -17 20 15 10 12 -18 -15 -4 8 3 9 -20 -20 -15 4 -12 1 8 18 12 9 -19 -20 -20 -20 -20 -20 -14 -5 -5 -15 -20 -20 -20 -20 -20 -20 -20 -20
-3 -10 16 14 -20 -20 -1 8 16 5 -4 8 -20 -18 11 -20 -4 -20 -8 1 -20 6 -20 9 7 11 10 -3 -20 -20 -20 -20 -20 -20 -18 -20 -20 -20 -20 -20 -20 -20 -20 -20 -20
-1 6 16 -19 -8 15 -14 -20 18 -0 20 15 1 18 22 4 -20 -20 20 -20 -20 12 -20 3 1 -20 1 -6 -16 -20 -20 -20 -20 -20 -20 -20 -20 -20 -20 -20 -20 -20 -20 -20 -20
3 -20 8 17 -3 -12 -4 -20 -18 -20 -19 -3 -6 23 21 -15 -20 -20 -0 -20 -20 -12 -20 -5 7 3 -20 -14 -10 -20 -20 -20 -20 -20 -20 -20 -20 -20 -20 -20 -20 -20 -20 -20 -20
-18 1 -15 -20 -20 -9 0 6 -0 2 8 4 -0 27 -16 -20 -20 -20 -20 -20 -20 -20 -20 -20 28 24 -20 -20 -20 -19 -16 -20 -20 -20 -20 -20 -20 -20 -20 -20 -20 -20 -20 -20 -20
-12 10 19 15 -1 -9 -6 7 -20 -20 -2 22 28 24 -4 -20 -20 -20 -20 -8 -7 -16 5 26 30 11 20 6 -16 -6 -20 -20 -20 -20 -20 -20 -20 -20 -20 -20 -20 -20 -20 -20 -20
7 15 13 0 9 6 -4 -3 -20 -20 -20 -20 3 3 -20 -20 -20 -0 -15 8 23 20 23 29 28 27 25 4 -18 -15 -20 -20 -20 -19 -20 -20 -20 -20 -20 -20 -20 -20 -20 -20 -20
-20 -20 -20 14 11 -1 -9 -20 -20 -20 -20 -20 -20 -20 -20 -20 -20 -20 14 16 -12 24 23 12 30 30 -17 -20 -20 -20 -20 -20 -20 -20 -20 -20 -20 -20 -20 -20 -20 -20 -20 -20 -20
-1 -11 -3 10 3 -7 -13 -20 -20 -20 -16 -20 -20 -20 -20 -20 -19 -12 23 15 17 28 19 18 28 3 -6 -2 -9 -20 -20 -20 -20 -20 -20 -20 -20 -20 -20 -20 -20 -20 -20 -20 -20
14 18 21 18 26 7 30 -7 18 13 8 -20 -20 -20 -20 -20 -1 -3 3 -4 -11 20 14 37 30 32 26 17 27 16 -20 -20 -20 -20 -20 -20 -20 -20 -20 -20 -20 -20 -20 -20 -20
12 6 -17 23 -17 -19 13 17 24 26 14 -20 -20 10 -20 -9 10 27 25 -1 14 19 16 38 26 36 41 28 19 -14 -10 -20 -20 -20 -20 -20 -20 -20 -20 -20 -20 -20 -20 -20 -20
12 -1 -8 -20 -20 -20 -16 -15 14 10 -2 -6 -19 -5 -14 25 23 17 8 19 11 6 27 28 29 32 31 38 26 32 19 -2 -20 -20 -20 -20 -20 -20 -20 -20 -20 -20 -20 -20 -20
13 -20 -7 -20 -9 -11 -18 -10 19 -20 -12 14 -17 16 30 35 19 34 21 -15 -20 -20 -2 13 30 36 14 26 26 28 16 -13 -20 -20 -20 -20 -20 -20 -20 -20 -20 -20 -20 -20 -20
-12 -20 -17 -6 21 5 21 2 -6 9 2 -20 -20 4 41 36 20 16 6 -14 -10 21 4 36 8 11 31 8 -3 -14 -11 -20 -20 -20 -20 -20 -20 -20 -20 -20 -20 -20 -20 -20 -20
-20 -20 -18 -18 -18 12 17 -17 -9 1 -1 15 15 4 24 25 32 4 15 29 12 -20 12 17 17 24 28 0 -19 -20 -20 -20 -20 -20 -20 -20 -20 -20 -20 -20 -20 -20 -20 -20 -20
-20 -20 -20 -20 -7 -4 -1 -20 0 10 7 8 19 27 25 30 24 0 16 -20 -20 23 23 -20 -19 -18 -20 -20 -20 -20 -20 -20 -20 -20 -20 -20 -20 -20 -20 -20 -20 -20 -20 -20 -20
-20 -20 -20 -20 -20 -20 -12 9 -5 -1 -9 -14 22 14 -5 26 0 -20 -20 15 -20 -20 -20 -20 -20 -18 -20 -19 -16 -20 -20 -20 -20 -20 -20 -20 -20 -20 -20 -20 -20 -20 -20 -20 -20
-20 -20 -20 -20 -20 -20 -7 -6 -8 -20 -20 -20 -20 -12 -12 -15 -20 -20 -20 -20 -14 -20 -20 -20 -20 -18 -20 -20 -20 -20 -20 -20 -20 -20 -20 -20 -20 -20 -20 -20 -20 -20 -20 -20 -20
-20 -20 -20 -20 -20 -18 -14 -6 1 -20 -20 -20 -20 -20 -20 -20 -20 -20 -20 -20 -20 -20 -20 -20 -20 -2 -20 -20 -20 -20 -20 -20 -20 -20 -20 -20 -20 -20 -20 -20 -20 -20 -20 -20 -20
-20 -20 -20 -20 -20 -20 -20 -20 -20 -20 -20 -20 -20 -20 -20 -20 -20 -20 -20 -20 -20 -20 -20 -20 -20 -8 -5 -20 -20 -20 -20 -20 -20 -20 -20 -20 -20 -20 -20 -20 -20 -20 -20 -20 -20
-20 -20 -20 -20 -20 -20 -20 -20 -20 -20 -20 -20 -20 -20 -20 -20 -20 -20 -20 -20 -20 -20 -20 -20 -20 -20 -20 -20 -20 -20 -20 -20 -20 -20 -20 -20 -20 -20 -20 -20 -20 -20 -20 -20 -20
-20 -20 -20 -20 -20 -20 -20 -20 -20 -20 -20 -20 -20 -20 -20 -20 -20 -20 -20 -20 -20 -20 -20 -20 -20 -20 -20 -20 -20 -20 -20 -20 -20 -20 -20 -20 -20 -20 -20 -20 -20 -20 -20 -20 -20
-20 -20 -20 -20 -20 -20 -20 -20 -20 -20 -20 -20 -20 -20 -20 -20 -20 -20 -20 -20 -20 -20 -20 -20 -20 -20 -20 -20 -20 -20 -20 -20 -20 -20 -20 -20 -20 -20 -20 -18 -20 -20 -20 -20 -20
-20 -20 2 -20 -20 -20 -20 -20 -20 -20 -20 -20 -20 -20 -20 -20 -20 -20 -20 -20 -20 -20 -20 -20 -20 -20 -20 -20 -20 -20 -20 -20 -20 -20 -20 -20 -20 -20 -20 -20 -20 -20 -20 -20 -20

GFSSW_prec_radar_066.txt.gz
Reflectivity
-17 18 5 12 11 -17 -13 -8 -7 -20 -11 7 -12 -20 -20 -20 -20 -10 -20 -5 -20 -20 -9 -20 -20 -20 11 -20 -20 -20 -20 -20 -20 -20 -9 -20 -20 -20 -20 -20 -20 -20 -20 -20 -20
1 7 6 -20 5 8 16 2 -3 -20 -17 -8 -5 5 12 -20 -20 -20 -20 -20 -20 -20 -20 -2 -20 -11 25 -20 -20 -20 -20 -20 -20 -20 -6 3 -20 -20 -20 -20 -20 -20 -20 -20 -20
5 -4 -13 1 14 10 -15 -8 1 -20 -14 -2 -20 8 11 -20 -20 -20 -20 -20 -13 -11 -20 -15 -12 -18 25 12 -20 -20 -20 -20 -20 2 -3 8 -5 -20 -20 -20 -20 -20 -20 -20 -20
7 7 -8 -12 -20 -20 -20 -20 -15 6 15 -5 4 -15 22 16 -20 12 -16 -20 -0 25 12 3 9 9 10 -9 -17 -20 -20 -20 -20 -7 3 2 3 -20 -20 -20 -20 -20 -20 -20 -20
-10 3 -12 -8 -11 -20 -3 -20 -20 4 -8 -13 1 -3 5 10 -3 -7 10 -6 -9 21 22 3 3 11 7 -5 11 -20 -20 -20 -20 -20 -10 0 1 -20 -20 -20 -20 -20 -20 -20 -20
-12 5 -20 -16 -11 -9 -16 -20 -20 -11 14 7 -20 -1 3 8 -20 -20 9 -12 -14 -6 23 -20 -7 -0 10 9 -16 -19 -8 -20 -20 -20 -20 -5 -8 -20 -20 -20 -20 -20 -20 -20 -20
-6 -1 14 16 12 -1 2 -20 -20 12 -20 15 11 1 10 -20 -20 -20 6 21 -9 -7 16 -20 17 8 -18 11 -7 3 -20 -15 -20 -20 -20 -20 -19 -20 -20 -20 -20 -20 -20 -20 -20
15 13 19 -18 19 -16 13 -2 18 16 7 18 19 14 -16 -20 -20 -20 -16 2 23 -20 22 -20 22 8 5 -20 12 13 8 4 -20 -9 -14 -20 -20 -20 -20 -20 -20 -20 -20 -20 -20
12 -17 -9 10 -1 -14 4 18 11 -3 0 23 22 -5 -18 -20 -20 -20 -20 2 -8 -1 20 -17 26 26 27 5 15 13 -20 -20 -20 -19 -10 -20 -20 -20 -20 -20 -20 -20 -20 -20 -20
-17 15 13 16 -20 21 11 -13 -20 -20 -20 -5 10 11 -20 -20 -20 -14 -20 26 13 27 24 20 4 26 24 20 -11 -14 -20 -20 -20 -6 -20 -20 -20 -20 -20 -20 -20 -20 -20 -20 -20
-19 19 23 19 23 14 20 14 -20 -20 1 -20 -20 -20 -20 -20 -20 -20 -0 3 -1 27 17 10 15 38 26 3 -20 -20 -20 -20 -20 2 -20 -20 -20 -20 -20 -20 -20 -20 -20 -20 -20
23 10 6 8 -6 -8 -1 14 -16 -20 -20 -20 -20 -20 -20 -20 -20 14 -20 2 16 22 7 14 7 18 14 17 -4 -20 -20 -20 -20 -3 -13 -20 -20 -20 -20 -20 -20 -20 -20 -20 -20
14 17 4 -17 -9 -12 11 32 25 13 -5 -20 -20 -20 -20 -20 1 29 -19 10 22 21 4 -6 -5 -7 28 26 -16 6 -20 -20 -20 -20 -20 -20 -20 -20 -20 -20 -20 -20 -20 -20 -20
13 3 -18 7 -1 -18 8 10 16 -7 12 -5 4 7 -20 12 26 34 26 19 -7 37 6 -13 7 5 8 33 -1 -10 -20 -20 -20 -20 -20 -20 -20 -20 -20 -20 -20 -20 -20 -20 -20
11 -4 -20 -20 -19 -18 8 10 -3 11 20 18 17 -3 -15 7 5 15 26 -10 18 44 12 32 21 33 31 17 -2 14 -7 -20 -20 -20 -20 -20 -20 -20 -20 -20 -20 -20 -20 -20 -20
15 -6 -20 -20 -20 10 -20 18 16 -11 13 3 -5 19 -4 -16 9 37 28 -20 4 21 33 37 37 32 29 31 5 29 -20 -20 -20 -20 -20 -20 -20 -20 -20 -20 -20 -20 -20 -20 -20
-6 -20 -20 -20 -19 -20 14 10 7 12 -11 -10 9 30 29 29 29 29 19 4 5 21 35 33 28 33 20 31 37 36 24 9 -19 -20 -20 -20 -20 -20 -20 -20 -20 -20 -20 -20 -20
-20 -20 -20 -20 -20 -17 -1 -17 -16 11 8 19 22 4 11 15 16 27 15 -4 -20 -20 -19 23 18 15 41 26 2 -3 -8 -15 -20 -20 -20 -20 -20 -20 -20 -20 -20 -20 -20 -20 -20
-20 -20 -20 -20 -20 -18 11 -20 13 4 9 21 31 29 26 6 27 -20 -8 -15 -20 -20 -20 6 20 31 23 13 -6 -20 5 -20 -20 -20 -20 -20 -20 -20 -20 -20 -20 -20 -20 -20 -20
-20 -20 -20 -20 -20 5 -9 -20 -2 -16 -9 -20 -4 -16 -4 -9 -17 -17 -5 -20 -20 -10 1 18 -9 -8 -20 18 -12 -20 -20 -20 -20 -20 -20 -20 -20 -20 -20 -20 -20 -20 -20 -20 -20
-20 -20 -20 -20 -20 -20 -18 -1 -6 3 -20 0 -20 -15 -12 -20 -20 -20 -20 -20 -20 -20 -20 -20 -20 5 -19 -20 -20 -20 -20 -20 -20 -20 -20 -20 -20 -20 -20 -20 -20 -20 -20 -20 -20
-20 -20 -20 -20 -20 -13 0 -19 -20 -20 -20 -20 -20 -20 -20 -20 -20 -20 -20 -20 -20 -20 -20 -20 -20 3 4 -20 -20 -20 -20 -20 -20 -20 -20 -20 -20 -20 -20 -20 -20 -20 -20 -20 -20
-20 -20 -20 -20 -20 -20 -20 -20 -20 -20 -20 -20 -20 -20 -20 -20 -20 -20 -20 -20 -20 -20 -20 -20 -20 -17 -15 -20 -20 -20 -20 -20 -20 -20 -20 -20 -20 -20 -20 -20 -20 -20 -20 -20 -20
-20 -20 -20 -20 -20 -14 -16 -20 -20 -20 -20 -20 -20 -20 -20 -20 -20 -20 -20 -20 -20 -20 -20 -20 -20 -20 -20 -20 -20 -20 -20 -20 -20 -20 -20 -20 -20 -20 -20 -20 -20 -20 -20 -20 -20
-20 -20 -14 -20 -20 -20 -20 -20 -20 -20 -20 -20 -20 -20 -20 -20 -20 -20 -20 -20 -20 -20 -20 -20 -20 -20 -20 -20 -20 -20 -20 -20 -20 -20 -20 -20 -20 -20 -20 -20 -20 -20 -20 -20 -20
-20 -4 -20 -20 -20 -20 -20 -20 -20 -20 -20 -20 -20 -20 -20 -20 -20 -20 -20 -20 -20 -20 -20 -20 -20 -20 -20 -20 -20 -20 -20 -20 -20 -20 -20 -20 -20 -20 -20 -20 -20 -20 -20 -20 -20
-20 -4 2 -20 -20 -20 -20 -20 -20 -20 -20 -20 -20 -20 -20 -20 -20 -20 -20 -20 -20 -20 -20 -20 -20 -20 -20 -20 -20 -20 -20 -20 -20 -20 -20 -20 -20 -20 -20 -20 -20 -20 -20 -20 -20

GFSSW_prec_radar_069.txt.gz
Reflectivity
7 -8 -14 7 -2 -5 -4 17 -1 -13 20 21 7 15 15 4 -20 -20 -20 -11 -20 -20 -20 -20 -20 -20 4 -5 -20 -20 -20 -20 -20 -20 -18 -12 -20 -20 -20 -20 -20 -20 -20 -20 -20
18 20 -8 -9 6 -7 -20 -20 -20 -20 -15 11 21 8 -5 -16 5 -20 -20 -20 -20 -4 -20 -17 -17 14 17 -20 -20 -20 -20 -20 -20 -16 5 1 -19 -20 -20 -20 -20 -20 -20 -20 -20
19 12 -8 2 1 19 16 -20 -6 -20 -20 -19 12 -12 9 -14 11 -20 -20 -20 -20 9 -20 -20 -20 -15 15 23 -20 -20 -20 -20 -20 -3 -18 2 -5 -16 -20 -20 -20 -20 -20 -20 -20
11 8 -10 13 -20 6 14 13 -17 -7 -19 -13 20 22 -16 17 0 9 -20 -20 -20 -8 24 -18 -20 13 11 11 -11 -20 -20 -8 -20 -20 -12 10 13 13 -20 -20 -20 -20 -20 -20 -20
-6 -3 2 2 -3 19 -4 9 -2 -8 1 23 -8 9 8 12 -13 -20 -15 11 -17 -6 26 15 -20 -5 5 -5 12 -18 -20 -20 -17 -20 -20 13 10 10 -20 -20 -20 -20 -20 -20 -20
-3 20 -3 -13 18 -18 -9 -8 -2 -16 9 21 1 18 -8 -5 -20 -20 4 -12 -19 8 4 17 -20 -20 -12 15 17 -16 -20 -20 -20 -20 -0 -4 -5 -6 -20 -20 -20 -20 -20 -20 -20
12 -5 -9 -1 4 -20 -8 -16 24 3 -20 -11 -5 18 10 -20 -20 -20 -20 14 -4 -20 -19 11 -20 -20 -18 8 -8 -18 6 -10 -20 -20 2 -19 -20 -20 -20 -20 -20 -20 -20 -20 -20
4 -9 -20 -8 -20 -2 10 -15 -4 -15 -5 -9 -10 24 1 -20 -20 -20 -20 22 10 16 -6 15 -20 -12 -18 -20 -17 14 0 3 -13 -20 -4 6 -8 -20 -4 -11 -20 -20 -20 -20 -20
-19 -14 3 17 22 22 19 -20 5 -19 7 16 25 23 -10 -20 -20 -20 -20 -19 17 -4 -20 -8 25 -0 -1 31 22 18 -4 -10 -20 -20 -6 3 -7 -2 -20 -20 -20 -20 -20 -20 -20
-20 3 19 19 18 18 9 22 -20 -20 -13 12 20 23 -20 -20 -20 -20 -20 -14 17 23 4 19 41 -1 20 17 27 -8 -20 -20 -20 -20 -20 -19 -6 1 -20 -20 -20 -20 -20 -20 -20
6 16 14 16 -9 4 -20 18 17 -17 15 -17 21 -20 -20 -20 -20 -20 -20 -0 40 38 20 35 15 -3 -5 -20 -20 -20 -20 -20 -20 -20 -20 -20 -20 -20 -20 -20 -20 -20 -20 -20 -20
0 8 -7 12 -20 -20 -20 13 4 14 4 -20 -20 -20 -20 -20 -20 -20 -20 10 15 37 31 30 -3 2 13 -8 11 12 -19 -20 -20 -20 -20 -20 -20 -20 -20 -20 -20 -13 -20 -20 -20
20 8 -20 4 -20 -9 -6 17 18 19 14 -13 -11 -4 4 1 -14 -20 22 25 13 36 2 -20 -16 6 -12 15 24 15 -18 -14 -20 -20 -20 -20 -20 -20 -20 -20 -20 -19 -20 -20 -20
21 12 -20 -20 -16 -12 8 -15 -10 -14 -14 14 20 19 10 -15 -6 -20 21 33 29 39 13 8 -20 -15 9 34 37 12 -20 -13 -16 -20 -20 -20 -20 -16 -20 -20 -20 -20 -20 -20 -20
15 15 -0 -20 -20 -11 -20 6 -12 4 19 23 27 22 15 17 -5 16 22 39 15 21 -8 2 -8 15 7 30 39 33 2 -20 -20 -20 -20 -20 -20 -20 -20 -20 -20 -20 -20 -20 -20
7 14 -20 12 -4 -11 -7 -9 -8 5 1 2 17 13 14 23 22 -12 6 25 -8 29 -0 5 -15 -18 -20 -8 38 -8 9 -20 -20 -2 2 -20 -20 -20 -20 -20 -20 -20 -20 -20 -20
4 -2 -20 -20 -20 -18 -11 12 6 13 -20 -18 -1 29 35 23 36 34 17 18 28 30 -15 -18 7 6 18 21 30 24 9 12 8 -10 -5 -20 -20 -20 -20 -20 -20 -20 -20 -20 -20
-18 -20 -20 -20 -20 -20 -3 3 -20 -8 2 3 3 17 22 41 40 20 24 29 38 12 9 21 21 29 31 25 27 20 23 32 7 2 -20 -20 -20 -20 -20 -20 -20 -20 -20 -20 -20
-20 -20 -20 -20 -20 -2 1 -18 -2 -15 28 -2 -20 -20 6 19 -12 -12 -20 5 -3 25 16 27 19 27 32 29 33 31 22 16 -20 -20 -20 -20 -20 -20 -20 -20 -20 -20 -20 -20 -20
-20 -20 -20 -20 -10 0 -1 -13 -17 -20 0 28 17 -11 -8 16 21 -20 3 -20 -20 -9 -20 -15 3 29 26 17 -3 8 14 -7 12 -1 -20 -20 -20 -20 -20 -20 -20 -20 -20 -20 -20
-20 -20 -20 -20 -20 -9 -20 6 -15 -20 -20 -4 -5 -14 -4 -20 -17 -20 -20 -20 -20 -20 -20 -20 -5 8 -12 18 7 -20 2 -15 -20 -20 -20 -20 -20 -20 -20 -20 -20 -20 -20 -20 -20
-20 5 -20 -20 -15 -20 3 -20 -20 -20 -20 -20 -20 -20 -20 -20 -20 -20 -19 -19 -20 -20 -20 -20 -20 -19 5 -20 -20 -20 -20 -20 -19 -20 -20 -20 -20 -20 -20 -20 -20 -20 -20 -20 -20
-20 -20 -20 -20 -20 -20 -18 -20 -20 -20 -20 -20 -20 -20 -20 -20 -20 -20 -20 -20 -20 -20 -20 -20 -20 -5 -20 -20 -20 -20 -20 -20 -20 -20 -20 -20 -20 -20 -20 -20 -20 -20 -20 -20 -20
-19 -11 -20 -20 -20 -1 -20 -20 -20 -20 -20 -20 -20 -20 -20 -20 -20 -20 -20 -20 -20 -20 -20 -20 -20 -20 -20 -20 -20 -20 -20 -20 -20 -20 -20 -20 -20 -20 -20 -20 -20 -20 -20 -20 -20
-18 -20 -15 1 -16 -20 -20 -20 -20 -20 -20 -20 -20 -20 -20 -20 -20 -20 -20 -20 -20 -20 -20 -20 -20 -20 -20 -20 -20 -20 -20 -20 -20 -20 -20 -20 -20 -20 -20 -20 -20 -20 -20 -20 -20
-9 -6 -20 -20 -20 -14 -20 -4 -15 -20 -20 -20 -20 -20 -20 -20 -20 -20 -20 -20 -20 -20 -20 -20 -20 -20 -20 -20 -20 -20 -20 -20 -20 -20 -20 -20 -20 -20 -20 -20 -20 -20 -20 -20 -20
-0 -2 5 -20 -2 -20 -20 -20 -20 -9 -19 -20 -20 -20 -20 -20 -20 -20 -20 -20 -20 -20 -20 -20 -20 -20 -20 -20 -20 -20 -20 -20 -20 -20 -20 -20 -20 -20 -20 -20 -20 -20 -20 -20 -20

GFSSW_prec_radar_072.txt.gz
Reflectivity
20 20 -2 -20 -6 -3 -2 -10 -20 -20 -12 3 5 -7 8 20 19 -20 -20 -20 -20 -20 -20 -18 -20 -20 -7 19 11 -2 10 -20 -20 -1 -20 -9 21 3 -20 -20 -20 -20 -20 -20 -20
14 16 -0 5 -12 -19 -18 1 8 -5 -18 -20 -14 -13 3 13 5 -2 -20 -20 -20 -20 -14 -20 -20 -20 12 6 25 -2 -19 -20 -20 -20 -18 -1 26 26 -8 -20 -20 -20 -20 -20 -20
8 3 0 13 -16 -2 14 -20 -0 -12 -20 -20 -20 -2 -19 22 10 8 -20 -20 -20 -20 -20 7 -20 -20 5 16 23 -20 -20 -20 -0 4 1 24 25 6 -20 -20 -20 -20 -20 -20 -20
4 -8 8 -9 3 -4 -3 -4 -12 7 -17 -20 -3 -12 23 15 7 14 6 -20 -20 -20 22 21 -20 3 12 6 -20 -20 -20 -20 -3 5 -3 3 -19 -20 1 -20 -20 -20 -20 -20 -20
17 -9 -20 -6 3 5 -16 -1 1 -5 -13 19 -20 12 23 21 -2 8 21 8 -2 -1 1 19 -12 -13 -11 -3 21 9 -20 -20 -10 9 -20 -20 -20 -16 4 -18 -20 -20 -20 -20 -20
21 12 11 8 -20 -11 2 -10 16 17 -19 -4 1 -14 13 11 -20 -17 -13 -0 11 3 -20 13 -8 -20 -20 -20 -12 -17 -1 -20 -2 11 -20 -20 -6 15 -0 -20 -20 -20 -20 -20 -20
4 2 -9 0 2 16 20 20 5 -15 3 -18 25 7 5 -19 6 -18 -20 -3 14 20 -19 13 -1 -20 -20 7 -19 -17 11 -1 -20 -20 -20 -20 10 17 -16 -20 -20 -20 -20 -20 -20
11 2 -2 12 15 6 -4 25 22 6 -17 -6 -4 22 -3 -20 -20 -20 -20 -19 0 24 -8 -20 -2 24 -20 -20 -17 15 13 10 -19 -20 -18 3 -5 -10 -0 -15 -20 -20 -20 -20 -20
-6 0 7 10 7 -4 -12 -6 14 -0 -10 13 0 -11 -19 -20 -20 -20 -20 -20 -20 11 4 -15 23 22 -6 12 17 23 10 -11 -20 -20 -20 -3 -13 5 5 -20 -20 -20 -20 -20 -20
-20 3 15 12 -5 -20 -20 -20 20 -15 -20 2 1 -9 -20 -20 -20 -20 -20 -20 -2 4 12 17 24 -7 19 15 10 -19 -11 -20 -20 -20 -20 -15 -1 19 12 -20 -20 -20 -20 -20 -20
-4 8 12 10 -20 -20 -0 -20 -6 6 5 -20 -20 -20 -20 -20 -20 -20 -20 -20 4 39 19 13 29 19 -20 -20 -20 11 -20 -20 -20 -20 -20 -20 1 -4 -19 -20 -20 -18 -20 -20 -20
-9 7 9 3 -20 -11 -20 -1 4 9 22 -13 -1 -20 -20 -16 -20 -20 -20 -16 -5 36 10 16 22 -16 -20 -20 -8 -9 22 9 -18 17 -20 -20 -18 -9 -20 -20 -20 -20 -20 -20 -20
-18 1 6 -20 -20 14 -20 -10 -20 -12 -19 -6 -20 0 6 -20 -20 -20 -20 2 -20 27 37 10 -17 -9 21 5 5 -18 -20 -20 4 -0 -20 -20 -20 -20 -20 -20 -20 -20 -20 -20 -20
9 9 4 -20 -20 -20 -16 -20 -19 -5 1 17 34 -12 -15 -20 -13 -20 -20 -14 22 0 -2 9 -7 9 14 -9 -16 -20 -20 -20 20 -2 -20 -20 -20 -20 -20 -20 -4 -12 -20 -20 -20
7 8 -20 -20 -20 -20 -15 -20 -20 11 7 23 -18 -20 21 1 -14 -12 9 23 29 28 34 34 28 11 -20 -20 11 -16 -13 -19 34 -12 -20 -20 -20 -20 -20 -20 -20 -20 -20 -20 -20
-2 5 -20 -20 -20 -20 -20 -20 6 10 -13 4 34 26 24 -10 28 15 28 33 43 30 20 -1 -16 6 -3 -20 -19 1 -17 21 26 7 15 -20 -20 -20 -20 -20 -20 -20 -20 -20 -20
-11 -20 -20 -20 -13 -20 -20 -20 -8 3 18 10 24 -5 4 19 7 11 32 40 33 20 -5 -6 -1 -14 -20 -12 2 32 44 16 15 11 -12 -20 -20 -20 -20 -20 -20 -20 -20 -20 -20
-20 -20 -20 -20 -20 -20 -13 -2 -20 -11 -10 4 4 -8 -20 -20 -20 -20 3 19 1 -10 1 -4 11 -8 -20 -14 -9 27 21 12 6 9 -20 -20 -20 -20 -20 -20 -20 -20 -20 -20 -20
-20 -20 -20 -20 -20 -20 1 -20 -10 -7 20 -20 -13 32 33 36 31 35 34 11 35 30 -20 -20 -12 3 1 -7 -4 30 25 15 -3 -20 -19 -20 -20 -20 -20 -20 -20 -20 -20 -20 -20
-20 -20 -20 -20 -20 -20 -20 -20 -12 -20 -20 -12 -20 -20 9 17 34 17 -5 7 11 4 -5 -20 -13 11 5 14 23 21 10 5 23 5 -7 -20 -20 -20 -20 -20 -20 -20 -20 -20 -20
-20 -20 -20 -20 -20 -20 -20 -18 -17 -18 -20 -20 -20 -20 -12 -20 -18 -20 -20 -20 -16 -2 -14 1 12 24 27 22 9 24 33 9 8 -17 -20 -20 -20 -20 -20 -20 -20 -20 -20 -20 -20
-20 -10 -20 -20 -20 -20 -19 -20 -20 -20 -20 -20 -20 -20 -20 -20 -20 -20 -20 -20 -18 -20 -20 -20 -12 -20 2 -20 -20 -19 20 -10 -20 -20 -20 -20 -20 -20 -20 -20 -20 -20 -20 -20 -20
-20 -20 -20 -20 -19 -20 -20 -20 -20 -20 -20 -20 -15 -20 -20 -20 -20 -20 -20 -20 -20 -20 -20 -20 -20 -20 -20 -20 -20 -20 -20 -20 -20 -20 -20 -20 -20 -20 -20 -20 -20 -20 -20 -20 -20
-20 -20 -20 -20 -20 -20 -18 -20 -14 -20 -20 -20 -20 -20 -20 -20 -20 -20 -20 -20 -20 -20 -20 -20 -20 -20 -20 -20 -20 -20 -20 -20 -20 -20 -4 -20 -20 -20 -20 -20 -20 -20 -20 -20 -20
-20 -15 -9 -20 -20 -20 -10 2 -18 -20 -20 -20 -20 -20 -20 -20 -20 -20 -20 -20 -20 -20 -20 -20 -20 -20 -20 -20 -20 -20 -20 -20 -20 -20 -20 -20 -20 -20 -20 -20 -20 -20 -20 -20 -20
-18 -20 -20 -20 -20 -20 -20 -20 4 -20 -20 -0 -20 -20 -20 -20 -20 -20 -20 -20 -20 -20 -20 -20 -20 -20 -20 -20 -20 -20 -20 -20 -20 -20 -20 -20 -20 -20 -20 -20 -20 -20 -20 -20 -20
-20 -20 -1 -20 -20 -20 -20 -14 -14 -15 4 -20 -20 -20 -20 -20 -20 -20 -20 -20 -20 -20 -20 -20 -20 -20 -20 -20 -20 -20 -20 -20 -20 -20 -20 -20 -20 -20 -20 -20 -20 -20 -20 -20 -20

GFSSW_prec_radar_075.txt.gz
Reflectivity
8 1 9 -20 3 -20 -20 -20 -19 -8 -14 -20 -20 -20 -7 -0 13 -11 -5 -18 -20 -20 -20 -1 -20 -20 12 -5 -16 -5 -20 -3 6 -0 -11 19 19 6 15 -20 -20 -20 -20 -20 -20
17 -2 -1 -1 0 11 -9 -3 -20 -20 -4 1 -20 -14 -2 -14 -20 13 -12 -0 -20 -20 -5 4 -14 -20 -8 -14 11 18 -20 -17 -1 10 -7 20 32 17 21 5 -20 -20 -20 -20 -20
7 9 -2 -19 -5 -4 -16 -1 -20 -12 -17 -20 -16 -2 -3 -16 -16 -10 20 14 -20 -20 -20 -5 -5 -20 9 -7 7 -20 -20 -7 16 14 9 19 29 19 15 13 -20 -20 -20 -20 -20
-2 19 11 -16 12 12 8 -15 7 6 4 -14 -17 -20 -20 6 -5 13 8 15 10 -20 -20 -17 13 7 -19 12 -20 -20 -20 -20 15 16 10 18 10 12 29 -20 -20 -20 -20 -20 -20
21 10 3 3 10 4 13 6 4 15 8 -20 -20 -20 -20 -4 -15 7 17 8 20 3 -20 9 18 -8 -19 -20 -20 -20 -20 -15 16 22 -15 -18 -14 2 12 12 2 -20 -20 -20 -20
12 9 8 8 3 17 19 20 21 -3 0 -14 6 -4 -20 3 -20 -19 -1 20 30 19 -19 -8 26 -20 -11 -20 -20 -20 -8 -19 15 14 -1 -20 3 -20 -20 24 -20 -20 -20 -20 -20
7 6 7 -0 8 11 5 22 26 16 -15 18 -2 -2 -17 -6 -20 -20 18 -5 22 29 -2 -17 24 25 -20 -20 -20 -20 11 14 21 -20 -20 -20 -16 1 7 5 -20 -20 -20 -20 -20
13 7 14 6 18 -7 -20 -4 -2 28 -3 -20 -8 22 -20 -20 -11 -20 -16 -3 15 26 5 -19 21 20 -20 -20 -20 11 15 22 25 -20 -20 -20 -20 -20 16 12 -19 -20 -20 -20 -20
9 15 14 8 -6 -20 -20 -20 -4 29 1 22 -3 -11 -20 -20 -20 -20 -20 -20 -4 21 14 -10 -19 15 -5 10 17 15 -4 -14 -6 3 -20 -20 -20 -11 15 15 -19 -20 -20 -20 -20
9 8 16 9 -7 -20 -20 -20 -9 -11 -14 -20 -20 -20 -20 -20 -20 -20 -20 -20 -20 -1 26 -12 -4 20 19 -13 -13 -20 -17 -10 -20 -20 -20 -20 -20 -20 11 -12 -20 -20 -20 -20 -20
9 10 12 9 -5 -20 -20 -20 -20 -12 20 6 -16 -20 -20 -20 -20 -20 -20 -20 -20 -11 34 5 13 20 0 -20 -20 -20 -20 -20 -20 -20 -20 -20 -20 -20 -20 2 -19 -20 -18 -11 -20
7 9 8 3 -20 -20 -20 -17 -3 -18 -16 -20 -20 -20 -20 -20 -20 -20 -20 3 3 -17 19 17 20 27 -11 -20 -20 -20 -20 -20 -20 -20 -6 -20 -20 -20 -20 -19 -20 -20 -20 -20 -20
15 13 4 -20 -20 -20 -20 -20 -20 -20 -20 -20 -20 -20 -20 -20 -20 -20 -10 7 -20 4 30 17 13 36 -1 -20 -20 -20 -20 -20 -20 -20 -20 -20 -20 -20 -20 -20 -20 -16 -6 -20 -20
10 12 10 -20 -20 -20 -20 -20 -20 -20 -20 6 -14 -18 -20 -20 -9 -20 -20 -20 -13 2 0 2 -5 4 16 -20 -20 -10 -20 -6 9 -20 -19 -20 -20 -20 -20 -20 -20 -20 -20 -20 -20
14 10 -20 -20 -20 -20 -20 -20 -20 -14 16 34 0 -19 -19 2 -20 -20 -18 -14 6 22 11 -20 13 36 10 -20 -10 -15 6 3 -3 -13 -19 -20 -20 -20 -20 -20 -19 -20 -20 -20 -20
-3 -10 -20 -20 -20 -20 -20 -20 -20 -20 -8 11 10 30 9 -7 25 14 12 23 14 21 7 28 25 18 6 -20 -20 -20 -20 -18 13 17 14 -20 -20 -20 -20 -20 -20 -10 -20 -20 -20
-20 -20 -20 -20 -20 -20 -20 -20 -20 -15 -14 -9 7 13 30 28 26 18 18 26 18 14 13 20 15 1 -20 -17 -12 -20 -20 6 18 16 4 -20 -20 -20 -20 -20 -20 -2 -19 -20 -20
-20 -20 -20 -20 -20 -20 -20 -20 -20 -20 -20 -20 9 24 -7 17 12 23 36 33 33 33 37 17 23 -2 -20 -20 -20 -19 22 -4 -2 -19 -20 -20 -20 -20 -20 -20 -20 -20 -20 -20 -20
-20 -20 -20 -20 -20 -20 -20 -20 -20 -20 -20 -20 -20 28 -0 -17 -20 29 37 26 25 -12 13 -14 -2 17 2 -18 -20 5 -19 30 12 -17 -20 -20 -20 -20 -20 -20 -20 -20 -20 -13 -20
-20 -20 -20 -20 -20 -20 -20 -20 -20 -20 -20 -20 -20 -10 21 12 -16 -5 19 -3 -20 -20 -15 -20 -1 7 -0 -7 -18 -5 -20 24 -1 -6 -20 -20 -20 -20 -20 -20 -20 -20 -20 -19 -20
-20 -20 -20 -20 -20 -20 -20 -20 -20 -20 -20 -20 -20 -20 -9 -19 -20 -17 -20 -17 -8 -8 -20 -20 -20 19 -9 -1 -18 9 0 -20 -1 16 -20 -20 -20 -20 -20 -20 -20 -20 -20 -20 -20
-20 -20 -20 -20 -20 -20 -20 -12 -20 -20 -20 -20 -20 -20 -20 -20 -20 -20 -20 11 -4 -18 -9 -20 -20 -20 -18 -20 -20 -16 -20 -20 -20 1 1 -20 -20 -20 -20 -20 -20 -20 -20 -20 -20
-20 -20 -20 -20 -20 -20 -20 -20 -20 -20 -20 -20 -20 -20 -20 -20 -20 -20 -20 -20 -20 -9 -20 -19 -20 -20 -20 -18 -15 -20 -9 -20 -20 -20 -20 -16 -20 -19 -4 -20 -20 -20 -20 -20 -20
-20 -20 -20 -20 -20 -14 -5 -20 -20 -20 -20 -20 -20 -20 -20 -20 -20 -20 -20 -20 -20 -20 -20 -20 -20 -20 -20 -20 -20 -20 -20 -20 -20 -20 -20 -20 -20 4 5 -15 -20 -20 -20 -20 -20
-20 -20 -20 -20 -20 -16 -20 1 -20 -8 -20 -20 -20 -20 -20 -20 -20 -20 -20 -20 -20 -20 -20 -20 -20 -20 -20 -20 -20 -20 -20 -20 -20 -20 -20 -20 -16 7 -20 -20 -20 -20 -20 -20 -20
-20 -20 -20 -20 -20 -20 3 -20 8 -4 -20 -20 -20 -20 -20 -20 -20 -20 -20 -20 -20 -20 -20 -20 -20 -20 -20 -20 -20 -20 -20 -20 -20 -20 -20 -20 -20 -20 5 -20 -20 -20 -20 -20 -20
-20 -20 -20 -20 -20 -20 -20 6 -6 7 -18 4 -20 -20 -20 -20 -20 -20 -20 -20 -20 -20 -20 -20 -20 -20 -20 -20 -20 -20 -20 -20 -20 -20 -20 -20 -20 -20 -20 -20 -16 -18 -20 -20 -20

GFSSW_prec_radar_078.txt.gz
Reflectivity
-20 5 2 2 -5 7 -17 -14 -19 -6 -20 5 -4 -6 -10 9 11 -20 6 14 -11 1 -20 -20 -20 -20 -19 9 25 -20 9 -20 -20 -20 2 12 15 -15 -20 -20 -20 -20 -20 -20 -20
8 -12 9 9 -7 3 7 6 -13 -7 -16 4 -13 -20 -11 2 13 1 -20 30 -3 1 -10 -20 -20 -20 -11 -14 18 18 -20 -20 -20 -20 -12 14 27 15 -20 -20 -20 -20 -20 8 -20
8 18 6 8 2 -3 8 4 -13 1 -1 2 7 -16 -17 -20 -9 -20 -20 6 28 -5 -0 -20 17 -2 9 10 12 -15 -20 -20 -20 -20 -19 29 23 12 -18 -20 -20 -20 -20 26 -13
13 14 5 -2 7 -2 18 -14 19 -15 19 -20 6 -20 -20 -20 -20 -20 -4 10 20 7 -14 -11 -20 18 11 9 -20 -20 -20 -20 -20 -20 30 24 12 31 30 -14 -18 -20 -20 24 -20
14 -1 7 8 -2 8 12 11 -5 0 14 -15 24 -11 -20 -20 -20 8 21 6 13 17 8 -2 5 8 -4 -16 -2 -20 -20 -20 -20 -20 -2 -6 21 28 27 30 -15 -20 30 -20 19
9 11 3 12 14 -1 9 -0 12 -4 28 28 27 5 -20 -20 -20 -20 -18 23 -0 24 6 2 5 -20 4 -20 -20 -8 -20 -20 -20 -20 -10 2 14 26 24 33 11 -20 -20 -20 -20
8 8 9 9 6 16 -19 -1 -3 3 23 22 -17 -12 -20 -20 -20 -20 -20 6 20 19 15 -14 11 27 -18 -20 -20 -17 6 14 -20 -20 -18 5 6 9 20 30 26 8 -20 -20 -20
15 14 10 5 9 -20 -20 3 4 18 7 24 -14 -15 -20 -20 -20 -18 -20 -18 21 26 17 -20 -12 -8 -20 -16 -20 -20 -13 -1 -5 -20 -19 10 -5 8 21 25 8 20 -8 -6 -20
14 6 14 3 11 -20 -20 -20 -20 14 20 -20 -20 -20 -20 -20 -20 -20 -20 -16 19 35 23 -10 2 17 18 6 -8 -18 -20 -20 -20 -20 -20 -6 3 2 12 16 6 5 -19 -20 -20
8 7 14 12 -0 -20 -20 -20 -20 -14 -13 -20 -20 -20 -20 -20 -20 -20 -20 0 14 8 28 4 27 17 15 -3 -18 -2 1 -20 -20 -20 -20 -17 -1 10 11 -20 -1 9 -20 -20 -20
2 -20 12 10 -20 -20 -20 -20 -20 -20 -20 -20 -3 -20 -20 -20 -20 -20 -20 -10 10 12 33 13 22 33 7 -20 -13 -20 -1 -20 -20 -20 -20 -20 -20 6 -1 -15 -20 -20 -20 -20 -20
-12 -0 10 11 -20 -20 -20 -20 -20 -20 -20 -20 -20 -20 -20 -20 -20 -20 -20 -14 -0 0 37 6 7 28 -4 -11 -10 -20 -20 -20 -20 -20 -20 -20 -20 -20 -7 -17 -20 -20 -20 -20 -20
4 3 6 -11 -20 -20 -20 -20 -20 -20 -20 -16 -20 -20 -20 -20 -20 -20 8 -20 -20 -14 9 5 -20 13 31 -5 2 -18 -20 -20 -20 -20 -20 -20 -20 -20 -20 -20 -20 -20 -20 -20 -20
1 -2 -17 -20 -20 -20 -20 -20 -20 -20 -20 5 -10 -20 -20 -20 -20 -20 -20 -16 -20 -12 11 15 -1 -20 6 3 1 -15 -20 -20 -20 -20 -20 -20 -20 -20 -20 -20 -20 -20 -20 -20 -20
3 -20 -20 -20 -20 -20 -20 -20 -20 -20 -7 26 21 -11 -20 -14 -20 -20 -20 -16 -20 -20 -6 -17 -20 -9 32 7 -11 -20 17 1 -18 -20 -20 -20 -20 -20 -20 -20 -20 -20 -20 -20 -20
-20 -20 -20 -20 -20 -20 -20 -20 -20 -20 -20 5 29 24 -2 -20 -20 10 -2 -20 -20 1 -7 10 5 30 29 5 16 -20 -20 -18 7 -1 -5 -20 -20 -20 -20 -20 -20 -20 -20 -20 -20
-20 -20 -20 -20 -20 -20 -20 -20 -20 -20 1 24 20 35 34 8 -15 -11 -18 -17 -15 -20 -5 23 21 12 4 10 18 13 14 22 3 12 -16 -20 -20 -20 -20 -20 -20 -20 -20 -20 -20
-20 -20 -20 -20 -20 -20 -20 -20 -20 -20 -20 -2 29 -14 18 29 31 8 -3 -17 -20 7 8 11 18 37 39 -20 8 -18 -20 -18 -20 -20 -20 -20 -20 -20 -20 -20 -20 -20 -20 -20 -20
-20 -20 -20 -20 -20 -20 -20 -20 -20 -20 -20 -20 9 2 -16 21 30 35 22 9 8 -15 19 6 -3 -2 -5 -12 -20 -17 -16 -20 -20 -20 -20 -20 -20 -20 -20 -20 -20 -20 -20 -20 -20
-20 -20 -20 -20 -20 -20 -20 -20 -20 -20 -20 -20 -20 -15 17 -0 28 26 36 1 12 35 25 -20 15 20 -4 -20 -20 -20 -20 -3 -8 6 -20 -20 -20 -20 -20 -20 -20 -20 -20 -20 -20
-20 -20 -20 -20 -20 -20 -20 -20 -20 -20 -20 -20 -20 -20 -20 -20 -20 -15 -19 2 8 -4 -10 -20 -5 10 -18 -16 -20 0 -4 -19 -20 -20 -20 -20 -20 -20 -20 -20 -20 -20 -20 -20 -20
-20 -20 -20 -20 -20 -20 -20 -20 -20 -20 -20 -20 -20 -20 -20 -20 -20 -20 26 19 9 -20 -20 -20 -20 -19 -20 -20 -20 -20 -20 -20 -20 -20 -20 -20 -20 -20 -20 -20 -20 -20 -20 -20 -20
-20 -20 -20 -20 -20 -20 -20 -20 -20 -20 -20 -20 -20 -20 -20 -20 -20 -20 -5 -11 -15 -19 -20 -20 -20 -16 -6 -8 -1 13 1 -17 -20 -20 -20 -20 -20 -20 -20 -16 -20 -20 -20 -20 -20
-20 -20 -20 -20 -20 -20 -20 -20 -20 -20 -20 -20 -20 -20 -20 -20 -20 -20 -20 -18 -9 -18 3 -15 -3 -20 -20 -20 -20 -20 -20 -20 -20 -20 -20 -20 -20 -20 -20 -20 -17 -20 -20 -20 -20
-20 -20 -20 -20 -20 -20 -20 -20 -20 -20 -20 -20 -20 -20 -20 -20 -20 -20 -20 -20 -20 -20 -11 -20 -20 -20 -20 -20 -20 -20 -20 -20 -20 -20 -20 -20 -20 -20 -15 -20 -20 -20 -20 -20 -20
-20 -20 -20 -20 -20 -20 -20 -20 -20 -20 -16 -20 -11 -20 -20 -20 -20 -20 -20 -20 -20 -20 -20 -20 -20 -20 -20 -20 -20 -20 -20 -20 -20 -20 -20 -20 -20 -20 1 -18 -20 -20 -20 -20 -20
-20 -20 -15 -20 -20 -20 -20 -20 -20 -20 -20 16 -20 -20 -20 -20 -20 -20 -20 -20 -20 -20 -20 -20 -20 -20 -20 -20 -20 -20 -20 -20 -20 -20 -20 -20 -20 -20 -20 -11 -2 -19 -18 -20 -20

GFSSW_prec_radar_081.txt.gz
Reflectivity
8 5 13 -2 9 12 -10 10 2 -20 -9 6 -13 -0 -20 -20 -4 21 2 -16 22 23 8 -20 -20 -20 -19 -1 13 -20 9 -11 -20 -20 -20 -20 -14 3 -20 -20 -20 -20 -20 19 -20
-5 13 10 12 13 10 -20 -1 2 7 -16 -11 8 -20 -20 -8 -20 -9 -19 -10 12 19 21 -14 -20 -20 -20 -20 16 15 -6 -20 -20 -20 -20 -20 -19 26 -9 -20 -20 -20 -20 -20 -20
1 15 13 8 -3 -4 8 8 20 -17 -9 -20 -19 -7 17 3 -20 -20 -20 -11 13 33 12 11 -20 -9 -20 1 17 -13 -20 -20 -20 -20 -20 -20 -20 21 2 -20 -20 -20 -5 22 24
9 5 11 6 6 12 19 17 21 1 30 26 -5 22 -20 -20 -20 -20 9 11 22 19 2 21 6 23 -20 -12 -19 12 -17 -20 -20 -16 -20 -20 -20 -20 20 -20 -20 -20 -20 16 30
1 1 8 1 6 17 3 2 4 8 8 27 26 22 -20 -20 -20 -20 21 -14 -16 9 -2 9 15 19 -20 -20 10 12 7 8 -20 -20 1 -20 -20 -20 14 17 -20 -20 -20 -20 27
8 8 8 9 10 16 -15 -9 2 -17 -20 -4 30 6 -20 -20 -20 -20 -14 28 -4 11 20 13 15 9 -20 -20 6 -15 13 -6 -20 -20 -20 -20 -20 -20 5 36 -17 -20 -20 -20 9
1 11 -19 12 9 12 2 5 6 -19 -20 11 25 -15 -20 -20 -20 -20 -20 -9 25 -18 19 25 11 23 18 -20 -20 -13 13 18 -20 -20 -20 -20 -20 -20 7 20 32 -10 -20 -20 21
6 3 -12 13 10 -1 4 -20 -8 -20 3 -14 0 -20 -20 -20 -20 -18 -20 -20 0 16 34 24 8 -16 5 -16 -20 14 11 12 -20 -20 -20 -20 -20 -20 2 13 34 21 -20 -20 -20
11 8 -20 13 5 -13 -20 -20 -20 -20 9 -20 -20 -20 -20 -20 -20 -20 -20 -20 8 16 33 1 13 -20 26 16 -13 -9 -17 -10 -20 -20 -20 -20 -20 -20 -14 -4 31 23 -1 -10 24
7 3 0 8 -13 -20 -20 -20 -20 -20 -20 -20 -20 -20 -20 -20 -20 -20 -20 -20 15 13 35 3 13 19 21 15 -15 -20 -20 -20 -20 -20 -20 -20 -20 -3 -20 -17 11 24 22 -12 1
5 12 -20 10 -20 -20 -20 -20 -20 -20 -20 -20 -20 -20 -20 -20 -20 -20 -20 -20 14 15 31 21 10 23 38 -5 -20 -20 -20 -20 -20 -20 -20 -20 -20 -20 -20 -20 -4 26 15 0 -14
15 16 -8 9 -20 -20 -20 -20 -20 -20 -20 -20 -20 -20 -20 -20 -20 -14 -20 -20 7 1 24 24 -3 13 18 12 -17 -20 -20 -20 -20 -20 -20 -20 -20 -20 0 -9 -9 12 12 13 19
14 15 -9 -0 -20 -20 -20 -20 -20 -20 -20 -20 -20 -20 -20 -20 -20 -20 -20 -18 -1 3 6 -19 -20 21 34 28 6 -20 -20 -20 -20 -20 -20 -20 -20 -20 -20 -18 -20 8 -6 -15 -20
14 17 -15 -20 -20 -20 -20 -20 -20 -20 -20 -2 -8 -20 -20 -20 -20 -9 -20 -20 -4 9 -17 -1 -6 36 40 6 5 -8 -20 -20 -20 -20 -20 -20 -20 -20 -20 -20 -20 2 -10 -20 -20
9 14 -20 -20 -20 -20 -20 -20 -20 -20 -20 16 15 -20 -20 -20 -20 -20 -20 -6 -19 -9 -20 13 7 16 37 -13 -15 -5 -10 -20 -20 -20 -20 -20 -20 -20 -20 -20 -20 -20 -7 -20 -20
-15 -15 -20 -20 -20 -20 -20 -20 -20 -20 -20 -6 18 15 -17 -20 -20 -20 -9 -20 -20 -7 -20 -3 2 20 23 22 16 -9 -2 -20 -20 -20 -12 -20 -20 -20 -20 -20 -20 -20 -20 -20 -20
-20 -20 -20 -20 -20 -20 -20 -20 -20 -20 2 -12 23 3 18 -18 -20 -11 -20 -20 -13 -20 -11 19 9 -10 -12 31 13 16 6 20 6 2 -18 -20 -20 -20 -20 -20 -20 -20 -20 -20 -20
-20 -20 -20 -20 -20 -20 -20 -20 -20 -20 -20 15 23 33 8 20 -5 -3 -20 -20 -20 3 -11 5 -7 -6 21 23 20 3 13 -20 -20 -20 -18 -20 -20 -20 -20 -20 -20 -20 -20 -20 -20
-20 -20 -20 -20 -20 -20 -20 -20 -20 -20 -20 -20 -12 16 25 20 23 -8 -17 -14 -20 -20 18 6 22 30 38 21 -12 -17 -20 -20 -20 -20 -20 -20 -20 -20 -20 -20 -20 -20 -20 -20 -20
-20 -20 -20 -20 -20 -20 -20 -20 -20 -20 -20 -20 -20 -20 -17 25 22 19 22 11 -20 -20 24 -20 -5 19 41 17 -3 -20 -20 -20 -20 -20 -20 -20 -20 -20 -20 -20 -20 -20 -20 -20 -20
-20 -20 -20 -20 -20 -20 -20 -20 -20 -20 -20 -20 -20 -20 -20 -20 17 1 1 11 28 18 -20 -1 -19 10 -11 26 -8 -19 -14 -20 -20 -20 -20 -20 -20 -20 -20 -20 -20 -20 -20 -20 -20
-20 -20 -20 -20 -20 -20 -20 -20 -20 -20 -20 -20 -20 -20 -20 -20 -20 21 -18 -20 -20 -14 -15 -10 -5 -5 -14 -18 -20 -20 -20 -20 -20 -20 -20 -20 -20 -20 -20 -20 -20 -20 -20 -20 -20
-20 -20 -20 -20 -20 -20 -20 -20 -20 -20 -20 -20 -20 -20 -20 -20 -20 -20 6 -7 -20 -12 -19 -20 -1 1 -18 -18 -20 -18 -20 -19 -20 -20 -20 -20 -20 -20 -20 -20 -20 -20 -20 -20 -20
-20 -20 -20 -20 -20 -20 -20 -20 -20 -20 -20 -20 -20 -20 -20 -20 -20 -20 -20 28 12 -20 -20 -20 -20 -20 -20 -20 -20 -16 -19 -20 -18 -20 -20 -20 -20 -20 -20 -20 -20 -2 -19 -20 -20
-20 -20 -17 -20 -20 -20 -20 -20 -20 -20 -20 -20 -20 -20 -20 -20 -20 -20 -20 -20 2 2 -9 -20 -20 -20 -20 -20 -20 -20 -20 -20 -18 -20 -20 -20 -20 -20 -20 -20 -20 -20 -19 -20 -20
-20 -20 -20 -20 -20 -20 -20 -20 -20 -3 -6 -20 -20 -20 -20 -20 -20 -20 -20 -20 -20 4 -12 -20 -20 -20 -20 -20 -20 -20 -20 -20 -20 -20 -20 -20 -20 -20 -20 -20 -20 -20 -20 -20 -20
-20 -20 -20 -20 -20 -20 -20 -20 -20 -16 -1 11 22 -19 -20 -20 -20 -20 -20 -20 -20 -20 -20 -20 -20 -20 -20 -20 -20 -20 -20 -20 -20 -20 -20 -20 -20 -20 -20 -20 -20 -20 -20 -20 -20

GFSSW_prec_radar_084.txt.gz
Reflectivity
-13 5 4 13 7 -1 -7 3 10 7 -18 -19 5 -8 -20 -13 -20 -2 -13 -5 -1 -13 -14 -0 -6 -19 -20 -20 4 -20 12 -3 -20 -20 -20 -20 -20 -20 -20 -20 -20 -20 -20 -20 -20
17 15 -1 6 6 1 -1 5 12 -3 13 6 7 21 5 -20 -20 -20 -20 -13 27 12 24 16 16 11 -6 -20 -20 20 0 -20 -20 -20 -20 -20 -20 -18 -17 -9 -20 -20 -20 -4 12
12 5 9 0 9 12 10 5 -2 -5 11 26 21 25 24 -20 -20 -20 -20 -20 -12 21 22 22 12 8 0 -20 -20 12 -18 -20 -20 -20 -20 -20 -20 7 -3 2 1 -20 -20 -19 24
-17 17 -12 7 7 12 13 5 -20 -20 5 18 22 18 13 -20 -20 -20 27 -18 15 27 27 7 23 12 11 -20 -20 14 5 -20 -20 -20 -20 -20 -20 -20 -20 -20 -20 -20 -20 -20 -20
12 14 8 12 12 11 10 -2 -17 10 11 -20 1 -20 -20 -20 -20 -20 -20 9 -17 -20 29 9 25 19 13 -20 -20 12 14 -8 -20 -20 -20 -20 -20 -20 -20 6 17 -20 -20 -20 -20
14 14 14 -1 12 11 4 -0 -5 6 -8 -20 -20 -17 -20 -20 -20 -20 -20 19 -4 13 21 27 -2 14 13 -13 -18 -20 18 -0 -20 -20 -20 -20 -20 -20 -20 -7 21 -9 -20 -20 -20
18 7 8 6 6 7 -16 -19 0 -20 -20 -20 -19 -9 -20 -20 -20 -20 -20 6 -4 -12 26 27 17 29 15 -15 -20 11 12 12 -12 -20 -20 -20 -20 -20 -20 -20 14 -20 -20 -20 -20
15 10 6 -1 11 -1 -20 -20 -20 -20 -20 -20 6 -20 -20 -20 -20 -20 -20 -20 -2 2 -2 24 -6 22 37 -6 -14 13 -14 -12 1 -20 -20 -20 -20 -20 -20 -20 -14 27 -7 -20 -20
17 13 -8 5 6 -12 -20 -20 -6 -20 -20 -20 -20 -20 -20 -20 -20 -20 -20 -7 -6 -20 -20 32 6 22 15 21 -19 9 3 -4 -12 7 -20 -20 -20 -20 -20 -20 -20 -2 -8 -20 -20
11 -7 4 14 -1 -19 -20 -20 -20 -20 -20 -20 -20 -20 -20 -20 -20 -20 -20 -20 -16 -3 -20 32 5 12 33 33 -20 2 -11 5 -13 -20 -20 -20 -20 -20 -20 -20 -20 -20 20 -15 -20
14 3 10 10 -20 -20 -20 -20 -20 -20 -20 -20 -20 -20 -20 -20 -20 -20 -20 -20 -20 -6 9 43 18 6 28 15 -20 -20 -20 -20 -20 -20 -20 -20 -20 -20 -20 -20 -20 -20 16 18 -20
12 8 13 9 -20 -20 -20 -20 -20 -20 -20 -20 -20 -20 -20 -20 -20 -20 -20 -4 -20 7 1 24 -8 -20 -3 33 12 -20 -20 -16 -20 -20 -20 -20 -20 -20 -20 -20 -20 -20 22 23 11
11 13 16 -7 -20 -20 -20 -20 -20 -20 -20 -20 -20 -20 -20 -20 -20 -20 -20 -20 -15 11 2 13 -14 -16 -2 23 23 -20 -20 -20 -20 -20 -20 -20 -20 -20 -20 -20 -20 -20 3 18 14
13 12 2 -20 -20 -20 -20 -20 -20 -20 -20 -20 -20 -20 -20 -20 -20 -20 -20 -20 2 2 -20 21 2 -17 -9 33 12 -20 -20 -5 -20 -20 -12 -20 -13 -20 -20 -20 -20 -20 -19 -3 -8
14 10 -20 -20 -20 -20 -20 -20 -20 -20 -20 -10 -14 -20 -20 -20 -20 -20 -20 -3 -12 -8 -20 -10 -20 -20 21 26 17 -20 -20 1 -20 -20 -20 -20 -20 -20 -20 -20 -20 -20 -20 -20 2
13 -1 -20 -20 -20 -20 -20 -20 -20 -20 -20 -20 -7 -20 -20 -20 -20 -20 -20 -20 -1 7 -20 -16 -18 -20 25 41 17 -19 -17 4 -20 -20 -20 -20 -20 -20 -20 -20 -20 -20 -20 -20 -5
3 -20 -20 -20 -20 -20 -20 -20 -20 -20 -20 -11 -14 -11 -12 -20 -20 -20 -20 -20 -20 -20 -20 14 13 16 23 40 21 -16 -11 8 7 -4 -20 -20 -20 -20 -20 -20 -20 -20 -20 -20 -16
-20 -20 -20 -20 -20 -13 -20 -20 -20 -20 -20 -20 4 3 2 -1 -13 -7 -20 -20 -20 -20 -14 -5 22 22 18 27 33 31 -20 -20 -20 -0 -20 -20 -20 -20 -20 -20 -20 -20 -20 -20 -20
-20 -20 -20 -20 -20 -10 -15 -20 -20 -20 -20 -20 -18 -20 2 24 6 -1 -18 -20 -20 -20 -20 3 3 0 -9 -7 25 28 5 -20 -20 -20 -20 -20 -20 -20 -20 -20 -20 -20 -20 -20 -20
-20 -20 -20 -20 -20 -5 -20 -20 -20 -20 -20 -20 -20 -20 -20 14 14 1 -0 -16 -20 -20 -20 -19 13 9 -12 1 25 -3 -16 -20 -20 -20 -20 -20 -20 -20 -20 -20 -20 -20 -20 -20 -20
-20 -20 -20 -20 -20 -20 -20 -20 -20 -20 -20 -20 -20 -20 -20 -14 24 -17 -18 12 -16 -18 -20 -18 1 19 21 31 34 -20 -15 -20 -20 -20 -20 -20 -20 -20 -20 -20 -20 -20 -20 -20 -20
-20 -20 -20 -20 -20 -20 -20 -20 -20 -20 -20 -20 -20 -20 -20 -20 -20 8 28 17 24 -20 -20 -20 -20 -2 4 5 29 -20 -20 -20 -20 -20 -20 -20 -20 -20 -20 -20 -20 -20 -20 -20 -20
-20 -20 -20 -20 -20 -20 -20 -20 -20 -20 -20 -10 24 -4 -20 -20 -20 -20 -12 -14 3 -14 -20 -15 -20 -3 -12 -16 -20 -20 -20 -20 -20 -20 -20 -20 -20 -20 -20 -20 -20 -20 -20 -20 -20
-20 -20 -20 -20 -20 -20 -20 -20 -20 -20 -20 -5 -7 13 -20 -20 -20 -20 36 -20 -15 7 15 -19 -16 -20 -20 -20 -20 -20 -20 -20 -20 -20 -20 -20 -20 -20 -20 -20 -20 -20 -20 -20 -20
-20 -20 -20 -20 -20 -20 -20 -20 -20 -20 -12 4 -14 26 -20 -20 -20 -20 3 28 5 -5 -3 -5 -20 -20 -20 -20 -20 -20 -20 -20 -20 -20 -20 -20 -20 -20 -20 -20 -20 -20 -20 -20 -20
-20 -20 -20 -20 -20 -20 -20 -20 -20 -16 -0 -18 17 27 11 22 -20 -20 -18 8 7 1 -7 -20 -20 -20 -20 -20 -20 -20 -20 -20 -20 -20 -20 -20 -20 -20 -20 -20 -20 -20 -20 -20 -20
-20 -20 -20 -20 -20 -20 -20 -20 -20 -20 -20 1 -15 33 19 -18 6 -20 -20 -20 -20 4 -19 -20 -20 -20 -20 -20 -20 -20 -20 -20 -20 -20 -20 -20 -20 -20 -20 -20 -20 -20 -20 -20 -20

GFSSW_prec_radar_087.txt.gz
Reflectivity
16 15 10 17 -6 9 13 14 15 13 -4 -11 -2 17 -8 -9 -20 -20 -20 -20 6 -18 17 -20 -13 -20 -11 1 -5 -20 9 -20 -20 -20 -20 -20 -20 -20 -20 -20 -20 -11 -20 -20 -20
13 16 -5 12 -1 -2 10 9 10 6 5 -5 -1 26 2 -20 -20 -20 -20 -20 -2 4 -3 19 11 -8 8 -2 -16 16 6 -20 -20 -20 -20 -20 -20 -20 -20 -20 -20 -20 -20 -20 -7
10 -5 16 15 8 11 14 13 -5 -19 -20 -20 -18 -20 -16 -20 -20 -20 16 20 -20 16 19 -20 5 11 4 4 -17 -20 -20 -20 -20 -20 -20 -20 -20 -20 -20 -20 -20 -20 -20 -20 -20
15 6 4 -18 13 5 14 16 3 11 11 -17 -20 -20 -20 -20 -20 -20 21 -14 -9 27 21 27 14 27 15 4 -20 -13 -20 -20 -20 -20 -20 -20 -20 -20 -20 -20 -20 -20 -20 -20 -17
14 11 1 5 11 13 10 2 -6 -8 2 -20 8 10 -20 -20 -20 -20 -20 -20 -20 -20 12 8 24 23 21 -17 7 10 -14 -20 -20 -20 -20 -20 -20 -20 -20 -9 -20 -17 -19 -20 -20
11 16 16 8 9 11 4 -20 -2 -20 -20 -20 -20 -7 -20 -20 -20 -20 -20 -20 -1 -19 -20 22 6 -7 28 -0 2 -20 -19 -2 -20 -20 -20 -20 -20 -20 -20 -20 -19 -19 -20 -20 -20
2 13 6 0 8 9 -20 -20 -20 -20 5 -18 -20 -20 -20 -20 -20 -20 -20 -20 -20 -20 -17 16 29 21 17 16 -15 11 7 -6 11 -18 -20 -20 -20 -20 -20 -20 -20 -20 -20 -20 -20
11 16 0 13 10 8 -20 -20 -20 -20 -20 -20 -20 -20 -20 -20 -20 -20 -20 -20 -1 -18 -20 -12 30 -13 28 27 -9 17 -14 15 -20 9 -3 -20 -20 -20 -20 -20 -20 -20 -20 -20 -20
-6 3 10 9 4 -9 -20 -20 -7 -20 -20 -20 -20 -20 -20 -20 -20 -20 -20 -20 -12 -20 -20 -12 15 17 29 38 12 16 -6 -20 -20 8 -20 -20 -20 -20 -20 -20 -20 -20 -20 -20 -20
6 -10 1 7 11 -20 -20 -20 -20 -20 -20 -20 -20 -20 -20 -20 -20 -20 -20 -20 -20 -20 13 5 23 14 24 34 2 -14 13 -11 -20 -16 -1 -20 -20 -20 -20 -20 -20 -20 -13 18 -20
5 2 6 10 -4 -20 -20 -20 -20 -20 -20 -20 -20 -20 -20 -20 -20 -20 -20 -20 -20 -20 -20 -4 23 28 13 29 6 -20 -17 -10 -20 -20 -10 -20 -20 -20 -20 -20 -20 -20 -20 -20 -20
-0 8 7 11 -20 -20 -20 -20 -20 -20 -20 -20 -20 -20 -20 -20 -20 -20 -20 -20 -20 -3 -20 -4 -13 -16 11 21 18 -20 -20 -20 -14 -20 10 -11 -20 -20 -20 -20 -20 -20 -20 -20 -20
5 10 13 -10 -20 -20 -20 -20 -20 -20 -20 -20 -20 -20 -20 -20 -20 -20 -20 -20 -20 -7 -8 -14 2 -19 27 1 38 5 -20 -20 -20 -20 -19 -14 -17 -20 -20 -20 -20 -20 -20 -20 -20
13 12 10 -20 -20 -20 -20 -20 -20 -20 -20 -20 -20 -20 -20 -20 -20 -20 -20 -20 -20 3 -20 8 20 -2 32 24 24 -16 -20 -12 -19 -20 -1 -20 -20 -20 -20 -20 -20 -20 -20 -20 -20
13 10 -9 -20 -20 -20 -20 -20 -20 -20 -20 -18 -20 -20 -20 -20 -20 -20 -20 -20 -20 8 -20 -15 13 13 -1 -4 22 19 -20 -16 -20 -20 -20 -20 -20 -20 -20 -20 -20 -20 -20 -20 -20
8 9 -14 -20 -20 -20 -20 -20 -20 -20 -20 -20 -6 -11 -20 -20 -20 -20 -20 -20 -20 9 -20 -20 -20 -20 -20 13 36 25 -16 -7 4 -20 -7 -20 -20 -20 -20 -20 -20 -20 -20 -20 -20
-4 -20 -20 -20 -20 -20 -20 -20 -20 -20 -20 -7 -6 18 -4 -19 -18 -20 -20 -20 -20 -20 -20 -8 -20 8 -19 6 35 33 4 16 15 -8 -20 -20 -20 -20 -20 -20 -20 -20 -20 -20 -20
-20 -20 -20 -20 -20 -20 -20 -20 -20 -20 -20 -20 -11 16 4 16 1 -20 -20 -20 -20 -20 -20 -20 -17 -7 5 18 38 21 -18 -20 -20 -20 -20 -20 -20 -20 -20 -20 -20 -20 -20 -20 -20
-20 -20 -20 -20 -20 -19 -20 -20 -20 -20 -20 -20 -13 -20 -20 31 21 -17 -19 -20 -20 -20 -20 -20 4 -13 8 33 37 -11 -20 -20 -20 -20 -20 -20 -20 -20 -20 -20 -20 -20 -20 -20 -20
-20 -20 -20 -20 6 -8 -20 -20 -20 -20 -20 -20 -20 -20 -20 19 23 8 -4 -20 -20 -20 -18 -18 -1 18 31 26 29 28 -20 -20 -20 -20 -20 -20 -20 -20 -18 -20 -20 -20 -20 -20 -20
-20 -20 -20 -20 -3 -20 -20 -20 -20 -20 -20 14 -11 -11 -19 -20 -0 20 18 -7 -20 -20 -20 -5 12 14 27 -15 16 32 10 -20 -20 -20 -20 -20 -20 -20 1 -20 -20 -20 -20 -20 -20
-20 -20 -20 -8 -20 -20 -20 -20 -20 -20 15 23 -8 -2 -1 -20 -20 19 26 34 -20 -20 -20 -20 18 9 -20 -20 -20 -5 -20 -20 -20 -20 -20 -20 -20 -20 -20 -20 -20 -20 -20 -20 -20
-20 -20 -20 -7 -20 -20 -20 -20 -20 -2 -20 -14 9 6 20 -4 -20 -14 31 2 -1 -20 7 -17 -18 -9 3 -20 -17 27 -13 -20 -20 -20 -20 -20 -20 -20 -20 -20 -20 -20 -20 -20 -20
-20 -20 -20 -20 -20 -20 -20 -20 5 -20 -20 2 7 3 6 -20 -19 6 34 -12 -6 -0 12 -19 -18 -20 -20 -20 -20 -20 -20 -20 -20 -20 -20 -20 -20 -20 -20 -20 -20 -20 -20 -20 -20
-20 -20 -20 -20 -20 -20 -20 -16 -20 -20 -20 -20 11 22 31 9 -20 -19 32 20 21 15 12 10 3 -20 -20 -20 -20 -20 -20 -20 -20 -20 -20 -20 -20 -20 -20 -20 -20 -20 -20 -20 -20
-20 -20 -20 -20 -20 -20 -20 -20 -20 -20 -20 -20 -20 -19 30 17 36 27 -3 33 34 -20 17 -12 -20 -20 -20 -20 -20 -20 -20 -20 -20 -20 -20 -20 -20 -20 -20 -20 -20 -20 -20 -20 -20
-20 -20 -20 -20 -20 -20 -20 -20 -20 -20 -20 -20 -20 -20 12 18 14 -2 6 9 10 27 17 -19 8 -20 -20 -20 -20 -20 -20 -20 -20 -20 -20 -20 -20 -20 -20 -20 -20 -20 -20 -20 -20

GFSSW_prec_radar_090.txt.gz
Reflectivity
2 -15 12 -20 -16 5 -19 1 1 0 -18 -20 -20 7 -7 -20 -20 -20 -20 -20 -20 -7 9 0 -15 13 -19 1 23 -11 19 11 -20 -20 -20 -20 -20 -20 -20 -20 -20 8 -10 -20 -20
-5 -20 10 13 -15 10 9 7 1 -4 -15 -20 -2 -16 -20 -20 -20 -20 -20 -20 -20 -20 4 5 12 -19 9 -20 26 -13 9 -20 -20 -20 -20 -20 -20 -20 -20 -20 -20 -20 -17 -20 -20
2 -7 -3 6 -20 17 -20 10 -12 -3 9 -20 -17 -20 -20 -20 -20 -20 -20 19 -20 -19 14 15 17 -12 16 19 7 -18 -20 -20 -20 -20 -20 -20 -20 -20 -20 -20 -20 -20 -20 -20 -20
5 7 -19 -20 -20 12 -11 -20 -20 -11 1 -20 -20 -20 -20 -20 -20 -20 -20 -20 -20 -12 -16 -8 -2 2 17 -10 -9 -13 -20 -20 -16 -20 -20 -20 -20 -20 -20 -20 -20 -20 -20 -20 -20
2 7 -14 -9 -18 6 3 -20 3 -8 -20 -20 -20 -20 -20 -20 -20 -20 -20 -20 -20 -20 22 30 12 25 21 -3 5 -18 -20 -20 -20 -20 -20 -20 -20 -20 -20 -20 -20 -20 -20 -20 -20
12 11 -20 9 -20 7 7 -16 -0 -20 -20 -20 -20 -20 -20 -20 -20 -20 -20 -20 -20 -20 -20 28 20 -17 13 23 9 -20 -17 4 -20 -19 -20 -20 -20 -20 -20 -20 -20 -20 -20 -20 -20
-5 7 6 0 -20 6 -20 -4 -20 -20 -20 -20 -20 -20 -20 -20 -20 -20 -20 -20 -20 -20 -20 -13 29 31 22 10 8 9 -20 -12 12 -20 -20 -20 -20 -20 -20 -20 -20 -20 -20 -20 -20
13 -7 -15 13 6 -7 -20 -20 -20 -20 -20 -20 -20 -20 -20 -20 -20 -20 -20 -20 -20 -20 -20 -20 6 12 17 19 13 15 -15 -3 8 7 -20 -20 -20 -20 -20 -20 -20 -20 -20 -20 -20
13 13 1 8 5 -20 -20 -20 -18 -14 -20 -20 -20 -20 -20 -20 -20 -20 -20 -20 -20 -20 -20 -7 -8 15 13 -12 13 13 -13 -17 11 -20 3 -20 -20 -20 -20 -20 -20 -20 -20 -20 -20
14 6 11 12 3 -20 -20 -20 -20 -20 -20 -20 -20 -20 -20 -20 -20 -20 -20 -20 19 -1 -1 -4 22 25 17 35 24 4 4 -2 -12 -17 13 -20 -20 -20 -20 -20 -20 -20 -20 -20 -20
12 8 11 14 -8 -20 -20 -20 -20 -20 -20 -20 -20 -20 -20 -20 -20 -20 -20 -20 8 -20 -8 12 21 18 -20 7 31 -4 7 -7 -20 10 6 -20 -20 -20 -20 -20 -20 -20 -20 -20 -20
12 13 11 1 -20 -20 -20 -20 -20 -20 -20 -20 -20 -20 -20 -20 -20 -20 -20 9 -5 14 -20 20 -1 -3 1 2 22 -14 6 8 -20 -12 16 -9 -20 -20 -20 -20 -20 -20 -20 -20 -20
-8 12 13 -19 -20 -20 -20 -20 -20 -20 -20 -20 -20 -20 -20 -20 -20 -20 -20 -9 7 11 14 4 -10 -20 8 17 24 2 -20 -20 -4 11 5 10 -13 -20 -20 -20 -20 -20 -20 -20 -20
13 4 10 -20 -20 -20 -20 -20 -20 -20 -20 -20 -20 -20 -20 -20 -20 -20 -20 -20 -4 -9 14 -4 -18 -9 9 10 16 15 -17 12 10 -20 -8 -12 -19 -20 -20 -20 -20 -20 -20 -20 -20
12 11 -6 -20 -20 -20 -20 -20 -20 -20 -20 -4 -15 -20 -20 -20 -20 -20 -20 -17 -18 -14 20 13 4 3 8 -5 26 32 10 -19 -5 -12 9 8 7 -20 -20 -20 -20 -20 -20 -20 -20
9 11 -6 -20 -20 -20 -20 -20 -20 -20 -20 -20 -7 -11 -17 -19 -20 -20 -6 -20 -20 10 3 -18 30 16 16 -9 18 26 -14 14 19 21 9 -20 -11 -20 -20 -20 -20 -20 -20 -20 -20
7 -19 -3 -20 -20 -20 -20 -20 -20 -20 -20 -20 -7 19 -8 9 -16 -20 -20 -20 -20 -8 10 5 -14 16 -6 -5 14 31 18 22 15 15 -14 -20 3 -20 -20 -20 -20 -20 -20 -20 -20
-20 -12 -20 -20 -20 -20 -20 -20 -20 -20 -20 -20 -20 2 -8 27 10 -20 -20 -20 -20 -20 -18 5 -19 9 -16 -11 23 34 23 -2 -18 -7 -20 -20 -19 -20 -20 -20 -20 -20 -20 -20 -20
-20 -20 -20 -20 -20 -20 -20 -20 -20 -20 -20 -20 -6 5 -3 18 26 2 -20 -20 -20 -20 6 14 10 13 5 12 20 27 22 -20 -20 -20 -20 -20 -20 -20 -20 -20 -20 -20 -20 -20 -20
-20 -20 -20 -20 -20 -20 -5 -20 -20 -20 -20 12 18 -7 4 19 7 21 -0 -20 -20 -20 -20 15 7 11 12 12 28 32 6 3 -15 -20 -20 -20 -20 -20 -20 -20 -20 -20 -20 -20 -20
-20 -20 -20 -14 -20 -20 -16 -20 -20 -20 0 17 -11 -3 2 23 -19 16 18 -13 -20 -20 -20 6 3 23 21 26 24 11 22 -20 -20 -20 -20 -20 -20 -20 -20 -20 -20 -20 -20 -20 -20
-20 -20 -20 -11 -13 -20 -20 -20 -20 7 -17 -18 -20 27 16 14 -11 31 29 1 -20 -20 -20 -10 23 13 20 -16 -13 -6 2 -20 2 -20 -20 -20 -20 -20 -20 -20 -20 -20 -20 -20 -20
-20 -20 -20 -20 -20 -20 -20 -20 -20 -20 -1 -20 24 30 24 31 -10 -3 37 24 -20 -20 -20 -19 23 15 22 9 0 15 -16 -20 -20 -20 -20 -20 -20 -20 -20 -20 -20 -20 -20 -20 -20
-20 -20 -20 -20 -20 -20 -20 -20 -20 -20 -7 -20 12 -4 14 16 -20 -1 36 31 2 -16 9 10 -20 -20 -18 -20 -20 -20 -20 -20 -20 -20 -20 -20 -20 -20 -20 -20 -20 -20 -20 -20 -20
-20 -20 -20 -20 -20 -20 -20 -20 -20 -20 -20 -20 -15 -20 -5 -4 16 17 36 26 27 -16 22 -20 -4 -20 -20 -20 -20 -20 -20 -20 -20 -17 -15 4 -20 -20 -20 -20 -20 -20 -20 -20 -20
-20 -20 -20 -20 -20 -20 -20 -20 -20 -20 -20 -20 -20 -20 8 -2 -2 -11 27 33 31 20 35 -20 -20 -20 -20 -20 -20 -20 -20 -20 -20 -20 -20 -20 -8 1 -20 -20 -20 -20 -20 -20 -20
-20 -20 -20 -20 -20 -20 -20 -20 -20 -20 -20 -20 -20 -20 -15 -10 -20 -20 -20 -19 8 31 -1 -20 -20 -20 -20 -20 -20 -20 -20 -20 -20 -20 -20 -20 -9 -8 -20 -20 -20 -20 -20 -20 -20

GFSSW_prec_radar_093.txt.gz
Reflectivity
11 11 -13 9 -0 -20 -7 -20 -2 9 -18 -3 -18 1 -20 -20 -20 -20 -19 -16 -1 10 7 -8 5 -20 -19 8 -15 25 22 5 -20 -20 -20 -20 -20 -20 -20 -20 -20 -20 -9 -20 -20
15 9 -12 3 1 -8 11 0 2 -20 -20 -8 -9 3 -20 -20 -20 -8 -20 -20 -20 -20 11 19 13 -16 20 -20 13 22 16 -20 -20 -20 -17 16 -19 -20 -20 -20 -20 -20 -20 -2 -19
12 9 9 10 5 -20 15 -16 -18 -20 -4 -20 -20 -20 -20 -20 -20 -20 -20 -20 -20 -11 -17 4 8 19 21 -20 -6 -12 -16 -20 3 4 19 31 2 -20 -20 -20 -20 -20 -20 -14 -3
10 2 9 8 4 1 10 -7 -19 10 -17 -20 -20 -20 -20 -20 -9 -20 -20 -20 -20 -20 22 -8 15 9 11 19 -20 0 -20 -15 20 25 4 14 28 -20 -20 -20 -20 -20 -20 -20 -20
9 12 3 -19 11 -15 7 -20 3 -11 -20 -20 -20 -20 -19 -13 -7 -20 -20 -20 -20 -20 7 10 19 8 19 20 -20 -20 -5 -7 31 29 0 -20 10 3 -20 -12 4 -20 -20 -20 -20
13 12 10 7 -13 1 2 -20 -0 -20 -20 -20 -20 -20 -20 2 -20 -20 -20 -20 -20 -20 4 24 0 23 18 -17 8 -20 -19 7 -13 -20 -3 31 -14 6 -11 -20 -20 -20 -20 -20 -20
9 9 11 12 11 11 -15 -20 -19 -20 -20 -20 -20 -20 -20 -20 -20 -20 -20 -20 -20 -20 -20 4 29 20 19 29 -5 12 -0 -20 -20 -20 13 -10 -20 -20 -20 -8 -20 -20 -20 -20 -20
11 12 2 6 14 12 -18 -20 -20 -20 -20 -20 -20 -20 -19 -20 -20 -20 -20 -20 -20 -20 -20 -3 14 20 22 2 -13 -15 7 3 -20 -20 -20 -6 -19 -9 -20 -20 -20 -20 -20 -20 -20
6 13 11 11 11 3 -20 -20 -20 -20 -20 -20 -20 -20 -0 -20 -20 -20 -20 -7 -20 -20 -20 -20 16 35 -6 12 21 14 18 -18 -20 -6 -20 -0 -20 -20 -20 -20 -20 -20 -20 -20 -20
8 12 11 13 9 -20 -20 -20 -20 -20 -20 -20 -20 -20 -20 -20 -20 -20 -20 -20 -13 -19 -20 6 16 26 36 37 24 25 8 -20 -20 -4 4 -20 -20 -20 -20 -20 -20 -20 -20 -20 -20
-6 7 12 10 4 -20 -20 -20 -20 -20 -20 -20 -20 -20 -20 -20 -20 -20 -20 -13 -20 -14 -20 -1 24 13 14 -3 -4 13 11 -13 -20 -12 -20 -20 -20 -20 -20 -20 -20 -20 -20 -20 -20
10 11 12 13 -7 -20 -20 -20 -20 -20 -20 -20 -20 -20 -20 -20 -20 -18 -20 15 21 15 19 7 -6 -20 1 12 9 22 3 5 -11 17 -19 -20 -11 -20 -20 -20 -20 -20 -20 -20 -20
-0 2 14 6 -20 -20 -20 -20 -20 -20 -20 -20 -20 -20 -20 -20 -3 7 -20 7 2 14 17 10 9 8 -6 20 30 32 -10 1 -1 -17 -14 9 6 -20 -20 -20 -20 -20 -20 -20 -20
10 5 12 -20 -20 -20 -20 -20 -20 -20 -1 -20 -20 -20 2 -20 0 -20 -20 -11 0 10 -14 2 18 16 12 25 23 13 -20 16 12 10 4 -18 3 -20 -20 -20 -20 -20 -20 -20 -20
0 -12 -14 -20 -20 -20 -20 -20 -20 -19 5 -19 -9 -20 -11 1 -20 -12 -20 8 -13 7 1 24 -8 6 12 5 9 8 -17 10 10 -19 6 1 -1 -20 -20 -20 -20 -20 -20 -20 -20
11 7 -11 -20 -20 -20 -20 -20 -20 -5 3 -11 -13 -2 10 28 -6 -8 3 -20 -8 -16 -5 26 -14 13 12 13 20 -0 -16 19 18 8 23 -4 -20 -20 -20 -20 -20 -20 -20 -20 -20
12 3 -10 -20 -20 -20 -20 -20 -9 2 -20 -20 -14 -1 8 32 8 -11 -5 0 -4 8 14 14 13 12 5 8 18 37 19 23 18 19 -18 -20 -3 -20 -20 -20 -20 -20 -20 -20 -20
-19 -13 -19 -20 -20 -20 -20 -2 5 -10 -16 -20 -7 4 7 29 24 -20 -5 -20 -20 -18 10 17 10 18 21 19 17 23 30 20 7 13 6 -20 -12 -20 -20 -20 -20 -20 -20 -20 -20
-20 -20 -19 -10 -20 -20 -20 -17 9 -20 3 -16 -19 -13 14 12 7 3 -6 -20 -20 -20 8 15 9 16 16 2 17 29 9 3 -8 -1 -3 -20 -20 -20 -20 -20 -20 -20 -20 -20 -20
-20 -20 -20 -20 -20 -12 -20 -11 -20 2 -4 7 2 11 -6 27 0 22 -15 -3 -20 -20 -20 0 8 10 7 7 0 33 -6 -7 -7 4 7 -20 -20 -20 -20 -20 -20 -20 -20 -20 -20
-20 -20 -18 -20 -8 -20 -7 -20 -20 12 -1 6 1 -6 12 33 -16 20 5 -15 -20 -20 -20 -18 6 16 -11 1 8 24 5 -7 12 10 7 -10 -20 -20 -18 -20 -20 -20 -20 -20 -20
-20 -20 -20 -20 -20 -20 -20 -20 -14 -12 -5 -17 1 28 11 20 5 36 12 -19 -20 -20 -7 24 18 14 14 10 -12 0 -16 20 19 10 -20 -9 -16 -20 -19 -20 -20 -20 -20 -20 -20
-20 -20 -20 -20 -20 -20 -20 -20 -20 -20 -19 -20 -20 -20 -20 -3 10 28 23 -14 -18 -20 18 6 9 13 14 13 -1 -1 -20 18 -13 -11 5 16 -14 -20 -20 -20 -20 -20 -20 -20 -20
-20 -20 -20 -20 -20 -20 -20 -20 -20 -20 -20 -20 -20 -20 -20 -20 -20 7 25 8 -2 -12 -20 -0 23 22 2 -8 -20 -9 -20 -20 -20 10 -7 -9 -19 -20 -20 -20 -20 -20 -20 -20 -20
-20 -20 -20 -20 -20 -20 -20 -20 -20 -20 -20 -20 -20 -20 -8 -20 -20 -19 15 4 -5 3 -20 14 29 -8 -20 -20 -20 -20 -20 -20 -19 -11 -6 -8 -20 -20 -20 -20 -20 -20 -20 -20 -20
-20 -20 -20 -20 -20 -20 -20 -20 -20 -20 -20 -20 -20 -20 -20 -19 -14 -6 -19 15 27 -8 -20 -20 -1 -20 -20 -20 -20 -20 -20 -20 -20 -20 -20 -20 -20 -20 -20 -20 -20 -20 -20 -20 -20
-20 -20 -20 -20 -20 -20 -20 -20 -20 -20 -20 -20 -20 -20 -20 -20 -20 -20 -20 -20 3 13 18 -14 -7 -15 -13 -20 -20 -14 -20 -20 -20 -20 -20 -20 -20 -20 -20 -20 -20 -20 -20 -20 -20

GFSSW_prec_radar_096.txt.gz
Reflectivity
12 13 16 -7 -3 2 -20 16 11 -7 -20 -20 -17 6 -13 -20 -20 -20 -20 -20 -20 26 36 15 -13 9 -20 -13 -15 -3 14 38 -20 2 -20 -4 -8 -20 -20 -20 -20 -18 11 -20 -20
8 14 9 8 12 12 -19 15 -11 -19 -20 -11 4 -14 -20 -20 -20 -20 -13 -18 -20 -20 20 -20 7 11 -20 -20 13 24 14 11 -20 -20 -20 11 -19 -20 -20 -20 -20 -20 -20 -19 -1
9 11 14 3 14 12 -1 12 -7 -20 -1 -3 -20 -20 -20 -20 -20 5 -20 -20 -20 -20 -20 -20 20 14 -2 25 20 -11 -20 -15 -20 5 2 19 21 10 -20 -20 -20 -20 -20 -13 -5
-1 7 11 8 -16 12 6 9 -19 14 -20 -20 -20 -20 -20 -20 -10 -20 -20 -20 -20 -20 -20 -13 27 14 11 11 -20 9 -20 -19 14 19 29 23 18 27 -18 -20 -20 -20 -20 -19 -2
5 3 14 -9 8 2 1 6 6 -3 -20 -20 -20 -20 -12 -6 -6 -20 -20 -20 -20 -20 -20 8 18 21 11 -13 12 -18 -20 -19 15 23 2 18 15 38 -19 16 3 -20 -20 -20 -20
3 8 -16 8 8 8 11 -20 -2 -15 -20 -20 -20 -20 -20 6 -20 -20 -20 -20 -20 -20 -20 -9 18 29 15 1 -9 -3 -5 -12 17 22 -20 27 30 13 33 15 -20 -19 -20 -20 -20
5 10 9 7 13 7 9 -20 -19 -20 -20 -20 -20 -20 -20 -20 -20 -20 -20 -20 -20 -20 -20 5 -2 30 9 4 -3 25 -20 21 4 9 18 8 22 37 -16 23 13 -20 -20 -20 -20
-0 -19 3 14 6 12 5 -20 -20 -20 -20 -20 -20 -20 -2 -20 -20 -20 -20 -20 -20 -20 -20 -12 -5 -9 39 21 4 27 -12 13 -18 -9 22 34 7 10 32 20 12 -20 -20 -20 -20
1 3 8 6 14 10 -20 -20 -20 -20 -20 -20 -20 -14 6 -20 -20 -20 -20 -20 -20 -20 -20 -20 -16 -17 29 32 25 38 0 -20 -18 -0 25 21 17 3 33 29 15 -20 -20 -20 -20
-7 -5 3 13 12 -10 -20 -20 -20 -20 -20 -20 -20 -17 4 3 -20 -20 -20 -20 -20 -20 -3 -12 12 11 19 32 16 5 -0 -20 -20 -20 -20 -8 3 -19 -19 -17 -20 -20 -20 -20 -20
-19 3 12 10 9 -20 -20 -20 -20 -20 -20 -20 -20 -20 -20 -11 -20 -20 -20 -20 -20 -1 10 -20 -5 3 1 4 14 14 -20 -18 -12 -0 -19 -20 -10 17 3 -20 -20 -20 -20 -20 -20
-18 -1 2 9 1 -20 -20 -20 -20 -20 -20 -20 -20 -20 -20 -3 -20 -20 -20 -17 1 16 -20 -19 -20 5 20 22 27 32 0 -20 -0 -11 2 -20 -8 16 5 -20 -20 -20 -20 -20 -20
1 11 14 12 -20 -20 -20 -20 -20 -20 -20 -20 -20 -20 -20 -20 -20 -13 -20 -20 -5 -9 9 5 8 15 20 23 38 25 -2 -20 -7 11 -18 -13 -1 -9 15 -20 -20 -20 -20 -20 -20
10 -1 11 -18 -20 -20 -20 -20 -20 -20 -20 -20 -20 -20 4 -9 -19 -20 -20 -20 -12 10 -20 -20 -14 9 19 20 8 -12 -20 11 18 -19 26 21 -1 11 -17 -7 -20 -20 -20 -20 -20
14 14 -7 -20 -20 -20 -20 -20 -20 -20 7 -19 -20 -20 -20 20 -20 -20 -20 -16 -20 7 11 20 18 7 17 3 10 -18 -4 1 16 6 17 21 7 -17 -10 -20 -20 -20 -20 -20 -20
9 13 -20 -20 -20 -20 -20 -20 -20 -15 -1 -19 -20 -15 18 20 -8 -16 -20 -20 -20 -15 20 13 -11 12 19 5 11 25 7 -6 30 21 22 -18 -20 -1 -11 -20 -20 -20 -20 -20 -20
13 10 -20 -20 -20 -20 -20 -20 -15 -14 -4 0 8 -17 13 22 -4 -20 -20 -20 -13 -8 22 20 18 16 -20 3 23 23 27 6 8 15 -12 -20 -15 -17 -20 -20 -20 -20 -20 -20 -20
-18 4 -20 -20 -20 -20 -20 -5 -19 -20 -20 -18 -13 -11 -19 23 -10 -20 -20 -20 -20 -20 16 -17 -2 -3 -11 0 12 2 20 23 13 9 -20 -1 -7 -20 -20 -20 -20 -20 -20 -20 -20
-20 -20 -12 -20 -20 -20 -20 -18 -7 -18 10 -16 -20 -20 -1 23 18 -3 -20 -20 -20 -20 14 4 9 -19 17 -1 -6 21 3 -2 -13 -0 -20 -20 -20 -20 -20 -20 -20 -20 -20 -20 -20
-20 -20 -20 -20 -20 -20 -20 -20 -20 2 -20 -20 2 -11 14 18 7 -3 -19 -20 -20 -20 -4 -20 2 9 4 -17 -0 -15 -6 11 -1 -15 13 -20 -20 -20 -20 -20 -20 -20 -20 -20 -20
-20 -20 -20 -20 -20 -20 -20 -20 -20 -20 -8 -1 -11 -5 -11 13 9 -15 -2 -20 -20 -20 -20 -20 -9 10 -3 -20 -20 -11 -19 18 -16 -8 9 -20 -20 -20 -20 -20 -20 -20 -20 -20 -20
-20 -20 -20 -20 -20 -20 -20 -20 -20 -20 -20 -20 -20 -13 -20 -16 16 16 6 -16 -20 -20 -11 -20 19 3 -20 -20 -20 -20 -20 -19 -19 -20 -17 -19 -20 -20 -20 -20 -3 -20 -20 -20 -20
-20 -20 -20 -20 -20 -20 -20 -20 -20 -20 -20 -20 -20 -20 -20 -20 19 -5 -20 -20 -20 -20 32 -2 10 14 8 5 7 -19 -20 -20 -19 -0 15 19 -20 -20 -20 -20 -20 -20 -20 -20 -20
-20 -20 -20 -20 -20 -20 -20 -20 -20 -20 -20 -20 -20 -20 -20 -20 -0 7 -13 -14 -12 -1 13 14 7 16 14 -20 -20 -20 -20 -15 -20 2 -20 11 -6 -20 -20 -20 -20 -20 -20 -20 -20
-20 -20 -20 -20 -20 -20 -20 -20 -20 -20 -20 -20 -20 -20 -20 -20 -20 -20 13 -17 -7 7 -20 -10 31 25 -20 -20 -20 -20 -20 -18 6 -10 1 15 -16 -10 -20 -20 -20 -20 -20 -20 -20
-20 -20 -20 -20 -20 -20 -20 -20 -20 -20 -20 -20 -20 -20 -20 -20 -20 -20 5 4 -5 -15 -20 -20 -16 -16 -20 -20 -20 -20 -20 -20 -20 -20 -18 -20 -20 -20 -20 -20 -20 -20 -20 -20 -20
-20 -20 -20 -20 -20 -20 -20 -20 -20 -20 -20 -20 -20 -20 -20 -20 -20 -20 2 7 -11 9 -6 -20 11 -10 -20 -20 -20 -20 -20 -20 -20 -20 -20 -20 -14 -20 -20 -20 -20 -20 -20 -20 -20

GFSSW_prec_radar_099.txt.gz
Reflectivity
-20 -13 4 8 13 16 5 -20 13 -13 -15 -6 -20 6 -20 -13 -11 -20 -20 -20 -20 -16 -20 28 -20 -20 0 -20 -2 -3 8 35 -19 -20 -20 -2 21 -20 -20 -20 5 13 -11 -20 -20
-20 -16 8 7 -5 16 -3 -17 9 -3 -20 15 1 -20 -20 -20 -20 -20 -20 -12 -17 -20 -4 25 5 26 9 -20 7 14 1 32 -10 -20 -19 14 9 5 -13 -20 -19 -17 -20 -6 -14
-2 -6 -13 14 11 -16 16 -1 8 -20 -0 5 -17 -20 -20 -20 -14 -20 -20 -20 -20 -20 -20 -5 4 25 9 -19 6 -15 6 11 28 22 -17 13 9 14 15 -20 -20 -17 -20 -3 13
12 8 8 0 10 -2 4 -20 -20 17 -1 -20 -20 -20 -20 -20 -4 -20 -20 -20 -20 -20 -20 -16 -20 18 19 2 -20 -20 -20 2 19 13 13 12 13 10 -12 -20 -20 -20 -20 -14 7
-1 1 3 -20 4 -11 14 8 -20 11 -20 -20 -20 -20 -20 -10 -2 -20 -20 -20 -20 -20 -20 -18 11 -1 30 3 -20 12 -20 -20 25 32 24 27 15 37 36 12 -20 -20 -13 -20 -7
-2 2 1 4 1 -8 8 8 -20 -20 -20 -20 -20 -20 -20 -9 -20 -20 -20 -20 -20 -20 -20 -20 14 23 16 0 -18 11 -20 -20 16 34 39 27 7 -17 17 3 15 9 -20 -20 -20
11 2 -20 -1 -20 -9 13 2 -20 -20 -20 -20 -20 -20 -20 -20 -20 -20 -20 -20 -20 -20 -20 -20 16 31 36 8 -15 -20 -20 -3 18 8 35 19 25 -20 10 8 -20 22 -7 -20 -20
12 3 -0 5 3 7 4 -20 -20 -20 -20 -20 -20 -20 -20 -20 -20 -20 -20 -19 -20 -20 -20 -20 -20 -15 28 23 -10 8 -13 12 -3 -8 14 18 4 -16 38 28 -7 18 21 24 -20
3 15 -2 3 -11 10 -18 -20 -20 -20 -20 -20 -20 -20 -20 -20 -20 -20 -20 -20 -20 -18 -20 -7 -20 -20 10 35 13 -20 -5 -20 -20 -12 -6 21 16 32 23 33 36 30 -1 -20 -20
14 0 2 13 5 5 -20 -20 -20 -20 -20 -20 -20 -20 -20 -20 -20 -20 -20 -20 -20 -20 -20 -20 -16 6 21 29 15 -15 -2 -9 -20 1 5 -20 15 27 18 23 31 13 26 -14 -20
9 13 -2 16 -8 -20 -20 -20 -20 -20 -20 -20 -20 -20 -20 -20 -20 -20 -20 -20 -20 -20 -20 -20 -20 -20 9 27 35 -20 12 14 -20 -7 2 -20 2 0 28 38 32 32 -5 -20 -20
-1 12 13 7 -7 -20 -20 -20 -20 -20 -20 -20 -20 -20 -20 -20 -20 -20 -20 -20 -20 -9 -20 -20 -20 -20 9 17 28 30 22 5 -18 7 11 18 18 31 14 21 9 16 3 -19 -20
12 13 12 -14 -20 -20 -20 -20 -20 -20 -20 -20 -20 -20 -20 -20 -20 -20 -20 -20 -20 -20 -9 -14 -13 -13 -15 -1 -1 8 18 10 -0 -20 6 16 12 20 13 8 -4 13 -20 -20 -20
7 11 12 -20 -20 -20 -20 -20 -20 -20 -20 -20 -20 -20 -16 -19 -20 -20 -20 -20 -6 -0 -20 -20 -20 -20 -20 -7 -2 12 21 -19 13 13 8 7 -0 3 -19 -18 -20 -20 -20 -20 -20
9 11 7 -20 -20 -20 -20 -20 -20 -20 -20 -20 -7 -20 -20 -20 -20 -20 -20 -20 -20 -20 6 11 -19 -16 12 0 -11 19 21 4 -19 5 6 24 9 -7 2 11 -4 -20 -20 -20 -20
-8 10 -20 -20 -20 -20 -20 -20 -20 -20 -20 -20 -20 -20 15 0 -20 -16 -20 -20 -15 1 -20 13 3 11 15 9 25 15 29 17 21 14 -10 -20 14 -10 -20 -20 -20 -20 -20 -20 -20
-11 -16 -20 -20 -20 -20 -20 -20 -20 -20 -20 -19 -0 -20 15 -3 -19 -14 -20 -20 -20 19 17 29 33 19 17 -1 22 22 13 19 16 0 -7 -19 19 -20 -20 -20 -20 -20 -20 -20 -20
-20 -20 -20 -20 -20 -20 -20 -20 -20 -19 -20 -20 -20 -20 -19 -3 -20 -20 -20 -20 -20 24 13 8 11 12 -19 -20 0 21 3 -20 7 11 -20 -20 -20 -20 -20 -20 -20 -20 -20 -20 -20
-20 -20 -20 -20 -20 -20 -20 -20 -20 -20 -20 -20 -20 -20 2 22 2 -18 -20 -20 -20 18 25 -19 -6 18 -20 -20 -19 19 21 0 -12 -4 -20 -20 -20 -20 -20 -20 -20 -20 -20 -20 -20
-20 -20 -20 -20 -20 -20 -20 -20 -20 -14 -20 -20 -15 -20 -11 11 -19 -20 -20 -20 -20 -18 -19 -20 6 -6 -19 5 23 15 4 -3 -20 -20 -14 -20 -20 -20 -20 -20 -20 -20 -20 -20 -20
-19 -15 -20 -20 -20 -20 -20 -20 -20 -20 -20 -20 -19 -16 -20 -2 22 -20 -19 -20 -20 -20 -20 -20 -20 -8 -20 -18 -16 6 -18 7 -8 -20 -20 -20 -20 -20 -20 -20 -20 -20 -20 -20 -20
1 -20 -20 -20 -20 -20 -20 -20 -20 -20 -20 -20 -20 -20 -20 -19 21 -20 -20 -20 -20 -20 -20 -20 -14 -19 -20 -2 -12 -20 -19 5 -20 -20 -20 -20 -20 -20 -20 -20 -20 -20 -20 -20 4
-18 -20 -20 -20 -20 -20 -20 -20 -20 -20 -20 -20 -20 -20 -20 -13 18 -20 -20 -19 -19 -6 8 -19 -3 -20 -20 3 -7 -20 -20 -17 -20 -19 -20 -20 -20 -20 -20 -20 -20 -20 -20 -20 -20
-20 -20 -20 -20 -20 -20 -20 -20 -20 -20 -20 -20 -20 -20 -20 -15 -20 -18 -20 -20 6 -15 16 3 -5 3 -20 -20 -20 -20 -18 -18 -20 -20 15 18 10 -20 -20 -20 -20 -20 -20 -20 -20
-20 -20 -20 -20 -20 -20 -20 -20 -20 -20 -20 -20 -20 -20 -20 -20 -11 -13 -7 -18 -11 4 -17 6 9 -20 -20 -20 -20 -20 -20 -19 -20 -6 10 -6 8 -11 -20 -20 -20 -20 -20 -20 -20
-20 -20 -20 -20 -20 -20 -20 -20 -20 -20 -20 -20 -20 -20 -20 -20 -20 -20 -7 -16 -20 -20 -20 -20 -20 -20 -20 -20 -20 -20 -20 -20 -13 -20 -20 3 -20 -20 -20 -20 -20 -20 -20 -20 -20
-20 -20 -20 -20 -20 -20 -20 -20 -20 -20 -20 -20 -20 -20 -20 -20 -20 -20 -19 -19 4 -20 -6 -17 -20 -20 -20 -20 -20 -20 -20 -20 -14 -20 -20 -20 -20 -20 -17 -16 -20 -6 -17 -20 -20

GFSSW_prec_radar_102.txt.gz
Reflectivity
-18 -1 3 9 7 -11 5 -1 -16 12 -15 -20 8 13 -6 -10 -20 -20 -20 -20 -20 -20 -20 -20 -20 -20 -7 -20 -2 18 13 18 24 -6 -20 -20 -16 -20 15 8 3 -20 -20 -20 -20
15 9 1 -19 15 5 -11 10 -16 -2 -20 13 8 1 -10 -20 -20 -20 -20 -20 27 -20 -20 -20 -20 -20 23 25 -4 27 16 -16 1 20 -13 -12 5 -20 8 16 1 -20 -20 -20 -20
7 11 11 10 -11 6 -20 7 -3 -20 16 5 -6 -19 -20 -20 -20 -20 -20 -20 -20 -20 -20 -20 -5 18 7 12 10 33 -12 -19 5 28 25 24 -5 13 9 -11 -20 -5 -18 -18 -20
15 13 12 10 -20 8 -20 4 5 -20 13 -20 -20 -20 -20 -20 -20 -20 -20 -20 -20 -20 -20 -20 -17 26 8 8 11 29 4 -16 29 35 32 31 -6 27 33 -7 -20 -20 -7 -4 31
5 14 7 7 11 -14 4 6 4 -17 -10 -1 -20 -20 -20 -20 -20 -20 -20 -20 -20 -20 -20 -20 -14 19 2 14 -8 3 -20 -20 24 38 32 6 31 -10 -7 -20 21 -20 4 32 34
-12 10 5 0 7 2 -4 8 -11 -20 -20 -8 -20 -20 -20 -20 -20 -20 -20 -20 -20 -20 -20 -20 -20 24 8 4 -7 -4 -3 -7 23 39 27 36 13 13 -1 19 -20 -20 22 16 3
11 6 12 7 8 7 3 1 -19 -20 -20 -20 -7 -20 -20 -20 -20 -20 -20 -20 -20 -20 -20 -20 2 -17 10 21 23 -20 11 -13 14 26 39 21 14 24 14 -19 17 15 -17 -20 -20
11 8 12 4 12 -17 5 -20 -20 -20 -20 -20 -20 -20 -20 -20 -20 -20 -20 -20 -20 -20 -20 -20 -20 22 21 31 15 11 -11 17 14 21 17 37 33 -3 30 -17 7 -20 -20 -20 -11
-19 11 6 10 -3 13 -18 -20 -20 -20 -20 -20 -20 -20 -20 -20 -20 -20 -20 -20 -20 -20 -20 -20 -20 7 4 28 26 18 -7 -13 11 15 19 32 25 24 -9 -9 -4 -20 -20 -20 -20
-5 1 8 11 1 11 -20 -20 -20 -20 -20 -20 -20 -20 -20 -20 -20 -20 -20 -20 -20 -20 -20 -20 -16 -11 10 15 21 -20 10 -20 -11 1 26 22 25 44 19 22 19 16 -20 -20 -20
-4 7 5 10 11 -18 -20 -20 -20 -20 -20 -20 -20 -20 -20 -20 -20 -20 -20 -20 -20 -16 -20 -20 -20 -20 10 18 26 21 -20 -20 -20 -1 2 -0 9 29 17 17 20 -20 -20 18 -20
-19 -4 -20 11 -1 -20 -20 -20 -20 -20 -20 -20 -20 -20 -20 -20 -20 -20 -20 -19 -20 -20 -20 -20 -20 -20 -17 16 22 32 -20 -20 -20 -4 14 14 20 22 28 18 10 27 25 -13 -19
-19 6 1 9 -20 -20 -20 -20 -20 -20 -20 -20 -20 -20 -20 -20 -20 -20 -2 0 -20 -20 -20 -20 -13 -20 6 16 12 27 -20 -20 1 11 18 23 28 -6 13 30 32 35 39 11 15
-13 -1 1 -3 -20 -20 -20 -20 -20 -20 -20 -20 -20 -20 -20 -20 -20 -20 -20 -20 -13 -20 -20 -20 -6 -20 -20 12 27 -17 -20 21 30 23 17 33 15 24 12 2 16 15 40 16 31
-19 -1 -2 -20 -20 -20 -20 -20 -20 -20 -20 -20 -20 -20 -20 -13 -20 -19 -20 -20 -20 -20 -18 -20 -20 -20 13 -1 19 33 14 -20 0 -20 19 8 -19 -11 14 18 24 6 18 17 -18
-20 -11 -20 -20 -20 -20 -20 -20 -20 -20 -20 -20 -20 -20 -6 -9 -20 -20 -20 -20 -20 -20 -14 16 -17 28 16 10 11 30 13 14 -20 -15 -11 -20 -19 -3 9 -9 -9 -19 18 11 -20
-20 -20 -20 -20 -20 -20 -20 -20 -20 -20 -20 -20 -16 -20 -16 -20 -15 -18 -20 -20 -20 -9 12 -15 29 19 -1 -12 -1 31 21 19 20 7 -20 -20 3 8 -2 -19 -16 -19 -12 13 -15
-20 -20 -20 -20 -20 -20 -20 -20 -20 -20 -20 -20 -20 -20 -20 -20 -18 -20 -20 -16 -9 5 20 23 25 15 -20 -20 -20 10 21 12 9 -19 4 -5 -19 -1 -7 -20 -20 -20 -13 -13 -13
-20 -20 -20 -20 -20 -20 -20 -20 -20 -20 -20 -20 -20 -20 -17 -2 -10 -20 -20 -20 -20 -19 -1 -9 8 13 -6 -12 -20 25 -10 13 -18 -20 -20 -16 -20 -20 -20 -20 -15 -20 -20 -20 -20
-20 -20 -20 -20 -20 -20 -20 -20 -20 -20 -20 -20 -20 -20 -20 -4 -20 -20 -20 -20 -20 -20 -12 -20 -12 -13 -15 -7 -20 -7 20 5 -18 -9 -20 -20 -20 -20 -20 -20 -20 -20 -20 -20 -20
-20 -20 -20 -20 -20 -20 -20 -20 -20 -20 -20 -20 -20 -16 -20 -20 0 -20 -20 -20 -20 -20 -20 -20 -20 -20 -20 -20 -2 -10 3 -20 -20 -20 -20 -20 -20 -20 -20 -20 -20 -20 -20 -20 -20
-1 -20 -20 -20 -20 -20 -20 -20 -20 -20 -20 -20 -20 -20 -20 -20 -9 -20 -20 -20 -20 -20 -20 -20 -20 1 3 -19 -14 13 -20 -20 -20 -20 -20 -20 -20 -20 -20 -20 -20 -20 -20 -20 -20
5 -20 -20 -20 -20 -20 -20 -20 -20 -20 -20 -20 -20 -20 -20 4 -1 -18 -20 -20 -20 -19 -20 -19 -10 -20 -20 -14 -20 -20 -20 -20 -20 -20 -20 -20 -20 -20 -20 -20 -20 -20 -20 -20 -20
3 -20 -20 -20 -20 -20 -20 -20 -20 -20 -20 -20 -20 -20 -20 -20 -20 -20 -20 -20 -9 -16 -20 -6 1 -11 -20 -20 -20 -20 -20 -20 -20 -20 -20 -20 -20 -20 -20 -20 -20 -20 -20 -20 -20
-2 -20 -20 -20 -20 -20 -20 -20 -20 -20 -20 -20 -20 -20 -20 -20 -20 -20 -20 -20 -20 -20 -20 -20 -20 -11 -20 -20 -20 -20 -20 -20 -20 -20 -15 -20 -20 -20 -20 -20 -20 -20 -20 -20 -20
-20 -20 -20 -20 -20 -20 -20 -20 -20 -20 -20 -20 -20 -20 -20 -20 -20 -20 -20 -20 -20 -20 -20 -20 -20 -20 -20 -20 -20 -20 -20 -20 -20 -20 6 2 -20 -20 -20 -20 -20 -20 -20 -20 -20
-15 -20 -20 -20 -20 -20 -20 -20 -20 -20 -20 -20 -20 -20 -20 -20 -20 -20 -20 -20 -17 -20 -20 -20 -20 -20 -20 -20 -20 -20 -20 -20 -20 -20 -20 -18 -20 -20 -20 -20 -20 -20 -20 -20 -20

GFSSW_prec_radar_105.txt.gz
Reflectivity
-20 1 8 -3 12 14 -20 -20 9 -15 -15 -20 10 6 0 -14 -20 -20 -20 -20 -20 -13 13 -20 -20 -20 -20 -20 -15 -11 25 3 -20 1 20 8 -20 -20 -5 17 -9 -20 -20 -20 -15
1 13 14 4 1 12 11 -20 11 -10 -20 1 5 17 8 -20 -20 -20 -20 -20 -20 25 -20 -20 -20 -20 -20 -11 -5 5 16 8 -20 -20 -5 29 19 1 10 16 13 -20 -20 -20 21
-20 14 13 -6 15 9 11 10 14 13 5 -18 -3 3 -20 -20 -20 -20 -20 -20 -20 -20 -20 -20 -20 -20 -20 11 -20 -15 -15 -1 -20 -20 7 31 24 27 9 19 12 -20 -13 -19 34
-18 6 9 11 8 10 8 10 14 1 -20 3 -6 5 -20 -20 -20 -20 -20 -20 -20 -20 -20 -20 -20 -18 -2 -11 -18 18 -20 -18 -20 10 19 30 30 33 22 31 -6 -20 -20 -13 -19
-19 2 8 -1 9 13 10 10 15 -14 -20 -20 5 -20 -20 -20 -20 -20 -20 -20 -20 -20 -20 -20 -20 -9 7 -20 -10 32 -16 -20 -4 -11 17 24 37 32 1 -6 -20 -19 19 -17 5
-3 3 12 12 13 10 13 -0 13 -20 -20 -20 5 -20 -20 -20 -20 -20 -20 -20 -20 -20 -20 -20 -2 -20 21 -14 -9 25 0 -0 21 18 19 38 44 14 -18 2 -20 9 0 32 15
-8 8 2 12 3 14 7 14 12 -10 -20 -1 2 -20 -20 -20 -20 -20 -20 -20 -20 -20 -20 -20 -19 19 19 8 -10 -20 17 5 1 20 14 35 32 33 -20 -20 12 -17 -3 28 -11
-6 -3 8 6 4 7 12 11 -20 -20 -20 6 4 -20 -20 -20 -20 -20 -20 -20 -20 -20 -20 -20 -20 16 11 26 20 24 17 10 -20 19 19 38 38 41 -18 -19 12 14 22 25 14
-17 4 -3 5 10 11 12 -6 -20 -20 -20 -4 -20 -20 -20 -20 -20 -20 -20 -20 -20 -20 -20 -20 -20 -7 -19 6 18 37 9 17 20 10 19 31 39 40 24 1 3 -8 5 -20 19
-20 -20 -4 -18 10 13 3 -20 -20 -20 -20 -20 -20 -20 -20 -20 -20 -20 -20 -20 -20 -20 -20 -20 -20 -0 -6 8 10 29 -10 -7 16 21 23 18 26 34 35 16 2 -20 -14 -20 -16
-20 -20 -20 -3 1 10 -20 -20 -20 -20 -20 -20 -20 -20 -20 -20 -20 -20 -20 -20 -20 -20 -20 -20 -20 -20 -19 10 13 28 6 -4 -7 -6 3 -9 20 38 37 35 14 10 -20 -20 -20
-20 -20 -20 5 6 -20 -20 -20 -20 -20 -20 -20 -20 -20 -20 -20 -20 -20 -20 -20 -20 -20 -20 -20 -20 -20 -20 10 7 26 -3 6 -7 18 22 18 18 27 35 31 34 16 -9 -20 -20
-20 -20 -17 3 -11 -20 -20 -20 -20 -20 -20 -20 -20 -20 -20 -20 -20 -20 -20 -20 -20 -20 -20 -20 -20 -20 -3 33 5 13 -15 22 -13 19 14 15 8 9 30 24 34 20 -16 -20 -20
-20 -20 -4 -5 -7 -20 -20 -20 -20 -20 -20 -20 -20 -20 -20 -20 -20 -20 -20 -20 -20 -20 -20 -20 -20 -20 -20 22 -19 -6 -18 -2 18 18 11 24 11 16 20 22 16 34 22 -20 -20
-19 -14 1 -10 -20 -20 -20 -20 -20 -20 -20 -20 -20 -20 -20 -20 -20 -19 -20 -20 -4 -20 -20 -20 -20 -19 5 -20 11 33 -16 -20 -18 22 14 29 7 14 29 30 33 29 -9 -20 -20
-17 -18 13 -20 -20 -20 -20 -20 -20 -20 -20 -20 -20 -20 -11 -20 -20 -20 -20 -20 -20 -20 -14 -20 -20 -2 -5 9 28 34 -5 -20 -16 -3 -12 3 10 9 15 16 29 29 8 -12 -4
1 -1 0 -20 -20 -20 -20 -20 -20 -20 -20 -20 -20 -20 -20 -20 -20 -20 -20 -20 2 9 4 0 29 26 22 13 30 34 1 16 21 22 -20 -19 -11 -3 -3 16 13 19 26 14 26
1 -10 -19 -20 -13 -20 -20 -20 -20 -20 -20 -20 -20 -20 -20 -13 -20 -20 -20 -19 -20 23 24 17 10 18 -20 10 20 30 17 -18 -17 -19 -16 -20 -17 1 -20 -11 -19 -20 11 12 11
-1 -18 -19 -20 -20 -20 -20 -20 -20 -20 -20 -20 -20 -20 -12 -15 -4 -20 -20 -20 -20 -20 -5 -20 -19 9 -20 -20 -3 34 -7 -5 -20 -20 -20 -20 -20 -20 -20 1 7 -20 -20 9 -12
-3 -7 -13 -10 -20 -20 -20 -20 -20 -20 -20 -20 -20 -20 -20 -10 -20 -20 -20 -20 -20 -20 -20 -20 -20 -20 -20 -20 -16 32 18 5 -20 -20 -20 -20 -20 -20 -20 -7 -6 8 -15 -1 8
-20 5 -4 -20 -20 -20 -20 -20 -20 -20 -20 -20 -20 -20 -20 -20 -20 -20 -20 -20 -20 -20 -20 -20 -20 -20 -20 -20 -20 -1 -13 20 -20 -20 -20 -20 -20 -20 -20 -20 -20 -16 -8 -5 -20
-20 15 5 -20 -20 -20 -20 -20 -20 -20 -20 -20 -20 -20 -20 -12 3 -20 -20 -20 -20 -20 -20 -20 -20 -20 -20 -20 -20 -20 -20 -14 -16 -20 -20 -20 -20 -20 -20 -20 -20 -20 -20 -20 -20
-19 18 -16 -20 -20 -20 -20 -20 -20 -20 -20 -20 -20 -20 -20 -15 -6 -20 -20 -20 -20 -20 -20 -18 -20 -20 -20 -20 -20 -20 -20 -20 -20 -20 -20 -20 -20 -20 -20 -20 -20 -20 -20 -20 -20
-3 14 -20 -20 -20 -20 -20 -20 -20 -20 -20 -20 -20 -20 -20 -20 -20 -20 -20 -20 -16 -8 -6 -17 -11 -20 -20 -4 -20 -20 -20 -20 -20 -20 -20 -20 -20 -20 -20 -20 -20 -20 -20 -20 -20
19 -6 -20 -20 -20 -20 -20 -20 -20 -20 -20 -20 -20 -20 -20 -20 -20 -20 -20 -20 -20 -20 -19 -14 -20 -2 -20 -20 -20 -20 -20 -20 -20 -20 -20 -20 -20 -20 -20 -20 -20 -20 -20 -20 -20
28 -6 -20 -20 -20 -20 -20 -20 -20 -20 -20 -20 -20 -20 -20 -20 -20 -20 -20 -20 -20 -20 -20 -20 -20 -20 -20 -20 -20 -20 -20 -20 -20 -20 -20 -20 -20 -20 -20 -20 -20 -20 -20 -20 -20
17 -12 -20 -20 -20 -20 -20 -20 -20 -20 -20 -20 -20 -20 -20 -20 -20 -20 -20 -20 -20 -13 -4 -20 -20 -20 -20 -20 -20 -20 -20 -20 -20 -20 -20 -20 -20 -20 -20 -20 -20 -20 -20 -20 -20

GFSSW_prec_radar_108.txt.gz
Reflectivity
-19 -20 -1 0 -20 -10 15 13 -16 6 -8 3 5 13 16 12 -20 -20 -20 -20 -20 -20 -6 -20 -20 -20 -20 -20 -20 11 16 9 -14 -20 -20 16 15 -20 -15 12 -6 9 -20 -19 10
-4 -6 5 6 5 -7 14 14 12 14 5 12 4 1 7 -11 -20 -20 -20 -20 -13 21 19 -17 -20 -20 -20 -20 -20 5 9 -20 -20 -20 -20 -11 21 15 8 18 -2 -14 4 -11 1
11 -2 -2 2 1 2 6 9 12 13 11 8 5 -5 1 -20 -20 -20 -20 -20 -17 -20 -20 -20 -20 -20 -20 -20 -20 -17 -1 -20 -20 -20 -20 -20 17 21 30 26 9 -20 -20 10 -14
1 -2 -7 5 5 10 11 12 15 12 2 -20 9 -20 -20 -20 -20 -20 -20 -20 -20 -20 -20 -20 -20 -20 -3 -14 -20 1 -20 -20 -20 -20 -20 18 8 22 33 12 -14 -17 -20 12 19
-5 -4 -12 4 -9 6 -18 17 14 14 -17 -20 5 -20 -20 -20 -20 -20 -20 -20 -20 -20 -20 -20 -20 -3 -18 -20 -20 15 -20 -20 -20 -20 -20 -13 19 18 26 24 4 -13 23 10 12
-15 0 7 -12 -6 -11 3 9 8 14 -19 -20 -12 -20 -20 -20 -20 -20 -20 -20 -20 -20 -20 -18 2 7 9 7 14 1 -20 -20 -20 -20 -20 15 12 19 16 26 -20 4 -15 -20 -19
-16 2 0 4 -1 -20 9 12 2 -8 -20 -18 -13 -20 -20 -20 -20 -20 -20 -20 -20 -20 -20 -20 -20 -9 11 -11 34 5 -18 -20 -20 -20 -20 27 18 19 27 31 -17 -1 -18 30 -13
-2 -5 0 3 -2 -3 2 8 12 -20 -20 -20 2 -20 -20 -20 -20 -20 -20 -20 -20 -20 -20 -20 -20 -15 5 -14 -13 32 11 -3 -20 -20 5 22 -4 16 23 37 24 1 16 23 -16
11 -4 -20 6 -8 5 7 7 -20 -20 -20 -20 -20 -20 -20 -20 -20 -20 -20 -20 -20 -20 -20 -20 -20 -20 -1 -5 -20 10 12 -8 3 -20 -1 15 1 14 25 35 31 18 17 19 5
26 -7 -20 5 -20 1 6 -20 -20 -20 -20 -20 -20 -20 -20 -20 -20 -20 -20 -20 -20 -20 -20 -20 -20 -20 -20 -10 -20 -17 18 20 9 -20 -20 -6 4 21 37 44 32 22 20 22 -20
38 1 -20 -20 -20 -9 -20 -20 -20 -20 -20 -20 -20 -20 -20 -20 -20 -20 -20 -20 -20 -20 -20 -20 -20 -20 -20 -20 19 11 16 25 -20 -20 -20 11 -2 13 38 42 29 30 17 17 22
30 7 -20 -20 6 -20 -20 -20 -20 -20 -20 -20 -20 -20 -20 -20 -20 -20 -20 -20 -20 -20 -20 -20 -20 -20 -20 -20 22 17 9 10 -20 20 21 7 7 26 35 38 40 31 -20 16 21
37 30 -20 -8 6 -18 4 -20 -20 -20 -20 -20 -20 -20 -20 -20 -20 -20 -20 -20 -20 -20 -20 -20 -20 -20 -20 -7 8 -0 18 -19 6 14 22 19 27 34 34 34 27 17 7 -20 -20
35 24 -3 0 -4 -15 -18 -20 -20 -20 -20 -20 -20 -20 -20 -20 -20 -20 -20 -20 -20 -20 -20 -20 -20 -20 -16 6 4 -20 16 10 6 20 23 33 17 25 31 34 28 34 29 -10 -18
35 34 3 2 -16 4 -20 -20 -20 -20 -20 -20 -20 -20 -20 -20 -20 -20 -20 -20 -20 -20 -18 -20 -20 -6 -1 6 19 18 -19 18 13 -17 10 30 6 15 19 27 33 38 10 -20 -20
33 27 12 3 8 -0 -20 -20 -20 -20 -20 -20 -20 -20 -20 -20 -20 -20 -20 -20 -20 -19 -20 -20 -20 -20 14 -4 21 17 2 -17 2 10 5 10 -14 -1 16 19 23 9 26 -18 -17
32 0 15 -8 7 -20 -20 -20 -20 -20 -20 -20 -20 -20 -20 -20 -20 -20 -20 -19 6 -3 14 6 13 29 31 25 15 7 -18 -10 -9 -19 -20 -0 -2 9 12 2 1 5 36 -5 -1
27 -12 17 -19 5 -20 -20 -20 -20 -20 -20 -20 -20 -19 -20 -20 -20 -20 -20 -20 -19 -20 4 9 -5 -5 -12 16 28 -4 -20 -19 -20 -20 -20 -20 5 4 -8 1 14 8 8 38 5
29 2 11 8 0 -20 -20 -20 -20 -20 -20 -20 -20 -20 -20 -20 -20 -20 -20 -20 -20 -20 4 -16 -13 5 -20 -14 31 14 -20 -20 -20 -20 -20 -20 -18 -20 -5 10 9 -5 15 24 14
32 8 17 7 -13 -20 -20 -20 -20 -20 -20 -20 -20 -20 -20 -10 -20 -20 -20 -20 -20 -20 -20 -20 -20 -20 -14 -20 32 6 -13 -20 -20 -20 -20 -20 -20 -20 -20 4 -20 -12 14 5 27
7 1 10 -1 -12 -20 -20 -20 -20 -20 -20 -20 -20 -20 -20 5 -20 -20 -20 -20 -20 -20 -20 -20 -20 -20 -20 -20 -2 9 -20 -20 -20 -20 -20 -20 -20 -20 -20 -15 -20 2 -8 13 17
9 10 11 4 -20 -20 -20 -20 -20 -20 -20 -20 -20 -20 -20 -20 -20 -20 -20 -20 -20 -20 -20 -20 -20 -20 -20 -20 -10 11 -15 -9 -20 -20 -20 -20 -20 -20 -20 -20 -20 -8 -13 3 12
-7 19 5 6 -20 -20 -20 -20 -20 -20 -20 -20 -20 -20 -20 -20 -20 -20 -20 -20 -20 -20 -20 -20 -20 -20 -20 -20 -20 -20 -20 10 -20 -20 -20 -20 -20 -20 -20 -20 -16 -20 -15 -11 -4
21 -1 20 5 -20 -20 -20 -20 -20 -20 -20 -20 -20 -20 -20 -11 -20 -20 -20 -20 -20 -20 5 -20 -7 -20 -19 -20 -20 -20 -20 -20 -20 -20 -20 -20 -20 -20 -20 -20 -20 -20 -19 -20 -20
7 3 6 -20 -20 -20 -20 -20 -20 -20 -20 -20 -20 -20 -20 -20 -20 -20 -20 -20 -20 -20 -8 -20 -17 -20 -20 -20 -20 -20 -20 -20 -20 -20 -20 -20 -20 -20 -20 -20 -20 -20 -20 -20 -20
-4 10 -9 -20 -20 -20 -20 -20 -20 -20 -20 -20 -20 -20 -20 -20 -20 -20 -20 -20 -20 -20 -20 -20 -20 -20 -20 -20 -20 -20 -20 -20 -20 -20 -20 -20 -20 -20 -20 -20 -20 -20 -20 -20 -20
9 3 -20 -20 -20 -20 -20 -20 -20 -20 -20 -20 -20 -20 -20 -20 -20 -20 -20 -20 -20 -9 -7 -20 -20 -20 -20 -20 -20 -20 -20 -20 -20 -20 -20 -20 -20 -20 -20 -20 -20 -20 -20 -20 -20

GFSSW_prec_radar_111.txt.gz
Reflectivity
-19 -20 11 13 -7 7 15 9 -11 3 11 -19 -20 -1 7 12 -20 -20 -20 -20 -20 -20 -11 -20 -20 -20 -20 -20 -20 -12 12 6 -20 -20 -20 -20 -20 -20 5 -9 -10 -20 -20 -20 -14
-18 -20 -13 12 9 2 -8 -20 11 -16 12 -18 -14 4 -3 -20 -20 -20 -20 -20 -20 -4 13 -3 8 -11 -20 -20 -20 5 9 -20 -20 -20 -20 -20 -20 -20 -20 9 9 5 -20 -20 -17
-20 -3 1 -10 -20 9 -20 12 4 11 4 -1 -20 -20 4 -20 -20 -20 -20 -20 -15 -7 -20 -20 -19 -20 -20 -20 -20 -13 -20 -20 -20 -20 -20 13 -20 -20 11 15 14 12 -20 30 -4
-1 -10 15 3 -1 -20 -19 -20 -3 8 -20 -20 -20 -20 -20 -20 -20 -20 -20 -20 -20 -20 -20 -20 -20 -20 -20 -20 -20 -9 -20 -20 -20 -20 -20 3 13 12 5 18 19 20 -20 -20 35
2 -17 -12 8 -1 -1 6 1 9 -13 -20 -20 -20 -20 -20 -20 -20 -20 -20 -20 -20 -20 -20 -20 -20 -4 4 -20 -20 -12 -20 -20 -20 -11 -20 2 12 -20 14 12 25 9 -19 -20 -20
16 15 6 6 -18 -0 -20 9 7 9 0 -20 -20 -20 -20 -20 -20 -20 -20 -20 -20 -20 -20 -20 -17 -2 14 -13 14 -1 -0 -20 -20 -20 10 -20 -20 -20 -20 8 26 17 -20 -20 -20
31 25 22 -18 2 6 -19 9 11 9 -16 -20 1 -20 -20 -20 -20 -20 -20 -20 -20 -20 -20 -20 -20 7 9 -20 -9 -20 14 18 -20 -20 -20 -7 -20 -20 -18 -3 22 30 -20 -20 -20
25 13 36 -10 -2 -12 -13 5 14 0 -20 -20 -2 -20 -20 -20 -20 -20 -20 -20 -20 -20 -20 -20 -12 3 18 -2 6 -20 -20 -12 -20 -20 -20 -8 -20 -20 -18 1 19 21 -20 -20 -20
21 30 28 27 -6 1 -9 10 12 -20 -20 0 -20 -20 -20 -20 -20 -20 -20 -20 -20 -20 -20 -20 -20 -5 -1 -9 -19 -11 -20 -20 -20 -20 -20 -7 -20 -10 -12 -1 16 9 3 -17 -20
20 24 32 33 -12 -1 6 -12 -20 -20 -20 -20 -20 -20 -20 -20 -20 -20 -20 -20 -20 -20 -20 -20 -20 -20 -20 -0 -20 -20 -20 -20 -18 -3 -20 -15 -20 11 -9 13 11 15 23 -11 -20
20 15 35 35 4 0 -16 -15 -19 -20 -20 -20 -20 -20 -20 -20 -20 -20 -20 -20 -20 -20 -20 -20 -20 -20 -20 -20 -20 -16 7 -20 -20 -20 18 -16 -20 -4 -3 6 11 27 0 -9 -9
29 21 6 37 -10 13 -18 -15 -3 -20 -20 -20 -20 -20 -20 -20 -20 -20 -20 -20 -20 -20 -20 -20 -20 -20 -20 -20 0 -20 9 -8 -19 -10 26 -20 -12 -2 12 8 20 27 21 5 -1
29 19 22 32 0 6 -17 7 -20 -20 -20 -20 -20 -20 -20 -20 -20 -20 -20 -20 -20 -20 -20 -20 -20 -20 -20 -17 7 6 12 16 4 17 22 -16 27 30 12 7 24 32 16 9 12
27 23 2 29 -4 -7 -4 2 -20 -20 -20 -20 -20 -20 -20 -20 -20 -20 -20 -20 -20 -20 -20 -20 -20 -20 -8 5 15 15 7 4 21 38 25 15 16 22 7 10 13 12 23 24 21
-9 -14 -11 19 4 -5 3 -8 -20 -20 -20 -20 -20 -20 -20 -20 -20 -20 -20 -20 -20 -20 -20 -20 -20 -20 -20 13 5 20 41 21 -19 31 34 13 3 21 7 9 36 32 36 35 23
25 -7 -6 25 11 3 11 1 -20 -20 -20 -20 -20 -20 -20 -20 -20 -20 -20 -20 -20 -20 -20 -20 -20 11 21 17 32 16 29 8 -20 19 25 16 -10 -16 3 26 29 16 29 34 7
21 9 -2 15 17 1 12 -20 -20 -20 -20 -20 -20 -20 -20 -20 -20 -20 -20 -20 -20 -20 -2 5 22 9 11 5 -20 -19 -20 -16 3 13 20 10 -20 -18 11 20 9 16 42 30 -19
29 16 -4 13 20 9 -1 -20 -20 -20 -20 -20 -20 -20 -20 -20 -20 -20 -20 -20 -20 -20 -20 -20 -6 14 -4 33 13 -20 -20 -20 -20 -5 5 -0 -8 -8 7 7 20 24 33 16 25
25 10 -18 5 18 13 -20 -20 -20 -20 -20 -20 -20 -20 -7 -20 -20 -20 -20 -20 -20 -20 -2 -16 -20 -20 9 35 -10 -20 3 7 -20 -20 -20 -14 -9 -2 12 19 17 7 27 35 13
9 8 12 14 22 -12 -20 -20 -20 -20 -20 -20 -20 -20 -20 -20 -20 -20 -20 -20 -20 -20 -20 -20 -20 -20 15 15 -15 -20 2 3 -20 -20 -20 -20 -12 5 7 -3 -7 -15 4 37 16
12 17 25 16 22 -20 -20 -20 -20 -20 -20 -20 -20 -20 -20 -20 -20 -20 -20 -20 -20 -20 -20 -20 -20 -20 -20 -9 -2 13 8 -20 -20 -20 -20 -20 8 -12 -20 -20 -15 6 4 38 14
24 16 19 16 15 -20 -20 -20 -20 -20 -20 -20 -20 -20 -20 -20 -20 -20 -20 -20 -20 -19 -20 -20 -20 -20 -20 -20 7 -3 -20 -20 -20 -20 -20 -20 10 5 -20 -12 -20 -3 1 17 33
20 20 19 26 -11 -20 -20 -20 -20 -20 -20 -20 -20 -20 -20 -20 -20 -20 -20 -20 -20 -20 -5 -14 -20 -20 -20 -20 -20 -20 -20 -20 -20 -20 -20 -20 1 2 6 -10 -19 -20 -20 -15 26
5 11 31 23 -20 -20 -20 -20 -20 -20 -20 -20 -20 -20 -20 -20 -20 -20 -20 -20 -20 -20 -20 -10 -20 -20 -20 -20 -20 -20 -20 -20 -20 -20 -20 -20 -20 -20 -20 -20 -20 -20 -20 -15 10
-8 9 27 -2 -3 -20 -20 -20 -20 -20 -20 -20 -20 -20 -20 -20 -20 -20 -20 -20 -20 2 -20 -20 -19 -19 -20 -20 -20 -20 -20 -20 -20 -20 -20 -20 -20 -20 -20 -20 -20 -20 -20 -20 -8
14 19 -13 -20 -20 -20 -20 -20 -20 -20 -20 -20 -20 -20 -20 -20 -20 -20 -20 -20 -20 -20 -20 -20 -20 -20 -20 -20 -20 -20 -20 -20 -20 -20 -20 -20 -20 -20 -20 -20 -20 -20 -20 -20 -20
10 3 -20 -20 -20 -20 -20 -20 -20 -20 -20 -20 -20 -20 -20 -20 -20 -20 -20 -20 -20 -20 -20 -20 -20 -20 -20 -20 -20 -20 -20 -20 -20 -20 -20 -20 -20 -20 -20 -20 -20 -20 -20 -20 -20

GFSSW_prec_radar_114.txt.gz
Reflectivity
4 1 -20 -20 -20 -16 -14 5 -2 7 -20 11 -20 -20 -20 -20 -20 -20 -20 -20 -20 -20 -20 -20 -20 -20 -20 -20 -20 -20 8 -6 -20 -20 -20 -20 -20 -20 -20 -20 -20 -19 -20 -20 -20
13 -5 -13 -12 -20 -8 -1 -7 -9 8 12 -20 -20 -20 2 -20 -20 -20 -20 -20 -20 3 12 -19 -1 -10 -20 -20 -20 -1 0 -20 -20 -20 -20 -20 -20 -20 -20 -20 -20 -7 -13 -20 -20
14 21 5 -2 -1 -3 -2 5 9 9 -14 -20 -20 -20 -20 -20 -20 -20 -20 -2 8 -15 -20 -20 -20 -20 -20 -20 -20 -17 -20 -20 -20 -20 -20 -20 -20 -20 16 -15 -20 -20 -20 -20 -20
23 24 22 -11 -20 -20 -0 10 -13 -7 -19 -20 -20 -20 -20 -20 -20 -20 -20 -20 -20 -20 -20 -20 -20 -20 -20 -20 -20 -20 -20 -20 -20 -20 -20 -20 -20 -20 -20 -20 -20 -20 9 -20 -20
17 26 25 28 24 -1 -18 3 -11 15 -20 -20 -20 -20 -20 -20 -20 -20 -20 -20 -20 -20 -20 -20 -20 -20 -20 -20 -20 -20 -20 -20 -20 -20 -20 -17 -20 -20 -20 -20 -20 -20 1 -3 -20
21 21 20 31 27 11 -16 -9 9 15 -20 -20 -20 -20 -20 -20 -20 -20 -20 -20 -20 -20 -20 -20 -20 -20 -8 -1 5 -20 -0 2 -5 -20 -13 4 -10 -8 -20 -20 -20 -17 -5 12 -20
10 18 17 18 21 -10 -7 -20 10 -4 -18 -20 -20 -20 -20 -20 -20 -20 -20 -20 -20 -20 -20 -20 -20 -20 -20 -20 -20 5 5 1 -20 -20 -13 9 4 -18 -20 -20 -20 -16 -4 1 -20
-12 30 20 23 26 -5 7 2 13 -0 -20 -20 13 -18 -15 -20 -20 -20 -20 -20 -20 -20 -20 -20 -10 -12 11 4 -16 9 6 1 -20 11 -20 20 -11 -20 -20 -20 -20 -20 17 1 -15
-3 -8 19 24 5 22 9 14 14 -4 -19 12 -20 -5 -20 -20 -20 -20 -20 -20 -20 -20 -20 -20 -4 -3 3 6 6 3 -10 -17 -20 -20 -14 17 3 -20 -20 -20 -20 -19 -7 -14 -4
-17 13 20 -2 17 27 6 15 10 -5 -3 2 -4 -20 -20 -20 -20 -20 -20 -20 -20 -20 -20 -20 -8 8 18 -0 -11 -2 8 12 16 -5 24 21 -2 3 -14 -15 -20 -18 -20 -20 -2
-16 14 24 20 4 9 6 15 -5 8 12 -9 -20 -20 -20 -20 -20 -20 -20 -20 -20 -20 5 -20 9 7 0 7 11 10 12 9 -20 -20 -20 4 -3 19 -13 23 -20 -5 -20 -20 -7
-20 13 17 19 12 -18 11 -5 -20 13 -4 -2 -20 -20 -20 -20 -20 -20 -20 -20 -20 -2 -14 11 -7 -20 -20 -20 -17 9 8 -0 1 -20 -1 -13 7 -20 -20 -20 0 -13 -20 -19 -2
8 24 26 26 11 -20 1 6 -4 4 2 -20 -20 -20 -20 -20 -20 -20 -20 -20 -20 -20 -8 6 -20 -20 -20 -10 5 7 9 -6 -1 22 -13 13 5 7 -3 -20 -20 -20 -18 -20 -20
32 27 22 28 -20 -15 -1 -6 -1 12 -14 -20 -20 -20 -20 -20 -20 -20 -20 -20 -20 -20 -20 -18 -20 -20 -20 -0 23 8 29 30 17 28 16 -5 7 -15 -16 -11 -12 -20 -20 5 -20
-1 19 15 -17 -20 -20 -20 -10 10 -7 -20 -20 -20 -20 -20 -20 -20 -20 -20 -20 -20 -20 -7 -20 -20 -20 -19 -2 36 9 36 12 30 27 15 -6 24 39 18 11 -13 -20 -1 0 -20
13 30 5 -20 -18 -20 -2 12 6 -20 -20 -20 -20 -20 -14 -20 -20 -20 -20 -20 -20 -16 -20 -20 -20 -20 -20 -17 -4 10 26 29 41 40 23 1 18 39 23 2 -18 -20 -20 -19 -20
-19 26 -15 -20 -17 -10 9 15 -19 -20 -20 -20 -13 -20 -20 -20 -20 -20 -20 -20 -6 -17 1 -8 -4 -20 -1 3 1 -3 -6 8 22 20 27 10 -20 9 -10 -8 -20 -8 -20 -20 -12
-19 23 22 13 -20 -4 23 -4 -20 -20 -20 -20 -20 -20 -20 -20 -20 -20 -20 -20 -20 -20 -4 -2 -19 14 4 20 10 -18 4 6 17 19 23 21 11 0 -20 6 -17 8 -9 16 27
31 27 24 -3 -4 4 14 -20 -20 -20 -20 -20 -20 -20 -20 -20 -20 -20 -20 -20 -20 -20 -20 2 5 24 15 11 -4 -7 -1 1 -5 -6 13 15 -1 -20 -20 -13 -20 2 30 29 22
26 3 1 -1 -16 -12 5 -20 -20 -20 -20 -20 -20 -20 -20 -20 -20 -20 -20 -20 -5 -20 -20 -0 -12 -20 -19 1 2 16 25 6 -20 -10 9 8 5 10 -19 -19 10 29 33 28 32
33 22 0 16 -2 -10 -18 -20 -20 -20 -20 -20 -20 -20 -20 -20 -20 -20 -20 -20 -20 -20 -20 -20 -20 -15 -20 -4 33 -7 -2 -9 -20 -20 0 1 18 19 -7 -10 14 27 40 37 38
25 28 13 17 3 -0 -20 -20 -20 -20 -20 -20 -20 -20 -20 -20 -20 -20 -20 -20 -20 -5 -20 -20 -20 -13 6 -1 -19 -20 -19 -19 -13 -20 -20 -18 15 0 -15 -1 -8 21 37 36 26
26 24 29 15 6 -20 -20 -20 -20 -20 -20 -20 -20 -20 -20 -20 -20 -20 -20 -20 -20 -3 -13 11 -18 -20 -20 8 -20 -20 -20 -20 -20 -20 -20 -7 14 -20 -20 -20 -5 14 16 38 33
23 25 29 23 -20 -20 -20 -20 -20 -20 -20 -20 -20 -20 -20 -20 -20 -20 -20 -20 -20 -20 -20 -20 -5 -20 -9 0 -18 -20 -20 -19 -20 -20 -20 -7 -17 -20 -20 -20 -20 -10 -17 10 27
17 2 15 -8 -16 -20 -20 -20 -20 -20 -20 -20 -20 -20 -20 -20 -20 -20 -20 -20 -20 -20 -20 -20 -6 -20 -20 -20 -20 -20 -20 -20 -18 -20 -20 -20 -20 -20 -20 -20 -20 -19 -17 -6 -1
-13 11 -11 -20 -20 -20 -20 -20 -20 -20 -20 -20 -20 -20 -20 -20 -20 -20 -20 -20 -20 -20 -20 -20 -20 -20 -20 -20 -20 -20 -20 -20 -20 -20 -20 -20 -20 -20 -20 -20 -20 -20 -20 -1 -3
-3 11 -20 -20 -20 -20 -20 -20 -20 -20 -20 -20 -20 -20 -20 -20 -20 -20 -20 -20 -20 -20 -20 -20 -20 -20 -20 -20 -20 -15 -20 -20 -20 -20 -20 -20 -20 -20 -20 -20 -20 -20 -20 -20 -19

GFSSW_prec_radar_117.txt.gz
Reflectivity
10 8 -14 7 -20 -20 -9 -20 8 -6 -19 10 -20 -20 -20 -20 -20 -20 -20 -20 -20 -20 -20 -20 -20 -20 -20 -20 -20 -20 -10 -16 -20 -20 -20 -20 -20 -20 -20 -20 -20 -20 -20 -20 -20
18 17 18 -14 13 -20 1 6 1 12 -2 -20 -20 -20 -20 -20 -20 -20 -20 -20 -20 -13 -9 -14 6 -20 -20 -20 -16 -20 -20 -20 -20 -20 -20 -20 -20 -20 -20 -20 -20 -20 -20 5 18
17 8 21 24 -19 8 -20 -17 -20 12 5 1 5 -20 -20 -20 -20 -20 -20 -13 -20 2 12 -19 -20 -20 -20 -15 -19 -15 1 -20 -20 -20 -20 -20 -20 -20 -20 -20 -20 -20 -20 -20 -18
4 22 20 18 7 -12 2 -17 3 4 2 -7 -20 -19 -20 -20 -20 -20 -20 -20 -20 -20 -20 -20 -20 -1 -20 -15 -20 -5 -20 -20 -20 -20 -20 -20 -20 -20 -20 -20 -20 -20 -20 -20 23
-3 -15 24 7 -8 7 18 5 15 11 -15 -15 -17 -16 -20 -20 -20 -20 -20 -20 -20 -20 -20 -20 -20 -18 -20 -20 -20 -20 -20 -20 -20 -20 -20 -20 -20 -20 -20 -20 -20 -20 -20 11 -14
-20 -8 17 -8 12 1 16 11 -20 15 -17 6 -1 -8 -20 -20 -20 -20 -20 -20 -20 -20 -20 -20 -20 -20 -20 -20 -20 -20 -20 -20 -20 -20 -20 -20 -20 -20 -20 -20 -20 -20 -20 -20 -20
-20 -3 23 21 24 24 -13 -11 -20 -17 12 12 2 -20 -20 -20 -20 -20 -20 -20 -20 -20 -20 -20 -20 -20 -20 -20 -20 -20 -20 -20 -20 -20 -20 -20 6 -18 -20 -20 -20 -20 -20 -20 -20
-20 -17 14 26 28 17 -19 24 7 -18 -4 1 -7 1 -13 -20 -20 -20 -20 -20 -20 -20 -20 -20 -20 -20 -7 -20 -15 8 6 -1 -20 -20 -20 -8 -20 -20 -20 -20 -20 -20 -20 -20 -20
-20 -20 17 19 28 5 19 -8 -18 17 13 -5 4 -7 9 -2 -20 -20 -20 -20 -20 -20 -20 -20 -6 -9 -8 15 12 -0 -2 -20 -20 -20 -20 1 10 -20 -20 -20 -20 -20 -20 -20 -20
-16 -14 1 26 16 18 7 -13 -20 -1 12 -10 -8 8 11 -5 -4 -20 -20 -20 -20 -20 -5 -6 8 4 6 17 11 8 13 5 -18 -20 2 20 -17 -20 -20 -20 -20 -20 -20 -20 -20
-20 -20 -20 18 19 -3 6 -20 -20 -7 9 -6 12 11 4 -17 -20 -20 -20 -20 -20 -3 5 10 12 8 12 2 11 12 9 7 -20 -20 -10 -20 10 -20 -20 -20 -20 -19 -20 -20 -20
-20 -20 -16 28 22 26 11 -20 -20 -20 2 -2 11 0 -20 -20 -20 -20 -20 -20 -11 -1 6 6 2 4 -20 -20 -20 -17 -7 -20 -20 -20 -16 -16 -17 -20 -1 -20 22 24 -4 -20 -20
4 14 -12 22 25 33 8 -20 -20 -4 -6 15 5 -20 -20 -20 -4 -13 -20 -20 -20 -7 -3 -6 -20 -20 -20 -20 -20 -9 -1 -16 4 -8 6 1 -3 -20 -20 -20 13 18 -20 -20 -20
-1 34 24 29 30 17 5 -20 -14 -6 16 1 -20 -20 -20 -20 -20 -20 -20 -20 -20 -10 -16 -18 -20 -20 -20 -20 11 11 13 22 3 15 14 -3 20 3 -20 -20 -15 -20 -20 -20 -20
-18 20 34 24 1 2 -20 -20 -20 3 -2 -20 -20 -20 -20 -20 -20 -20 -20 -19 -12 -9 -20 -20 -20 -19 -20 -14 21 -12 19 30 26 11 6 14 29 -16 5 -20 -20 -19 -18 -2 -16
-20 -0 31 23 -20 -20 -20 -16 -2 -1 -18 -20 -20 -17 -20 -20 -20 -20 -20 -20 -20 -8 -20 -20 -20 -8 -20 -20 -4 9 21 29 31 9 10 13 21 23 30 -1 -7 17 14 16 4
3 25 35 7 -15 -12 -11 -4 -3 3 -20 -13 -14 -15 -20 -20 -20 -20 -20 -20 -10 -2 4 -20 -17 -20 -13 -2 -3 0 12 25 31 23 20 38 29 33 30 30 35 25 14 12 -6
-15 11 31 -3 -10 -11 -2 -20 -8 -20 -20 -20 -20 -20 -18 -20 -20 -20 -20 -8 -20 -20 -19 0 13 13 16 12 3 -8 15 20 26 22 18 -18 11 36 35 31 24 7 27 16 -20
18 -9 0 6 18 -8 -20 4 -20 -20 -20 -20 -20 -20 -20 -18 -20 -20 -20 -16 -20 -20 4 9 4 -10 -11 -17 -1 -17 12 19 18 21 -4 19 30 34 32 30 23 29 19 -4 -1
31 18 23 25 10 -20 -11 -20 -20 -20 -20 -20 -20 -20 -3 -7 -20 -20 -20 -20 -3 -6 -20 -10 -3 -6 -19 -8 -0 7 -19 9 10 13 18 18 17 24 23 25 33 29 16 0 10
26 25 0 -13 -20 -8 -4 -20 -20 -20 -20 -20 -20 -20 -20 -16 -20 -20 -20 -20 -17 -10 9 -19 -8 22 20 5 26 -8 -2 -20 7 -17 17 11 22 33 15 23 34 25 21 22 23
25 29 3 4 8 1 1 -20 -20 -20 -20 -20 -20 -20 -20 -20 -20 -20 -20 -20 -20 -2 -20 -20 -5 6 -20 -15 -12 -15 2 -20 11 -1 -10 -3 23 26 6 15 29 25 26 34 28
24 26 20 -1 2 2 -20 -20 -20 -20 -20 -20 -20 -20 -20 -20 -20 -20 -20 -20 -20 -20 15 2 -2 16 9 10 2 -19 -20 -20 -20 -16 -20 3 21 -13 -20 14 28 35 32 36 35
18 12 27 23 -17 -20 -20 -20 -20 -20 -20 -20 -20 -20 -20 -20 -20 -20 -20 -20 -20 -20 -20 -18 -17 -20 6 -7 3 -20 -20 -20 -20 -14 2 10 11 -20 -20 2 10 18 29 36 37
1 10 -5 -1 -8 -20 -20 -20 -20 -20 -20 -20 -20 -20 -20 -20 -20 -20 -20 -20 -20 -20 -14 -14 -18 -20 -20 -20 -20 -20 -20 -20 -20 -15 -3 -3 -14 -20 -20 0 -8 10 5 9 22
-20 -13 -0 -14 -20 -20 -20 -20 -20 -20 -20 -20 -20 -20 -20 -20 -20 -20 -20 -20 -20 -20 -20 -20 -7 -20 -20 -20 -14 -20 -20 -20 -20 7 6 -9 -20 -20 -20 -20 -7 3 -5 11 9
-20 -11 -8 -20 -20 -20 -20 -20 -20 -20 -20 -20 -20 -20 -20 -20 -20 -20 -20 -20 -20 -20 -20 -20 -20 -15 -20 -20 -20 -19 -16 -20 -20 -20 -7 -20 -16 -20 -20 -20 -20 -2 3 3 -1